<?xml version='1.0' encoding='UTF-8'?><gpx version="1.1" creator="JPX - https://github.com/jenetics/jpx" xmlns="http://www.topografix.com/GPX/1/1"><trk><trkseg><trkpt lat="44.52289867874284" lon="10.888232714923697"><ele>134.0</ele><time>2026-04-11T14:40:17Z</time></trkpt><trkpt lat="44.52296498230298" lon="10.888196243106025"><ele>134.0</ele><time>2026-04-11T14:40:19Z</time></trkpt><trkpt lat="44.52304746325539" lon="10.888280896743002"><ele>134.0</ele><time>2026-04-11T14:40:21Z</time></trkpt><trkpt lat="44.52311896351293" lon="10.88833394727522"><ele>134.0</ele><time>2026-04-11T14:40:23Z</time></trkpt><trkpt lat="44.52309749611274" lon="10.888426701913552"><ele>134.0</ele><time>2026-04-11T14:40:25Z</time></trkpt><trkpt lat="44.52305841514444" lon="10.88853022806591"><ele>134.0</ele><time>2026-04-11T14:40:27Z</time></trkpt><trkpt lat="44.52302339321809" lon="10.888638811837607"><ele>134.0</ele><time>2026-04-11T14:40:29Z</time></trkpt><trkpt lat="44.52298030527547" lon="10.888747280384198"><ele>134.0</ele><time>2026-04-11T14:40:31Z</time></trkpt><trkpt lat="44.52292680764745" lon="10.888848090273358"><ele>134.0</ele><time>2026-04-11T14:40:33Z</time></trkpt><trkpt lat="44.522895351536704" lon="10.888956118067291"><ele>134.0</ele><time>2026-04-11T14:40:34.999Z</time></trkpt><trkpt lat="44.52291454554237" lon="10.889042707051438"><ele>134.0</ele><time>2026-04-11T14:40:43.999Z</time></trkpt><trkpt lat="44.52296403372597" lon="10.889102194077715"><ele>134.0</ele><time>2026-04-11T14:40:46.999Z</time></trkpt><trkpt lat="44.52303808383238" lon="10.889154195414612"><ele>134.0</ele><time>2026-04-11T14:40:48.999Z</time></trkpt><trkpt lat="44.523108309476235" lon="10.889194979940408"><ele>134.0</ele><time>2026-04-11T14:40:50.999Z</time></trkpt><trkpt lat="44.523188376762015" lon="10.889244703093931"><ele>134.0</ele><time>2026-04-11T14:40:52.999Z</time></trkpt><trkpt lat="44.523279600416224" lon="10.889288296894469"><ele>134.0</ele><time>2026-04-11T14:40:54.999Z</time></trkpt><trkpt lat="44.52337377328088" lon="10.889337091296966"><ele>134.0</ele><time>2026-04-11T14:40:56.999Z</time></trkpt><trkpt lat="44.52346006135101" lon="10.88939046460119"><ele>133.8</ele><time>2026-04-11T14:40:58.999Z</time></trkpt><trkpt lat="44.52354056902523" lon="10.889454369155457"><ele>133.60000000000002</ele><time>2026-04-11T14:41:00.999Z</time></trkpt><trkpt lat="44.52363316357201" lon="10.889520743946711"><ele>133.4</ele><time>2026-04-11T14:41:02.999Z</time></trkpt><trkpt lat="44.5237315472859" lon="10.88957306193249"><ele>133.20000000000002</ele><time>2026-04-11T14:41:04.999Z</time></trkpt><trkpt lat="44.52381808071172" lon="10.889634846106011"><ele>133.0</ele><time>2026-04-11T14:41:06.999Z</time></trkpt><trkpt lat="44.52391629824362" lon="10.889689030650247"><ele>132.8</ele><time>2026-04-11T14:41:08.999Z</time></trkpt><trkpt lat="44.52400978933452" lon="10.889748992902335"><ele>132.60000000000002</ele><time>2026-04-11T14:41:10.999Z</time></trkpt><trkpt lat="44.52411798807343" lon="10.889801211472316"><ele>132.39999999999998</ele><time>2026-04-11T14:41:12.999Z</time></trkpt><trkpt lat="44.524208155986095" lon="10.889866983344113"><ele>132.2</ele><time>2026-04-11T14:41:14.999Z</time></trkpt><trkpt lat="44.524304521673315" lon="10.889934112713107"><ele>132.0</ele><time>2026-04-11T14:41:16.999Z</time></trkpt><trkpt lat="44.524409701728835" lon="10.890002874800297"><ele>132.0</ele><time>2026-04-11T14:41:18.999Z</time></trkpt><trkpt lat="44.52452073200768" lon="10.890074940752791"><ele>132.0</ele><time>2026-04-11T14:41:20.999Z</time></trkpt><trkpt lat="44.52463808284654" lon="10.890151588387715"><ele>132.0</ele><time>2026-04-11T14:41:22.999Z</time></trkpt><trkpt lat="44.52469602691188" lon="10.890190277367925"><ele>132.0</ele><time>2026-04-11T14:41:23.999Z</time></trkpt><trkpt lat="44.524756192946334" lon="10.890229103119658"><ele>132.0</ele><time>2026-04-11T14:41:24.999Z</time></trkpt><trkpt lat="44.52481506761105" lon="10.890274321916785"><ele>132.0</ele><time>2026-04-11T14:41:25.999Z</time></trkpt><trkpt lat="44.524872041433674" lon="10.890316533999467"><ele>131.66666666666666</ele><time>2026-04-11T14:41:26.999Z</time></trkpt><trkpt lat="44.52492978386178" lon="10.890357941007524"><ele>131.33333333333334</ele><time>2026-04-11T14:41:27.999Z</time></trkpt><trkpt lat="44.52505399914435" lon="10.890434902396056"><ele>131.0</ele><time>2026-04-11T14:41:29.999Z</time></trkpt><trkpt lat="44.52511784899233" lon="10.890475554530628"><ele>130.66666666666669</ele><time>2026-04-11T14:41:30.999Z</time></trkpt><trkpt lat="44.52517909066703" lon="10.89051581733602"><ele>130.33333333333334</ele><time>2026-04-11T14:41:31.999Z</time></trkpt><trkpt lat="44.52524452916881" lon="10.89054863591239"><ele>130.0</ele><time>2026-04-11T14:41:32.999Z</time></trkpt><trkpt lat="44.52531108463765" lon="10.890585523191602"><ele>130.0</ele><time>2026-04-11T14:41:33.999Z</time></trkpt><trkpt lat="44.525370877867374" lon="10.890632017714271"><ele>130.0</ele><time>2026-04-11T14:41:34.999Z</time></trkpt><trkpt lat="44.52543148787592" lon="10.890670398030158"><ele>130.0</ele><time>2026-04-11T14:41:35.999Z</time></trkpt><trkpt lat="44.525498546613434" lon="10.890712830129036"><ele>130.0</ele><time>2026-04-11T14:41:36.999Z</time></trkpt><trkpt lat="44.52556298228203" lon="10.890751495018108"><ele>130.0</ele><time>2026-04-11T14:41:37.999Z</time></trkpt><trkpt lat="44.52562304522551" lon="10.890787601341307"><ele>130.0</ele><time>2026-04-11T14:41:38.999Z</time></trkpt><trkpt lat="44.52573433344684" lon="10.890866010323649"><ele>130.00000000000003</ele><time>2026-04-11T14:41:40.999Z</time></trkpt><trkpt lat="44.52579598004312" lon="10.890907007177468"><ele>130.0</ele><time>2026-04-11T14:41:41.999Z</time></trkpt><trkpt lat="44.52585705429725" lon="10.890949153964984"><ele>130.0</ele><time>2026-04-11T14:41:42.999Z</time></trkpt><trkpt lat="44.52592214656087" lon="10.89098349427022"><ele>130.0</ele><time>2026-04-11T14:41:43.998Z</time></trkpt><trkpt lat="44.525981835850416" lon="10.891022317228515"><ele>130.0</ele><time>2026-04-11T14:41:44.998Z</time></trkpt><trkpt lat="44.52604547511626" lon="10.891060368732493"><ele>130.00000000000003</ele><time>2026-04-11T14:41:45.998Z</time></trkpt><trkpt lat="44.52610896507729" lon="10.891095285658274"><ele>130.0</ele><time>2026-04-11T14:41:46.998Z</time></trkpt><trkpt lat="44.526173639916735" lon="10.891143064089746"><ele>129.5</ele><time>2026-04-11T14:41:47.998Z</time></trkpt><trkpt lat="44.52623862108423" lon="10.89118283419243"><ele>129.0</ele><time>2026-04-11T14:41:48.998Z</time></trkpt><trkpt lat="44.526303839147" lon="10.89124591185995"><ele>128.5</ele><time>2026-04-11T14:41:49.998Z</time></trkpt><trkpt lat="44.52636549496536" lon="10.891286393004403"><ele>128.0</ele><time>2026-04-11T14:41:50.998Z</time></trkpt><trkpt lat="44.52643102558999" lon="10.891329651769466"><ele>127.50000000000001</ele><time>2026-04-11T14:41:51.998Z</time></trkpt><trkpt lat="44.52648892825128" lon="10.891367875134254"><ele>127.0</ele><time>2026-04-11T14:41:52.998Z</time></trkpt><trkpt lat="44.526617558526745" lon="10.89142959416121"><ele>127.00000000000001</ele><time>2026-04-11T14:41:54.998Z</time></trkpt><trkpt lat="44.52667836958009" lon="10.891475244165333"><ele>127.0</ele><time>2026-04-11T14:41:55.998Z</time></trkpt><trkpt lat="44.52673889450754" lon="10.89151540234443"><ele>127.0</ele><time>2026-04-11T14:41:56.998Z</time></trkpt><trkpt lat="44.52680050398203" lon="10.89155263533359"><ele>127.0</ele><time>2026-04-11T14:41:57.998Z</time></trkpt><trkpt lat="44.526862170271414" lon="10.891596870968574"><ele>127.00000000000001</ele><time>2026-04-11T14:41:58.999Z</time></trkpt><trkpt lat="44.52692157237379" lon="10.891645215567419"><ele>127.0</ele><time>2026-04-11T14:41:59.999Z</time></trkpt><trkpt lat="44.5270435335926" lon="10.891713230953748"><ele>127.16666666666667</ele><time>2026-04-11T14:42:01.999Z</time></trkpt><trkpt lat="44.52710815060326" lon="10.8917532981735"><ele>127.33333333333334</ele><time>2026-04-11T14:42:02.999Z</time></trkpt><trkpt lat="44.52722074589665" lon="10.891828436369439"><ele>127.5</ele><time>2026-04-11T14:42:04.999Z</time></trkpt><trkpt lat="44.527282850649804" lon="10.891859062469377"><ele>127.66666666666666</ele><time>2026-04-11T14:42:05.999Z</time></trkpt><trkpt lat="44.527387830854465" lon="10.891929741845178"><ele>127.83333333333333</ele><time>2026-04-11T14:42:07.999Z</time></trkpt><trkpt lat="44.52745057551167" lon="10.891956109095153"><ele>128.0</ele><time>2026-04-11T14:42:08.999Z</time></trkpt><trkpt lat="44.52755668590134" lon="10.89201959295461"><ele>128.0</ele><time>2026-04-11T14:42:10.999Z</time></trkpt><trkpt lat="44.527661180419685" lon="10.89207566434527"><ele>128.0</ele><time>2026-04-11T14:42:12.999Z</time></trkpt><trkpt lat="44.52774029563781" lon="10.892065498176034"><ele>128.0</ele><time>2026-04-11T14:42:24.999Z</time></trkpt><trkpt lat="44.52777738398446" lon="10.89196841345433"><ele>128.0</ele><time>2026-04-11T14:42:26.999Z</time></trkpt><trkpt lat="44.527761237810914" lon="10.891828983159053"><ele>128.0</ele><time>2026-04-11T14:42:28.999Z</time></trkpt><trkpt lat="44.527715472722704" lon="10.891683591703394"><ele>127.4</ele><time>2026-04-11T14:42:30.999Z</time></trkpt><trkpt lat="44.52768087494923" lon="10.891544641824252"><ele>126.80000000000001</ele><time>2026-04-11T14:42:32.999Z</time></trkpt><trkpt lat="44.52763984751709" lon="10.89140112762777"><ele>126.2</ele><time>2026-04-11T14:42:34.999Z</time></trkpt><trkpt lat="44.52761047700712" lon="10.891260130125502"><ele>125.6</ele><time>2026-04-11T14:42:36.999Z</time></trkpt><trkpt lat="44.52760011468526" lon="10.891108303008004"><ele>125.0</ele><time>2026-04-11T14:42:38.999Z</time></trkpt><trkpt lat="44.5275898829056" lon="10.89096358044472"><ele>125.0</ele><time>2026-04-11T14:42:40.999Z</time></trkpt><trkpt lat="44.52760928156813" lon="10.890807180850079"><ele>125.0</ele><time>2026-04-11T14:42:42.999Z</time></trkpt><trkpt lat="44.527634255769705" lon="10.890653324063841"><ele>125.0</ele><time>2026-04-11T14:42:44.999Z</time></trkpt><trkpt lat="44.527668788073875" lon="10.89050921364422"><ele>125.0</ele><time>2026-04-11T14:42:46.999Z</time></trkpt><trkpt lat="44.52770279245618" lon="10.89035227805118"><ele>125.0</ele><time>2026-04-11T14:42:48.999Z</time></trkpt><trkpt lat="44.52773252241773" lon="10.890182556708867"><ele>125.0</ele><time>2026-04-11T14:42:50.999Z</time></trkpt><trkpt lat="44.527790388330295" lon="10.890034382089027"><ele>125.0</ele><time>2026-04-11T14:42:52.999Z</time></trkpt><trkpt lat="44.52780918648597" lon="10.889950058029665"><ele>125.0</ele><time>2026-04-11T14:42:53.999Z</time></trkpt><trkpt lat="44.52785249441178" lon="10.889783114959323"><ele>125.0</ele><time>2026-04-11T14:42:55.999Z</time></trkpt><trkpt lat="44.52787094609098" lon="10.889693879030716"><ele>124.83333333333333</ele><time>2026-04-11T14:42:56.999Z</time></trkpt><trkpt lat="44.52791315670483" lon="10.88953295578591"><ele>124.66666666666666</ele><time>2026-04-11T14:42:58.999Z</time></trkpt><trkpt lat="44.527936399895445" lon="10.88944746016213"><ele>124.5</ele><time>2026-04-11T14:42:59.999Z</time></trkpt><trkpt lat="44.52795969176048" lon="10.889360878952164"><ele>124.33333333333334</ele><time>2026-04-11T14:43:00.999Z</time></trkpt><trkpt lat="44.5279988005717" lon="10.88918708334918"><ele>124.16666666666667</ele><time>2026-04-11T14:43:02.999Z</time></trkpt><trkpt lat="44.52802370493615" lon="10.889104742817047"><ele>124.0</ele><time>2026-04-11T14:43:03.999Z</time></trkpt><trkpt lat="44.528042468313636" lon="10.889010225164359"><ele>124.00000000000001</ele><time>2026-04-11T14:43:04.999Z</time></trkpt><trkpt lat="44.528066593053296" lon="10.888924921174546"><ele>124.0</ele><time>2026-04-11T14:43:05.999Z</time></trkpt><trkpt lat="44.5280896003333" lon="10.888836352547658"><ele>124.0</ele><time>2026-04-11T14:43:06.999Z</time></trkpt><trkpt lat="44.528115788543936" lon="10.888749802775703"><ele>124.0</ele><time>2026-04-11T14:43:07.999Z</time></trkpt><trkpt lat="44.52813901830226" lon="10.888658437081256"><ele>124.00000000000001</ele><time>2026-04-11T14:43:08.999Z</time></trkpt><trkpt lat="44.52818398027472" lon="10.888493191729406"><ele>124.0</ele><time>2026-04-11T14:43:10.999Z</time></trkpt><trkpt lat="44.528204114694915" lon="10.888405927025543"><ele>124.00000000000001</ele><time>2026-04-11T14:43:11.999Z</time></trkpt><trkpt lat="44.52823021873583" lon="10.888321018260728"><ele>124.0</ele><time>2026-04-11T14:43:12.999Z</time></trkpt><trkpt lat="44.528253605172836" lon="10.888235342299511"><ele>124.0</ele><time>2026-04-11T14:43:13.999Z</time></trkpt><trkpt lat="44.52827639018727" lon="10.888147390873156"><ele>124.0</ele><time>2026-04-11T14:43:14.999Z</time></trkpt><trkpt lat="44.5282971048224" lon="10.888058649217848"><ele>124.00000000000001</ele><time>2026-04-11T14:43:15.999Z</time></trkpt><trkpt lat="44.52832249746227" lon="10.887971068869646"><ele>124.0</ele><time>2026-04-11T14:43:16.999Z</time></trkpt><trkpt lat="44.52836551739167" lon="10.88781247279052"><ele>124.00000000000001</ele><time>2026-04-11T14:43:18.999Z</time></trkpt><trkpt lat="44.528385741908274" lon="10.887726093575091"><ele>124.0</ele><time>2026-04-11T14:43:19.999Z</time></trkpt><trkpt lat="44.52840623242381" lon="10.88763840758877"><ele>124.0</ele><time>2026-04-11T14:43:20.999Z</time></trkpt><trkpt lat="44.528449681475855" lon="10.887473986195955"><ele>124.0</ele><time>2026-04-11T14:43:22.999Z</time></trkpt><trkpt lat="44.528491438253035" lon="10.88731458548317"><ele>124.00000000000001</ele><time>2026-04-11T14:43:24.999Z</time></trkpt><trkpt lat="44.52851420158333" lon="10.887232226085526"><ele>124.0</ele><time>2026-04-11T14:43:25.999Z</time></trkpt><trkpt lat="44.52855638896738" lon="10.887071853446093"><ele>124.4</ele><time>2026-04-11T14:43:27.999Z</time></trkpt><trkpt lat="44.528582209113644" lon="10.8869859989312"><ele>124.80000000000001</ele><time>2026-04-11T14:43:28.999Z</time></trkpt><trkpt lat="44.52861972073884" lon="10.886816095108024"><ele>125.19999999999999</ele><time>2026-04-11T14:43:30.999Z</time></trkpt><trkpt lat="44.52863967322237" lon="10.886728333467474"><ele>125.6</ele><time>2026-04-11T14:43:31.999Z</time></trkpt><trkpt lat="44.528665352907325" lon="10.886646857377851"><ele>126.0</ele><time>2026-04-11T14:43:32.999Z</time></trkpt><trkpt lat="44.52871557256704" lon="10.886480615695294"><ele>125.66666666666667</ele><time>2026-04-11T14:43:34.999Z</time></trkpt><trkpt lat="44.528733306900676" lon="10.886394222016355"><ele>125.33333333333334</ele><time>2026-04-11T14:43:35.999Z</time></trkpt><trkpt lat="44.52875823682383" lon="10.886308911952048"><ele>125.0</ele><time>2026-04-11T14:43:36.999Z</time></trkpt><trkpt lat="44.528778907455134" lon="10.886215401496822"><ele>124.66666666666667</ele><time>2026-04-11T14:43:37.999Z</time></trkpt><trkpt lat="44.52882563945397" lon="10.886049753736907"><ele>124.33333333333334</ele><time>2026-04-11T14:43:39.999Z</time></trkpt><trkpt lat="44.528849820785645" lon="10.88596141561051"><ele>124.0</ele><time>2026-04-11T14:43:40.999Z</time></trkpt><trkpt lat="44.52888961325317" lon="10.885794007163911"><ele>124.0</ele><time>2026-04-11T14:43:42.999Z</time></trkpt><trkpt lat="44.52893631933259" lon="10.885630407129156"><ele>124.0</ele><time>2026-04-11T14:43:44.999Z</time></trkpt><trkpt lat="44.5289561495642" lon="10.885546350327557"><ele>124.0</ele><time>2026-04-11T14:43:45.999Z</time></trkpt><trkpt lat="44.529002195023864" lon="10.885389418297999"><ele>124.0</ele><time>2026-04-11T14:43:47.998Z</time></trkpt><trkpt lat="44.52903061711026" lon="10.88530571649439"><ele>124.0</ele><time>2026-04-11T14:43:48.998Z</time></trkpt><trkpt lat="44.52907463632447" lon="10.885133528490513"><ele>124.50000000000001</ele><time>2026-04-11T14:43:50.998Z</time></trkpt><trkpt lat="44.52909295706496" lon="10.885048239625647"><ele>125.0</ele><time>2026-04-11T14:43:51.998Z</time></trkpt><trkpt lat="44.529112097608966" lon="10.884958449351101"><ele>125.5</ele><time>2026-04-11T14:43:52.998Z</time></trkpt><trkpt lat="44.529132690646655" lon="10.884870947662003"><ele>126.0</ele><time>2026-04-11T14:43:53.998Z</time></trkpt><trkpt lat="44.52917955697934" lon="10.884705348614963"><ele>126.50000000000001</ele><time>2026-04-11T14:43:55.998Z</time></trkpt><trkpt lat="44.52919966300257" lon="10.884615463435226"><ele>127.0</ele><time>2026-04-11T14:43:56.998Z</time></trkpt><trkpt lat="44.52923801381845" lon="10.88445446205374"><ele>127.0</ele><time>2026-04-11T14:43:58.998Z</time></trkpt><trkpt lat="44.52925127871319" lon="10.88436744485233"><ele>127.0</ele><time>2026-04-11T14:43:59.998Z</time></trkpt><trkpt lat="44.52926805088034" lon="10.884279939072748"><ele>127.0</ele><time>2026-04-11T14:44:00.998Z</time></trkpt><trkpt lat="44.52927409540095" lon="10.884190658138069"><ele>127.0</ele><time>2026-04-11T14:44:02Z</time></trkpt><trkpt lat="44.52927728739097" lon="10.884101494512919"><ele>127.0</ele><time>2026-04-11T14:44:03Z</time></trkpt><trkpt lat="44.529282544408595" lon="10.88400364647996"><ele>127.0</ele><time>2026-04-11T14:44:04Z</time></trkpt><trkpt lat="44.529286682368294" lon="10.8839144913094"><ele>127.0</ele><time>2026-04-11T14:44:05Z</time></trkpt><trkpt lat="44.52928782988773" lon="10.883823609218108"><ele>127.14285714285714</ele><time>2026-04-11T14:44:06Z</time></trkpt><trkpt lat="44.52929612832104" lon="10.883732968785159"><ele>127.28571428571428</ele><time>2026-04-11T14:44:07Z</time></trkpt><trkpt lat="44.52929895536178" lon="10.883638831322955"><ele>127.42857142857142</ele><time>2026-04-11T14:44:08Z</time></trkpt><trkpt lat="44.529304798658806" lon="10.883548838324181"><ele>127.57142857142857</ele><time>2026-04-11T14:44:09Z</time></trkpt><trkpt lat="44.52930493267135" lon="10.883456905855583"><ele>127.7142857142857</ele><time>2026-04-11T14:44:10Z</time></trkpt><trkpt lat="44.529310698378616" lon="10.883364658627764"><ele>127.85714285714285</ele><time>2026-04-11T14:44:11Z</time></trkpt><trkpt lat="44.52931549918239" lon="10.883275137425048"><ele>128.0</ele><time>2026-04-11T14:44:12Z</time></trkpt><trkpt lat="44.52932609681536" lon="10.883094070942631"><ele>128.0</ele><time>2026-04-11T14:44:14Z</time></trkpt><trkpt lat="44.52932610928187" lon="10.883002903883366"><ele>127.99999999999999</ele><time>2026-04-11T14:44:15Z</time></trkpt><trkpt lat="44.52933142657739" lon="10.882905981020144"><ele>128.0</ele><time>2026-04-11T14:44:16Z</time></trkpt><trkpt lat="44.5293339137073" lon="10.882816801774185"><ele>128.0</ele><time>2026-04-11T14:44:17Z</time></trkpt><trkpt lat="44.52933734201386" lon="10.882725494366543"><ele>127.99999999999999</ele><time>2026-04-11T14:44:18Z</time></trkpt><trkpt lat="44.529341841538155" lon="10.882635130271737"><ele>128.0</ele><time>2026-04-11T14:44:19Z</time></trkpt><trkpt lat="44.52934567930977" lon="10.882532183082457"><ele>128.0</ele><time>2026-04-11T14:44:20Z</time></trkpt><trkpt lat="44.52934710371121" lon="10.882439044033264"><ele>128.0</ele><time>2026-04-11T14:44:21Z</time></trkpt><trkpt lat="44.5293494654106" lon="10.882350104366726"><ele>128.0</ele><time>2026-04-11T14:44:22Z</time></trkpt><trkpt lat="44.52935599820624" lon="10.882260048598997"><ele>128.0</ele><time>2026-04-11T14:44:23Z</time></trkpt><trkpt lat="44.529346042272216" lon="10.88208910443213"><ele>128.0</ele><time>2026-04-11T14:44:25Z</time></trkpt><trkpt lat="44.529339924195305" lon="10.881910833193706"><ele>128.0</ele><time>2026-04-11T14:44:27Z</time></trkpt><trkpt lat="44.52934305698999" lon="10.881735957329278"><ele>128.0</ele><time>2026-04-11T14:44:29Z</time></trkpt><trkpt lat="44.529327030047085" lon="10.881579070213181"><ele>128.0</ele><time>2026-04-11T14:44:31Z</time></trkpt><trkpt lat="44.52939454300882" lon="10.881433840190667"><ele>128.0</ele><time>2026-04-11T14:44:33Z</time></trkpt><trkpt lat="44.529418870536865" lon="10.881276608696206"><ele>128.0</ele><time>2026-04-11T14:44:35Z</time></trkpt><trkpt lat="44.529358736061916" lon="10.881203084105213"><ele>128.0</ele><time>2026-04-11T14:44:36Z</time></trkpt><trkpt lat="44.52928896424338" lon="10.881057878456884"><ele>127.99999999999999</ele><time>2026-04-11T14:44:38Z</time></trkpt><trkpt lat="44.5292951427981" lon="10.880963022979419"><ele>128.0</ele><time>2026-04-11T14:44:39Z</time></trkpt><trkpt lat="44.52930355838674" lon="10.880872417261175"><ele>128.0</ele><time>2026-04-11T14:44:40Z</time></trkpt><trkpt lat="44.52929268249615" lon="10.880699044315412"><ele>128.0</ele><time>2026-04-11T14:44:42Z</time></trkpt><trkpt lat="44.52927933386166" lon="10.8806123457954"><ele>127.99999999999999</ele><time>2026-04-11T14:44:43Z</time></trkpt><trkpt lat="44.5292431761155" lon="10.880448883549226"><ele>128.0</ele><time>2026-04-11T14:44:45Z</time></trkpt><trkpt lat="44.529201408604344" lon="10.880290245201575"><ele>128.20000000000002</ele><time>2026-04-11T14:44:47Z</time></trkpt><trkpt lat="44.52917316256922" lon="10.880122184281015"><ele>128.4</ele><time>2026-04-11T14:44:49Z</time></trkpt><trkpt lat="44.52915222928082" lon="10.880038250347287"><ele>128.60000000000002</ele><time>2026-04-11T14:44:50Z</time></trkpt><trkpt lat="44.52911473222833" lon="10.879875988313215"><ele>128.8</ele><time>2026-04-11T14:44:52Z</time></trkpt><trkpt lat="44.529078235384404" lon="10.879715761824475"><ele>129.0</ele><time>2026-04-11T14:44:54Z</time></trkpt><trkpt lat="44.529059934058786" lon="10.879629376115975"><ele>128.7142857142857</ele><time>2026-04-11T14:44:55Z</time></trkpt><trkpt lat="44.52904137533511" lon="10.879538157966339"><ele>128.42857142857142</ele><time>2026-04-11T14:44:56Z</time></trkpt><trkpt lat="44.5290310066968" lon="10.879446217946585"><ele>128.14285714285714</ele><time>2026-04-11T14:44:56.999Z</time></trkpt><trkpt lat="44.52900828828016" lon="10.8793576725322"><ele>127.85714285714285</ele><time>2026-04-11T14:44:57.999Z</time></trkpt><trkpt lat="44.52898261948246" lon="10.879271657718046"><ele>127.57142857142856</ele><time>2026-04-11T14:44:58.999Z</time></trkpt><trkpt lat="44.52896038136736" lon="10.879185339313333"><ele>127.28571428571429</ele><time>2026-04-11T14:44:59.999Z</time></trkpt><trkpt lat="44.528937417884734" lon="10.879100473982522"><ele>127.0</ele><time>2026-04-11T14:45:00.999Z</time></trkpt><trkpt lat="44.52891701618698" lon="10.879012787417793"><ele>127.00000000000001</ele><time>2026-04-11T14:45:01.999Z</time></trkpt><trkpt lat="44.52889507487352" lon="10.878925737328938"><ele>127.0</ele><time>2026-04-11T14:45:02.999Z</time></trkpt><trkpt lat="44.52886860002676" lon="10.878838964832285"><ele>127.0</ele><time>2026-04-11T14:45:03.999Z</time></trkpt><trkpt lat="44.52884609631742" lon="10.878755408788876"><ele>127.0</ele><time>2026-04-11T14:45:04.999Z</time></trkpt><trkpt lat="44.52880276210019" lon="10.878588506119623"><ele>127.00000000000001</ele><time>2026-04-11T14:45:06.999Z</time></trkpt><trkpt lat="44.528784295917696" lon="10.8785002796074"><ele>127.0</ele><time>2026-04-11T14:45:07.999Z</time></trkpt><trkpt lat="44.528749110734346" lon="10.878338993588311"><ele>127.00000000000001</ele><time>2026-04-11T14:45:09.999Z</time></trkpt><trkpt lat="44.52872751818105" lon="10.878254773544514"><ele>127.0</ele><time>2026-04-11T14:45:10.999Z</time></trkpt><trkpt lat="44.52867818283719" lon="10.878090443875932"><ele>127.0</ele><time>2026-04-11T14:45:12.999Z</time></trkpt><trkpt lat="44.52863692989637" lon="10.877926322532964"><ele>127.0</ele><time>2026-04-11T14:45:14.999Z</time></trkpt><trkpt lat="44.528609594114755" lon="10.877840091536752"><ele>127.00000000000001</ele><time>2026-04-11T14:45:15.999Z</time></trkpt><trkpt lat="44.528586782539136" lon="10.877752970119396"><ele>127.0</ele><time>2026-04-11T14:45:16.999Z</time></trkpt><trkpt lat="44.528549234674365" lon="10.87759179769838"><ele>127.5</ele><time>2026-04-11T14:45:18.999Z</time></trkpt><trkpt lat="44.528508442055916" lon="10.877426651389671"><ele>128.0</ele><time>2026-04-11T14:45:20.999Z</time></trkpt><trkpt lat="44.52847309138982" lon="10.877266815582859"><ele>128.5</ele><time>2026-04-11T14:45:22.999Z</time></trkpt><trkpt lat="44.52843614278801" lon="10.87711165467279"><ele>129.0</ele><time>2026-04-11T14:45:24.999Z</time></trkpt><trkpt lat="44.52839955182742" lon="10.876956972562393"><ele>129.0</ele><time>2026-04-11T14:45:26.999Z</time></trkpt><trkpt lat="44.52835913727799" lon="10.876803838544413"><ele>129.0</ele><time>2026-04-11T14:45:28.999Z</time></trkpt><trkpt lat="44.528327362804156" lon="10.876657049690323"><ele>129.0</ele><time>2026-04-11T14:45:30.999Z</time></trkpt><trkpt lat="44.52832280972504" lon="10.876512387181373"><ele>129.0</ele><time>2026-04-11T14:45:32.999Z</time></trkpt><trkpt lat="44.52834471024414" lon="10.876368592089921"><ele>129.0</ele><time>2026-04-11T14:45:34.999Z</time></trkpt><trkpt lat="44.528401194573924" lon="10.876212828690688"><ele>128.8</ele><time>2026-04-11T14:45:36.999Z</time></trkpt><trkpt lat="44.52848535364667" lon="10.876098159606743"><ele>128.60000000000002</ele><time>2026-04-11T14:45:38.999Z</time></trkpt><trkpt lat="44.52860387389347" lon="10.876049921032132"><ele>128.4</ele><time>2026-04-11T14:45:40.999Z</time></trkpt><trkpt lat="44.52866214851071" lon="10.875998356047425"><ele>128.20000000000002</ele><time>2026-04-11T14:45:41.999Z</time></trkpt><trkpt lat="44.52876973286611" lon="10.875896168636194"><ele>128.0</ele><time>2026-04-11T14:45:43.999Z</time></trkpt><trkpt lat="44.52883203876904" lon="10.875842148648516"><ele>128.0</ele><time>2026-04-11T14:45:44.999Z</time></trkpt><trkpt lat="44.52889323651541" lon="10.875790853549127"><ele>127.99999999999999</ele><time>2026-04-11T14:45:45.999Z</time></trkpt><trkpt lat="44.528954007780634" lon="10.875737954980622"><ele>128.0</ele><time>2026-04-11T14:45:46.999Z</time></trkpt><trkpt lat="44.52901431003349" lon="10.875685204577568"><ele>128.0</ele><time>2026-04-11T14:45:47.999Z</time></trkpt><trkpt lat="44.52907593545053" lon="10.875629536276236"><ele>127.99999999999999</ele><time>2026-04-11T14:45:48.999Z</time></trkpt><trkpt lat="44.529136040814414" lon="10.875579373396402"><ele>128.0</ele><time>2026-04-11T14:45:49.999Z</time></trkpt><trkpt lat="44.529197966019126" lon="10.87552897032046"><ele>128.0</ele><time>2026-04-11T14:45:50.999Z</time></trkpt><trkpt lat="44.52925920655336" lon="10.87547362668056"><ele>128.0</ele><time>2026-04-11T14:45:51.999Z</time></trkpt><trkpt lat="44.529323041027965" lon="10.875415952758228"><ele>127.99999999999999</ele><time>2026-04-11T14:45:52.999Z</time></trkpt><trkpt lat="44.52938464773036" lon="10.875360871077454"><ele>128.0</ele><time>2026-04-11T14:45:53.999Z</time></trkpt><trkpt lat="44.52944071753138" lon="10.875301608222985"><ele>128.0</ele><time>2026-04-11T14:45:54.999Z</time></trkpt><trkpt lat="44.529504149765636" lon="10.875255305177225"><ele>127.99999999999999</ele><time>2026-04-11T14:45:55.999Z</time></trkpt><trkpt lat="44.52956339603271" lon="10.875205019344582"><ele>128.0</ele><time>2026-04-11T14:45:56.999Z</time></trkpt><trkpt lat="44.52962295270521" lon="10.875150997017267"><ele>128.0</ele><time>2026-04-11T14:45:57.999Z</time></trkpt><trkpt lat="44.5296868624794" lon="10.875096172046906"><ele>127.42857142857142</ele><time>2026-04-11T14:45:58.999Z</time></trkpt><trkpt lat="44.52974656769983" lon="10.875040612094528"><ele>126.85714285714285</ele><time>2026-04-11T14:45:59.999Z</time></trkpt><trkpt lat="44.52980488782241" lon="10.8749914496275"><ele>126.28571428571428</ele><time>2026-04-11T14:46:00.999Z</time></trkpt><trkpt lat="44.52987005850367" lon="10.874937700391456"><ele>125.71428571428572</ele><time>2026-04-11T14:46:01.999Z</time></trkpt><trkpt lat="44.529934146746555" lon="10.87488476208408"><ele>125.14285714285715</ele><time>2026-04-11T14:46:02.999Z</time></trkpt><trkpt lat="44.52999822055484" lon="10.874828475384957"><ele>124.57142857142858</ele><time>2026-04-11T14:46:03.999Z</time></trkpt><trkpt lat="44.530061368062114" lon="10.874771822247828"><ele>124.0</ele><time>2026-04-11T14:46:04.999Z</time></trkpt><trkpt lat="44.53012677983288" lon="10.87471685415023"><ele>124.0</ele><time>2026-04-11T14:46:05.999Z</time></trkpt><trkpt lat="44.530188231547356" lon="10.874661081854075"><ele>124.00000000000001</ele><time>2026-04-11T14:46:06.999Z</time></trkpt><trkpt lat="44.53025011875606" lon="10.874605275740564"><ele>124.0</ele><time>2026-04-11T14:46:08Z</time></trkpt><trkpt lat="44.530314264393006" lon="10.874554926983315"><ele>124.0</ele><time>2026-04-11T14:46:09Z</time></trkpt><trkpt lat="44.53037592487667" lon="10.874501252254937"><ele>124.00000000000001</ele><time>2026-04-11T14:46:10Z</time></trkpt><trkpt lat="44.53043685372402" lon="10.874443719185605"><ele>124.0</ele><time>2026-04-11T14:46:11Z</time></trkpt><trkpt lat="44.530500784207746" lon="10.87438708274275"><ele>124.0</ele><time>2026-04-11T14:46:12Z</time></trkpt><trkpt lat="44.53056782819628" lon="10.874343672007113"><ele>124.00000000000001</ele><time>2026-04-11T14:46:13Z</time></trkpt><trkpt lat="44.530633548244154" lon="10.87430249936322"><ele>124.0</ele><time>2026-04-11T14:46:14Z</time></trkpt><trkpt lat="44.53070646694251" lon="10.874284283471932"><ele>124.0</ele><time>2026-04-11T14:46:15Z</time></trkpt><trkpt lat="44.53077760099062" lon="10.874311986591762"><ele>124.0</ele><time>2026-04-11T14:46:16Z</time></trkpt><trkpt lat="44.530838702980745" lon="10.874393001596653"><ele>124.00000000000001</ele><time>2026-04-11T14:46:17Z</time></trkpt><trkpt lat="44.530864559723156" lon="10.874492858518096"><ele>124.0</ele><time>2026-04-11T14:46:18Z</time></trkpt><trkpt lat="44.53090726582114" lon="10.874571145824378"><ele>124.0</ele><time>2026-04-11T14:46:19Z</time></trkpt><trkpt lat="44.53095617122044" lon="10.87464671014123"><ele>124.00000000000001</ele><time>2026-04-11T14:46:20Z</time></trkpt><trkpt lat="44.53100609988533" lon="10.874701215469461"><ele>124.0</ele><time>2026-04-11T14:46:21Z</time></trkpt><trkpt lat="44.53106146257139" lon="10.87475675762885"><ele>124.0</ele><time>2026-04-11T14:46:22Z</time></trkpt><trkpt lat="44.53112281167177" lon="10.874793011995978"><ele>124.00000000000001</ele><time>2026-04-11T14:46:23Z</time></trkpt><trkpt lat="44.531183038946274" lon="10.874822903045018"><ele>124.0</ele><time>2026-04-11T14:46:24Z</time></trkpt><trkpt lat="44.53124937846124" lon="10.874840698060929"><ele>124.0</ele><time>2026-04-11T14:46:25Z</time></trkpt><trkpt lat="44.53131888210642" lon="10.874848572080387"><ele>123.85714285714286</ele><time>2026-04-11T14:46:26Z</time></trkpt><trkpt lat="44.53138623583648" lon="10.874843362216762"><ele>123.71428571428572</ele><time>2026-04-11T14:46:27Z</time></trkpt><trkpt lat="44.531453213323516" lon="10.874848022896858"><ele>123.57142857142858</ele><time>2026-04-11T14:46:28Z</time></trkpt><trkpt lat="44.53151836694101" lon="10.874816369460758"><ele>123.42857142857144</ele><time>2026-04-11T14:46:29Z</time></trkpt><trkpt lat="44.53158356239041" lon="10.874780290451111"><ele>123.28571428571429</ele><time>2026-04-11T14:46:30Z</time></trkpt><trkpt lat="44.531643485074106" lon="10.874732003344109"><ele>123.14285714285717</ele><time>2026-04-11T14:46:31Z</time></trkpt><trkpt lat="44.531698490755566" lon="10.874674995680923"><ele>123.00000000000001</ele><time>2026-04-11T14:46:32Z</time></trkpt><trkpt lat="44.53174712066664" lon="10.874601051638628"><ele>123.0</ele><time>2026-04-11T14:46:33Z</time></trkpt><trkpt lat="44.531780912337624" lon="10.874514971921636"><ele>123.00000000000001</ele><time>2026-04-11T14:46:34Z</time></trkpt><trkpt lat="44.53195492185128" lon="10.87460679881421"><ele>123.00000000000001</ele><time>2026-04-11T14:46:36Z</time></trkpt><trkpt lat="44.53201524168727" lon="10.874675669456108"><ele>123.0</ele><time>2026-04-11T14:46:37Z</time></trkpt><trkpt lat="44.532073223891686" lon="10.874742880231308"><ele>123.0</ele><time>2026-04-11T14:46:38Z</time></trkpt><trkpt lat="44.53212746923218" lon="10.874818389445952"><ele>123.16666666666667</ele><time>2026-04-11T14:46:39Z</time></trkpt><trkpt lat="44.53218937223861" lon="10.874885208644113"><ele>123.33333333333334</ele><time>2026-04-11T14:46:40Z</time></trkpt><trkpt lat="44.532245975569566" lon="10.874946586005537"><ele>123.5</ele><time>2026-04-11T14:46:41Z</time></trkpt><trkpt lat="44.53230876081143" lon="10.875015884925022"><ele>123.66666666666667</ele><time>2026-04-11T14:46:42Z</time></trkpt><trkpt lat="44.532365392034365" lon="10.875086040921312"><ele>123.83333333333334</ele><time>2026-04-11T14:46:43Z</time></trkpt><trkpt lat="44.532423887020386" lon="10.875149583407552"><ele>124.0</ele><time>2026-04-11T14:46:44Z</time></trkpt><trkpt lat="44.53248389837823" lon="10.875210533069229"><ele>123.50000000000001</ele><time>2026-04-11T14:46:45Z</time></trkpt><trkpt lat="44.53254418884455" lon="10.875265346222788"><ele>123.0</ele><time>2026-04-11T14:46:46Z</time></trkpt><trkpt lat="44.53259953739706" lon="10.87533011839553"><ele>122.5</ele><time>2026-04-11T14:46:47Z</time></trkpt><trkpt lat="44.532661548700645" lon="10.875390797224451"><ele>122.0</ele><time>2026-04-11T14:46:48Z</time></trkpt><trkpt lat="44.53271412552004" lon="10.875446645356401"><ele>121.50000000000001</ele><time>2026-04-11T14:46:49Z</time></trkpt><trkpt lat="44.532807376318274" lon="10.875549958776947"><ele>121.0</ele><time>2026-04-11T14:46:51Z</time></trkpt><trkpt lat="44.53286460821035" lon="10.875601297582833"><ele>120.83333333333334</ele><time>2026-04-11T14:46:52Z</time></trkpt><trkpt lat="44.53292183363402" lon="10.87564098926368"><ele>120.66666666666667</ele><time>2026-04-11T14:46:53Z</time></trkpt><trkpt lat="44.53304031940393" lon="10.875709568465266"><ele>120.5</ele><time>2026-04-11T14:46:55Z</time></trkpt><trkpt lat="44.5331533064924" lon="10.875772544616378"><ele>120.33333333333334</ele><time>2026-04-11T14:46:57Z</time></trkpt><trkpt lat="44.533217475618834" lon="10.875792946578926"><ele>120.16666666666667</ele><time>2026-04-11T14:46:58Z</time></trkpt><trkpt lat="44.53328107983719" lon="10.875818668733038"><ele>120.0</ele><time>2026-04-11T14:46:59Z</time></trkpt><trkpt lat="44.53334891353694" lon="10.875834409590071"><ele>120.0</ele><time>2026-04-11T14:47:00Z</time></trkpt><trkpt lat="44.53347162191597" lon="10.875870906324081"><ele>120.0</ele><time>2026-04-11T14:47:02Z</time></trkpt><trkpt lat="44.5335335244604" lon="10.875889327952468"><ele>120.0</ele><time>2026-04-11T14:47:03Z</time></trkpt><trkpt lat="44.53359634677239" lon="10.875908982833566"><ele>120.0</ele><time>2026-04-11T14:47:04Z</time></trkpt><trkpt lat="44.533659378591345" lon="10.875936055489367"><ele>120.0</ele><time>2026-04-11T14:47:05Z</time></trkpt><trkpt lat="44.53378488118883" lon="10.875991479366451"><ele>119.66666666666667</ele><time>2026-04-11T14:47:07Z</time></trkpt><trkpt lat="44.533858108531895" lon="10.876029512473483"><ele>119.33333333333334</ele><time>2026-04-11T14:47:08Z</time></trkpt><trkpt lat="44.53392379591023" lon="10.876068856194273"><ele>119.0</ele><time>2026-04-11T14:47:09Z</time></trkpt><trkpt lat="44.53399191838255" lon="10.876122878867884"><ele>118.66666666666667</ele><time>2026-04-11T14:47:10Z</time></trkpt><trkpt lat="44.534051547469275" lon="10.876183034042354"><ele>118.33333333333334</ele><time>2026-04-11T14:47:11Z</time></trkpt><trkpt lat="44.53412329289266" lon="10.876264626620147"><ele>118.0</ele><time>2026-04-11T14:47:12Z</time></trkpt><trkpt lat="44.53417574435707" lon="10.876379693479217"><ele>118.0</ele><time>2026-04-11T14:47:13Z</time></trkpt><trkpt lat="44.5342567572665" lon="10.876474303388644"><ele>118.00000000000001</ele><time>2026-04-11T14:47:14Z</time></trkpt><trkpt lat="44.53433226738199" lon="10.87658637813624"><ele>118.00000000000001</ele><time>2026-04-11T14:47:15Z</time></trkpt><trkpt lat="44.53440231889304" lon="10.876693900599308"><ele>118.0</ele><time>2026-04-11T14:47:16Z</time></trkpt><trkpt lat="44.53446641992907" lon="10.876793494838854"><ele>118.0</ele><time>2026-04-11T14:47:17Z</time></trkpt><trkpt lat="44.534523440255775" lon="10.876888341777528"><ele>117.83333333333334</ele><time>2026-04-11T14:47:18Z</time></trkpt><trkpt lat="44.53458466259312" lon="10.876965859025407"><ele>117.66666666666667</ele><time>2026-04-11T14:47:19Z</time></trkpt><trkpt lat="44.53464544689648" lon="10.877036089653606"><ele>117.5</ele><time>2026-04-11T14:47:20Z</time></trkpt><trkpt lat="44.53470531242478" lon="10.877106191230565"><ele>117.33333333333334</ele><time>2026-04-11T14:47:21Z</time></trkpt><trkpt lat="44.53477094905847" lon="10.877171922999315"><ele>117.16666666666667</ele><time>2026-04-11T14:47:22Z</time></trkpt><trkpt lat="44.53483471485762" lon="10.877230423180732"><ele>117.0</ele><time>2026-04-11T14:47:22.999Z</time></trkpt><trkpt lat="44.53489873502961" lon="10.877290942168953"><ele>117.0</ele><time>2026-04-11T14:47:23.999Z</time></trkpt><trkpt lat="44.534957475481214" lon="10.87735567328746"><ele>117.0</ele><time>2026-04-11T14:47:24.999Z</time></trkpt><trkpt lat="44.53501730890486" lon="10.877407824877533"><ele>117.0</ele><time>2026-04-11T14:47:25.999Z</time></trkpt><trkpt lat="44.53507920547611" lon="10.877469689174399"><ele>117.0</ele><time>2026-04-11T14:47:26.999Z</time></trkpt><trkpt lat="44.5351381729476" lon="10.877528688273156"><ele>117.0</ele><time>2026-04-11T14:47:27.999Z</time></trkpt><trkpt lat="44.53518379816005" lon="10.877594998178447"><ele>117.0</ele><time>2026-04-11T14:47:28.999Z</time></trkpt><trkpt lat="44.53526411552019" lon="10.877673468397585"><ele>116.5</ele><time>2026-04-11T14:47:30.999Z</time></trkpt><trkpt lat="44.53560084097106" lon="10.877827567936762"><ele>116.0</ele><time>2026-04-11T14:47:32.999Z</time></trkpt><trkpt lat="44.53550110609614" lon="10.8769344621687"><ele>116.0</ele><time>2026-04-11T14:47:43.999Z</time></trkpt><trkpt lat="44.53555547466104" lon="10.876827374175374"><ele>116.0</ele><time>2026-04-11T14:47:45.999Z</time></trkpt><trkpt lat="44.53556658019883" lon="10.87668859789397"><ele>116.0</ele><time>2026-04-11T14:47:47.999Z</time></trkpt><trkpt lat="44.53557211605842" lon="10.876543638892256"><ele>116.0</ele><time>2026-04-11T14:47:49.999Z</time></trkpt><trkpt lat="44.53554942944353" lon="10.876411485603253"><ele>116.0</ele><time>2026-04-11T14:47:51.999Z</time></trkpt><trkpt lat="44.5355252216202" lon="10.876287706179243"><ele>116.0</ele><time>2026-04-11T14:47:53.999Z</time></trkpt><trkpt lat="44.53555279487988" lon="10.876143565941197"><ele>116.0</ele><time>2026-04-11T14:47:55.999Z</time></trkpt><trkpt lat="44.535600207693605" lon="10.876032922908742"><ele>116.0</ele><time>2026-04-11T14:47:57.999Z</time></trkpt><trkpt lat="44.53568218908829" lon="10.875951604925863"><ele>116.0</ele><time>2026-04-11T14:47:59.999Z</time></trkpt><trkpt lat="44.535758090262995" lon="10.875808334425292"><ele>116.0</ele><time>2026-04-11T14:48:01.999Z</time></trkpt><trkpt lat="44.5357960888368" lon="10.875653174190003"><ele>116.0</ele><time>2026-04-11T14:48:03.999Z</time></trkpt><trkpt lat="44.53586355230499" lon="10.875528966970764"><ele>116.0</ele><time>2026-04-11T14:48:05.999Z</time></trkpt><trkpt lat="44.53592820209554" lon="10.875504898910622"><ele>116.0</ele><time>2026-04-11T14:48:06.999Z</time></trkpt><trkpt lat="44.53603162299441" lon="10.875440831060676"><ele>116.0</ele><time>2026-04-11T14:48:08.999Z</time></trkpt><trkpt lat="44.5361008764019" lon="10.875298540832418"><ele>116.0</ele><time>2026-04-11T14:48:10.999Z</time></trkpt><trkpt lat="44.53613723447343" lon="10.875133219059084"><ele>115.8</ele><time>2026-04-11T14:48:12.999Z</time></trkpt><trkpt lat="44.536176564348594" lon="10.875061383372147"><ele>115.6</ele><time>2026-04-11T14:48:14Z</time></trkpt><trkpt lat="44.53621322892473" lon="10.874894376572904"><ele>115.4</ele><time>2026-04-11T14:48:16Z</time></trkpt><trkpt lat="44.53624183331768" lon="10.874810997512476"><ele>115.2</ele><time>2026-04-11T14:48:17Z</time></trkpt><trkpt lat="44.536299235666576" lon="10.874655441996305"><ele>115.0</ele><time>2026-04-11T14:48:19Z</time></trkpt><trkpt lat="44.53634973866043" lon="10.87449126572465"><ele>115.0</ele><time>2026-04-11T14:48:21Z</time></trkpt><trkpt lat="44.536402748487376" lon="10.874331341923728"><ele>115.0</ele><time>2026-04-11T14:48:23Z</time></trkpt><trkpt lat="44.536432216856795" lon="10.874159403614852"><ele>115.0</ele><time>2026-04-11T14:48:25Z</time></trkpt><trkpt lat="44.53643336810194" lon="10.873983771392087"><ele>115.0</ele><time>2026-04-11T14:48:27Z</time></trkpt><trkpt lat="44.536495206511255" lon="10.873823330885811"><ele>115.16666666666667</ele><time>2026-04-11T14:48:29Z</time></trkpt><trkpt lat="44.536530992277534" lon="10.873670582275782"><ele>115.33333333333334</ele><time>2026-04-11T14:48:31Z</time></trkpt><trkpt lat="44.53664687377293" lon="10.8736848931989"><ele>115.5</ele><time>2026-04-11T14:48:32Z</time></trkpt><trkpt lat="44.53671545301231" lon="10.873686085851931"><ele>115.66666666666666</ele><time>2026-04-11T14:48:33Z</time></trkpt><trkpt lat="44.53678299766486" lon="10.873671380660674"><ele>115.83333333333333</ele><time>2026-04-11T14:48:34Z</time></trkpt><trkpt lat="44.5368415753455" lon="10.873623244780502"><ele>116.0</ele><time>2026-04-11T14:48:35Z</time></trkpt><trkpt lat="44.53690616078847" lon="10.873567911149026"><ele>115.99999999999999</ele><time>2026-04-11T14:48:36Z</time></trkpt><trkpt lat="44.537039129021025" lon="10.87352568343958"><ele>116.0</ele><time>2026-04-11T14:48:38Z</time></trkpt><trkpt lat="44.5371085601168" lon="10.873567503367935"><ele>116.0</ele><time>2026-04-11T14:48:39Z</time></trkpt><trkpt lat="44.53716941193084" lon="10.873633579514273"><ele>116.0</ele><time>2026-04-11T14:48:40Z</time></trkpt><trkpt lat="44.53723389237346" lon="10.873665623135324"><ele>115.99999999999999</ele><time>2026-04-11T14:48:41Z</time></trkpt><trkpt lat="44.537300055522756" lon="10.873699135845161"><ele>116.0</ele><time>2026-04-11T14:48:42Z</time></trkpt><trkpt lat="44.53736210908676" lon="10.873742804057844"><ele>115.57142857142858</ele><time>2026-04-11T14:48:43Z</time></trkpt><trkpt lat="44.53742752019112" lon="10.8737820804272"><ele>115.14285714285714</ele><time>2026-04-11T14:48:44Z</time></trkpt><trkpt lat="44.53749147866455" lon="10.873817455581662"><ele>114.71428571428572</ele><time>2026-04-11T14:48:45Z</time></trkpt><trkpt lat="44.53755838415175" lon="10.873848183014161"><ele>114.28571428571429</ele><time>2026-04-11T14:48:46Z</time></trkpt><trkpt lat="44.537623232258824" lon="10.873887889474243"><ele>113.85714285714286</ele><time>2026-04-11T14:48:47Z</time></trkpt><trkpt lat="44.53768886702401" lon="10.873921414683734"><ele>113.42857142857143</ele><time>2026-04-11T14:48:48Z</time></trkpt><trkpt lat="44.53775687373563" lon="10.873945710974215"><ele>113.0</ele><time>2026-04-11T14:48:49Z</time></trkpt><trkpt lat="44.5378265663258" lon="10.873977549965158"><ele>113.0</ele><time>2026-04-11T14:48:50Z</time></trkpt><trkpt lat="44.53788440778724" lon="10.87401326292952"><ele>113.0</ele><time>2026-04-11T14:48:51Z</time></trkpt><trkpt lat="44.5379468821478" lon="10.874059007900309"><ele>113.0</ele><time>2026-04-11T14:48:52Z</time></trkpt><trkpt lat="44.53800531695033" lon="10.874113576304799"><ele>113.0</ele><time>2026-04-11T14:48:53Z</time></trkpt><trkpt lat="44.53806572374311" lon="10.8741557785832"><ele>113.0</ele><time>2026-04-11T14:48:54Z</time></trkpt><trkpt lat="44.538139051296994" lon="10.874176873492699"><ele>113.0</ele><time>2026-04-11T14:48:55Z</time></trkpt><trkpt lat="44.538208344071975" lon="10.874205059988219"><ele>113.0</ele><time>2026-04-11T14:48:56Z</time></trkpt><trkpt lat="44.53827987896278" lon="10.874226768262107"><ele>112.85714285714286</ele><time>2026-04-11T14:48:57Z</time></trkpt><trkpt lat="44.538345362275265" lon="10.874254369623344"><ele>112.71428571428571</ele><time>2026-04-11T14:48:58Z</time></trkpt><trkpt lat="44.53841059948311" lon="10.87429028109337"><ele>112.57142857142857</ele><time>2026-04-11T14:48:59Z</time></trkpt><trkpt lat="44.53847927947513" lon="10.87431972988688"><ele>112.42857142857143</ele><time>2026-04-11T14:49:00Z</time></trkpt><trkpt lat="44.53854471951019" lon="10.874350212436667"><ele>112.28571428571428</ele><time>2026-04-11T14:49:01Z</time></trkpt><trkpt lat="44.53861345346945" lon="10.874377189232174"><ele>112.14285714285714</ele><time>2026-04-11T14:49:02Z</time></trkpt><trkpt lat="44.538683087269625" lon="10.874403815864996"><ele>112.0</ele><time>2026-04-11T14:49:03Z</time></trkpt><trkpt lat="44.53875336031099" lon="10.87442961464377"><ele>112.28571428571428</ele><time>2026-04-11T14:49:04Z</time></trkpt><trkpt lat="44.53882332510308" lon="10.874452270393371"><ele>112.57142857142857</ele><time>2026-04-11T14:49:05Z</time></trkpt><trkpt lat="44.5388937498682" lon="10.874477147277009"><ele>112.85714285714286</ele><time>2026-04-11T14:49:06Z</time></trkpt><trkpt lat="44.53896034407926" lon="10.874507649450614"><ele>113.14285714285714</ele><time>2026-04-11T14:49:07Z</time></trkpt><trkpt lat="44.539029818760426" lon="10.874532998785787"><ele>113.42857142857142</ele><time>2026-04-11T14:49:08Z</time></trkpt><trkpt lat="44.53909931793942" lon="10.874555109896853"><ele>113.71428571428571</ele><time>2026-04-11T14:49:09Z</time></trkpt><trkpt lat="44.5391656370199" lon="10.874579324714936"><ele>114.0</ele><time>2026-04-11T14:49:10Z</time></trkpt><trkpt lat="44.53923228374213" lon="10.87460917929177"><ele>114.0</ele><time>2026-04-11T14:49:11Z</time></trkpt><trkpt lat="44.53930064741802" lon="10.874639341349672"><ele>113.99999999999999</ele><time>2026-04-11T14:49:12Z</time></trkpt><trkpt lat="44.53936828999413" lon="10.874668660599335"><ele>114.0</ele><time>2026-04-11T14:49:13Z</time></trkpt><trkpt lat="44.53943581524001" lon="10.874695688140827"><ele>114.0</ele><time>2026-04-11T14:49:14Z</time></trkpt><trkpt lat="44.53950578302465" lon="10.87472466339999"><ele>113.99999999999999</ele><time>2026-04-11T14:49:15Z</time></trkpt><trkpt lat="44.53957503839591" lon="10.874750024635837"><ele>114.0</ele><time>2026-04-11T14:49:16Z</time></trkpt><trkpt lat="44.53963922852522" lon="10.874776522969253"><ele>114.0</ele><time>2026-04-11T14:49:17Z</time></trkpt><trkpt lat="44.53970978256274" lon="10.874806791650567"><ele>113.71428571428571</ele><time>2026-04-11T14:49:18Z</time></trkpt><trkpt lat="44.539779898732014" lon="10.874834366728551"><ele>113.42857142857142</ele><time>2026-04-11T14:49:19Z</time></trkpt><trkpt lat="44.53985272906933" lon="10.874855702761682"><ele>113.14285714285714</ele><time>2026-04-11T14:49:20Z</time></trkpt><trkpt lat="44.53992192239099" lon="10.874880557522761"><ele>112.85714285714286</ele><time>2026-04-11T14:49:21Z</time></trkpt><trkpt lat="44.53999075141495" lon="10.874911449557455"><ele>112.57142857142857</ele><time>2026-04-11T14:49:22Z</time></trkpt><trkpt lat="44.54006227437483" lon="10.874942490051527"><ele>112.28571428571428</ele><time>2026-04-11T14:49:23Z</time></trkpt><trkpt lat="44.540134349542534" lon="10.874974507633423"><ele>112.0</ele><time>2026-04-11T14:49:24Z</time></trkpt><trkpt lat="44.54020517895526" lon="10.875008080118084"><ele>112.0</ele><time>2026-04-11T14:49:25Z</time></trkpt><trkpt lat="44.54027886454286" lon="10.875032142630685"><ele>112.0</ele><time>2026-04-11T14:49:26Z</time></trkpt><trkpt lat="44.54035250982812" lon="10.8750531424626"><ele>112.0</ele><time>2026-04-11T14:49:27Z</time></trkpt><trkpt lat="44.54042168213633" lon="10.875074012246197"><ele>112.0</ele><time>2026-04-11T14:49:27.999Z</time></trkpt><trkpt lat="44.54049054996674" lon="10.875102614916958"><ele>112.0</ele><time>2026-04-11T14:49:28.999Z</time></trkpt><trkpt lat="44.54056281766726" lon="10.875132479524538"><ele>112.0</ele><time>2026-04-11T14:49:29.999Z</time></trkpt><trkpt lat="44.540628624680146" lon="10.875167839432915"><ele>112.0</ele><time>2026-04-11T14:49:30.999Z</time></trkpt><trkpt lat="44.540694375008925" lon="10.875204438552265"><ele>111.39999999999999</ele><time>2026-04-11T14:49:31.999Z</time></trkpt><trkpt lat="44.54076201437767" lon="10.875214619519218"><ele>110.79999999999998</ele><time>2026-04-11T14:49:32.999Z</time></trkpt><trkpt lat="44.54087093377548" lon="10.875059382915953"><ele>110.2</ele><time>2026-04-11T14:49:34.999Z</time></trkpt><trkpt lat="44.540888618028646" lon="10.874944730163376"><ele>109.6</ele><time>2026-04-11T14:49:35.999Z</time></trkpt><trkpt lat="44.54090118131939" lon="10.874842636300901"><ele>109.0</ele><time>2026-04-11T14:49:36.999Z</time></trkpt><trkpt lat="44.54092467773108" lon="10.874748081592333"><ele>109.0</ele><time>2026-04-11T14:49:37.999Z</time></trkpt><trkpt lat="44.540951800781734" lon="10.874654483438261"><ele>109.0</ele><time>2026-04-11T14:49:38.999Z</time></trkpt><trkpt lat="44.54097877173664" lon="10.874557912534575"><ele>109.0</ele><time>2026-04-11T14:49:39.999Z</time></trkpt><trkpt lat="44.541010314193855" lon="10.874463668713238"><ele>109.0</ele><time>2026-04-11T14:49:40.999Z</time></trkpt><trkpt lat="44.54103949305729" lon="10.874367867503642"><ele>109.0</ele><time>2026-04-11T14:49:41.999Z</time></trkpt><trkpt lat="44.54106144565403" lon="10.87427008133362"><ele>109.0</ele><time>2026-04-11T14:49:42.999Z</time></trkpt><trkpt lat="44.541086826868856" lon="10.874174540104837"><ele>109.0</ele><time>2026-04-11T14:49:43.999Z</time></trkpt><trkpt lat="44.541113009060176" lon="10.874077468837534"><ele>109.0</ele><time>2026-04-11T14:49:44.999Z</time></trkpt><trkpt lat="44.541141395531746" lon="10.873981304396814"><ele>109.0</ele><time>2026-04-11T14:49:45.999Z</time></trkpt><trkpt lat="44.54116390619792" lon="10.873883016703"><ele>109.0</ele><time>2026-04-11T14:49:46.999Z</time></trkpt><trkpt lat="44.54118745557627" lon="10.87379544665845"><ele>109.0</ele><time>2026-04-11T14:49:47.999Z</time></trkpt><trkpt lat="44.54120887784377" lon="10.873695793897054"><ele>109.0</ele><time>2026-04-11T14:49:48.999Z</time></trkpt><trkpt lat="44.54123544944719" lon="10.873600687126325"><ele>109.0</ele><time>2026-04-11T14:49:49.999Z</time></trkpt><trkpt lat="44.54126337722333" lon="10.873505294492693"><ele>109.0</ele><time>2026-04-11T14:49:50.999Z</time></trkpt><trkpt lat="44.54129126388763" lon="10.873412592365419"><ele>108.85714285714286</ele><time>2026-04-11T14:49:51.999Z</time></trkpt><trkpt lat="44.541315348002094" lon="10.873322979919498"><ele>108.71428571428572</ele><time>2026-04-11T14:49:52.999Z</time></trkpt><trkpt lat="44.54134169886735" lon="10.873229841856814"><ele>108.57142857142857</ele><time>2026-04-11T14:49:53.999Z</time></trkpt><trkpt lat="44.541361669323976" lon="10.873134569761735"><ele>108.42857142857143</ele><time>2026-04-11T14:49:54.999Z</time></trkpt><trkpt lat="44.54138528252433" lon="10.873041492091868"><ele>108.28571428571428</ele><time>2026-04-11T14:49:55.999Z</time></trkpt><trkpt lat="44.54140439958611" lon="10.872940909208086"><ele>108.14285714285714</ele><time>2026-04-11T14:49:56.999Z</time></trkpt><trkpt lat="44.541428153624764" lon="10.872852213431061"><ele>108.0</ele><time>2026-04-11T14:49:57.999Z</time></trkpt><trkpt lat="44.54145623342574" lon="10.872759965190196"><ele>108.0</ele><time>2026-04-11T14:49:58.999Z</time></trkpt><trkpt lat="44.54148770262184" lon="10.87268087785694"><ele>108.0</ele><time>2026-04-11T14:49:59.999Z</time></trkpt><trkpt lat="44.54151135890633" lon="10.872589696697409"><ele>108.0</ele><time>2026-04-11T14:50:00.999Z</time></trkpt><trkpt lat="44.54153510304105" lon="10.872499975489752"><ele>108.0</ele><time>2026-04-11T14:50:01.999Z</time></trkpt><trkpt lat="44.54155850292741" lon="10.872409564847437"><ele>108.0</ele><time>2026-04-11T14:50:02.999Z</time></trkpt><trkpt lat="44.541575772254554" lon="10.872318347573701"><ele>108.0</ele><time>2026-04-11T14:50:03.999Z</time></trkpt><trkpt lat="44.54159542238877" lon="10.872232935613718"><ele>108.0</ele><time>2026-04-11T14:50:04.999Z</time></trkpt><trkpt lat="44.54161856316265" lon="10.872150056417155"><ele>108.33333333333333</ele><time>2026-04-11T14:50:05.999Z</time></trkpt><trkpt lat="44.541647516800886" lon="10.872068695229636"><ele>108.66666666666666</ele><time>2026-04-11T14:50:06.999Z</time></trkpt><trkpt lat="44.54167335469691" lon="10.87198398857956"><ele>109.0</ele><time>2026-04-11T14:50:07.999Z</time></trkpt><trkpt lat="44.541711394417185" lon="10.871816873326155"><ele>109.33333333333333</ele><time>2026-04-11T14:50:09.999Z</time></trkpt><trkpt lat="44.5417576021768" lon="10.871657539946526"><ele>109.66666666666666</ele><time>2026-04-11T14:50:11.999Z</time></trkpt><trkpt lat="44.5417818934668" lon="10.871575107477375"><ele>110.0</ele><time>2026-04-11T14:50:12.999Z</time></trkpt><trkpt lat="44.54182434457993" lon="10.871418407811747"><ele>110.4</ele><time>2026-04-11T14:50:14.999Z</time></trkpt><trkpt lat="44.541864533330774" lon="10.871264687757543"><ele>110.8</ele><time>2026-04-11T14:50:16.999Z</time></trkpt><trkpt lat="44.54197274611995" lon="10.871209149604665"><ele>111.19999999999999</ele><time>2026-04-11T14:50:18.999Z</time></trkpt><trkpt lat="44.54210069408163" lon="10.871243311963967"><ele>111.6</ele><time>2026-04-11T14:50:21Z</time></trkpt><trkpt lat="44.542167646387874" lon="10.871249342483463"><ele>112.0</ele><time>2026-04-11T14:50:22Z</time></trkpt><trkpt lat="44.54223835137258" lon="10.871275940600198"><ele>112.00000000000001</ele><time>2026-04-11T14:50:23Z</time></trkpt><trkpt lat="44.54231311553926" lon="10.871296771196318"><ele>112.0</ele><time>2026-04-11T14:50:24Z</time></trkpt><trkpt lat="44.54238926399332" lon="10.871296022871197"><ele>112.0</ele><time>2026-04-11T14:50:25Z</time></trkpt><trkpt lat="44.5424617772613" lon="10.87127802775357"><ele>112.0</ele><time>2026-04-11T14:50:26Z</time></trkpt><trkpt lat="44.542540630800595" lon="10.871283205283637"><ele>112.00000000000001</ele><time>2026-04-11T14:50:27Z</time></trkpt><trkpt lat="44.542609864343795" lon="10.871334288152758"><ele>112.0</ele><time>2026-04-11T14:50:28Z</time></trkpt><trkpt lat="44.542678805305314" lon="10.871374667792217"><ele>112.00000000000001</ele><time>2026-04-11T14:50:29Z</time></trkpt><trkpt lat="44.54275341784198" lon="10.871358399739368"><ele>112.0</ele><time>2026-04-11T14:50:30Z</time></trkpt><trkpt lat="44.54280229320567" lon="10.871257691275073"><ele>112.0</ele><time>2026-04-11T14:50:31Z</time></trkpt><trkpt lat="44.54286704254325" lon="10.87121701823396"><ele>112.0</ele><time>2026-04-11T14:50:32Z</time></trkpt><trkpt lat="44.5429629731661" lon="10.871339889805558"><ele>112.00000000000001</ele><time>2026-04-11T14:50:33Z</time></trkpt><trkpt lat="44.543025687619355" lon="10.871412417498734"><ele>112.0</ele><time>2026-04-11T14:50:34Z</time></trkpt><trkpt lat="44.543091416518116" lon="10.87147597823627"><ele>111.33333333333334</ele><time>2026-04-11T14:50:35Z</time></trkpt><trkpt lat="44.54316609268427" lon="10.871521056335972"><ele>110.66666666666667</ele><time>2026-04-11T14:50:36Z</time></trkpt><trkpt lat="44.54324662762232" lon="10.871551849389714"><ele>110.0</ele><time>2026-04-11T14:50:37Z</time></trkpt><trkpt lat="44.543325758600425" lon="10.871579080679668"><ele>109.33333333333334</ele><time>2026-04-11T14:50:38Z</time></trkpt><trkpt lat="44.54340244464114" lon="10.871596190144528"><ele>108.66666666666667</ele><time>2026-04-11T14:50:39Z</time></trkpt><trkpt lat="44.54348101746783" lon="10.871615954639669"><ele>108.0</ele><time>2026-04-11T14:50:40Z</time></trkpt><trkpt lat="44.54355836873966" lon="10.871637355456375"><ele>108.0</ele><time>2026-04-11T14:50:41Z</time></trkpt><trkpt lat="44.54363414732898" lon="10.871655021502184"><ele>108.0</ele><time>2026-04-11T14:50:42Z</time></trkpt><trkpt lat="44.54370913260832" lon="10.871669191071161"><ele>108.0</ele><time>2026-04-11T14:50:43Z</time></trkpt><trkpt lat="44.54378399878752" lon="10.871673149510276"><ele>108.0</ele><time>2026-04-11T14:50:44Z</time></trkpt><trkpt lat="44.54386102164305" lon="10.8716571470102"><ele>108.0</ele><time>2026-04-11T14:50:45Z</time></trkpt><trkpt lat="44.54393220645126" lon="10.871636370515443"><ele>108.0</ele><time>2026-04-11T14:50:46Z</time></trkpt><trkpt lat="44.54400566692266" lon="10.871599564356291"><ele>107.85714285714286</ele><time>2026-04-11T14:50:47Z</time></trkpt><trkpt lat="44.544073170310185" lon="10.871562679180954"><ele>107.71428571428571</ele><time>2026-04-11T14:50:48Z</time></trkpt><trkpt lat="44.54413898810663" lon="10.871516999856793"><ele>107.57142857142858</ele><time>2026-04-11T14:50:49Z</time></trkpt><trkpt lat="44.544198845312486" lon="10.871463320533671"><ele>107.42857142857143</ele><time>2026-04-11T14:50:50Z</time></trkpt><trkpt lat="44.54425787609107" lon="10.871400262935369"><ele>107.28571428571429</ele><time>2026-04-11T14:50:51Z</time></trkpt><trkpt lat="44.544321607872355" lon="10.871337423797144"><ele>107.14285714285715</ele><time>2026-04-11T14:50:52Z</time></trkpt><trkpt lat="44.54437814235227" lon="10.871283233450288"><ele>107.0</ele><time>2026-04-11T14:50:53Z</time></trkpt><trkpt lat="44.54443557778032" lon="10.87121690879883"><ele>107.00000000000001</ele><time>2026-04-11T14:50:54Z</time></trkpt><trkpt lat="44.54448967945145" lon="10.871148182694755"><ele>107.0</ele><time>2026-04-11T14:50:55Z</time></trkpt><trkpt lat="44.54454477971057" lon="10.871081487207425"><ele>107.0</ele><time>2026-04-11T14:50:56Z</time></trkpt><trkpt lat="44.544601370174945" lon="10.871010657473883"><ele>107.0</ele><time>2026-04-11T14:50:57Z</time></trkpt><trkpt lat="44.54465839554985" lon="10.8709455488908"><ele>107.0</ele><time>2026-04-11T14:50:58Z</time></trkpt><trkpt lat="44.54471288668984" lon="10.870873333224376"><ele>107.00000000000001</ele><time>2026-04-11T14:50:59Z</time></trkpt><trkpt lat="44.54477415721618" lon="10.870815554093145"><ele>107.0</ele><time>2026-04-11T14:51:00Z</time></trkpt><trkpt lat="44.54484456497909" lon="10.870774812599956"><ele>107.16666666666666</ele><time>2026-04-11T14:51:01Z</time></trkpt><trkpt lat="44.54491584710078" lon="10.870749009942084"><ele>107.33333333333333</ele><time>2026-04-11T14:51:02Z</time></trkpt><trkpt lat="44.544988671260484" lon="10.870722038667754"><ele>107.5</ele><time>2026-04-11T14:51:03Z</time></trkpt><trkpt lat="44.545059993870034" lon="10.870691701096654"><ele>107.66666666666666</ele><time>2026-04-11T14:51:04Z</time></trkpt><trkpt lat="44.54513306887574" lon="10.870662665800081"><ele>107.83333333333333</ele><time>2026-04-11T14:51:05Z</time></trkpt><trkpt lat="44.54520672699184" lon="10.87063126105008"><ele>108.0</ele><time>2026-04-11T14:51:06Z</time></trkpt><trkpt lat="44.545277449552856" lon="10.870603450911503"><ele>108.0</ele><time>2026-04-11T14:51:07Z</time></trkpt><trkpt lat="44.54534999043883" lon="10.870575548519017"><ele>108.0</ele><time>2026-04-11T14:51:08Z</time></trkpt><trkpt lat="44.54542081784332" lon="10.87054659742083"><ele>108.0</ele><time>2026-04-11T14:51:09Z</time></trkpt><trkpt lat="44.545489897848185" lon="10.87051392490973"><ele>108.0</ele><time>2026-04-11T14:51:10Z</time></trkpt><trkpt lat="44.54555930938045" lon="10.870472929918803"><ele>108.0</ele><time>2026-04-11T14:51:11Z</time></trkpt><trkpt lat="44.545631667353724" lon="10.870434961327906"><ele>108.0</ele><time>2026-04-11T14:51:12Z</time></trkpt><trkpt lat="44.54570563970582" lon="10.870401779742135"><ele>107.85714285714286</ele><time>2026-04-11T14:51:13Z</time></trkpt><trkpt lat="44.54577917852936" lon="10.870367192636518"><ele>107.71428571428571</ele><time>2026-04-11T14:51:14Z</time></trkpt><trkpt lat="44.54585277385522" lon="10.870341821177513"><ele>107.57142857142858</ele><time>2026-04-11T14:51:15Z</time></trkpt><trkpt lat="44.545926059623916" lon="10.870322994701098"><ele>107.42857142857143</ele><time>2026-04-11T14:51:16Z</time></trkpt><trkpt lat="44.54599806621803" lon="10.870299291510038"><ele>107.28571428571429</ele><time>2026-04-11T14:51:17Z</time></trkpt><trkpt lat="44.54606212537344" lon="10.870304530258691"><ele>107.14285714285715</ele><time>2026-04-11T14:51:18Z</time></trkpt><trkpt lat="44.54612611841527" lon="10.870315027893323"><ele>107.0</ele><time>2026-04-11T14:51:21Z</time></trkpt><trkpt lat="44.546190154778536" lon="10.8703054728495"><ele>106.8</ele><time>2026-04-11T14:51:33.999Z</time></trkpt><trkpt lat="44.546257400483256" lon="10.870184577566649"><ele>106.6</ele><time>2026-04-11T14:51:37.999Z</time></trkpt><trkpt lat="44.546265980532326" lon="10.870073699506126"><ele>106.39999999999999</ele><time>2026-04-11T14:51:39.999Z</time></trkpt><trkpt lat="44.54628196067705" lon="10.869964676443274"><ele>106.19999999999999</ele><time>2026-04-11T14:51:41.999Z</time></trkpt><trkpt lat="44.54629467172883" lon="10.869838583842004"><ele>106.0</ele><time>2026-04-11T14:51:43.999Z</time></trkpt><trkpt lat="44.54631244256749" lon="10.869709407369465"><ele>106.0</ele><time>2026-04-11T14:51:45.999Z</time></trkpt><trkpt lat="44.54634717218" lon="10.869565816622877"><ele>106.0</ele><time>2026-04-11T14:51:47.999Z</time></trkpt><trkpt lat="44.54637264210476" lon="10.869410864383022"><ele>106.0</ele><time>2026-04-11T14:51:49.999Z</time></trkpt><trkpt lat="44.54640402396595" lon="10.869245784042494"><ele>106.0</ele><time>2026-04-11T14:51:51.999Z</time></trkpt><trkpt lat="44.54645253438203" lon="10.869078851751938"><ele>106.0</ele><time>2026-04-11T14:51:53.999Z</time></trkpt><trkpt lat="44.54648551638872" lon="10.868995596525162"><ele>106.0</ele><time>2026-04-11T14:51:54.999Z</time></trkpt><trkpt lat="44.5465153187231" lon="10.868912735459318"><ele>106.0</ele><time>2026-04-11T14:51:55.999Z</time></trkpt><trkpt lat="44.54654502499473" lon="10.868825446612155"><ele>106.0</ele><time>2026-04-11T14:51:56.999Z</time></trkpt><trkpt lat="44.54657823405168" lon="10.86873848874603"><ele>106.0</ele><time>2026-04-11T14:51:57.999Z</time></trkpt><trkpt lat="44.546610341016944" lon="10.868650857649857"><ele>106.0</ele><time>2026-04-11T14:51:58.999Z</time></trkpt><trkpt lat="44.5466446601912" lon="10.868558053986748"><ele>106.0</ele><time>2026-04-11T14:51:59.999Z</time></trkpt><trkpt lat="44.54667569214649" lon="10.868471056868971"><ele>105.42857142857143</ele><time>2026-04-11T14:52:00.999Z</time></trkpt><trkpt lat="44.54670611600292" lon="10.868372330422396"><ele>104.85714285714285</ele><time>2026-04-11T14:52:01.999Z</time></trkpt><trkpt lat="44.54674015335032" lon="10.86827663733431"><ele>104.28571428571428</ele><time>2026-04-11T14:52:02.999Z</time></trkpt><trkpt lat="44.54676761537318" lon="10.868178066547491"><ele>103.71428571428572</ele><time>2026-04-11T14:52:03.999Z</time></trkpt><trkpt lat="44.54679732384795" lon="10.868076950232444"><ele>103.14285714285714</ele><time>2026-04-11T14:52:04.999Z</time></trkpt><trkpt lat="44.5468235127748" lon="10.867980479865183"><ele>102.57142857142857</ele><time>2026-04-11T14:52:05.999Z</time></trkpt><trkpt lat="44.546850531419665" lon="10.867890963948122"><ele>102.0</ele><time>2026-04-11T14:52:06.999Z</time></trkpt><trkpt lat="44.54686971220432" lon="10.867782214018337"><ele>102.0</ele><time>2026-04-11T14:52:07.999Z</time></trkpt><trkpt lat="44.54689250553374" lon="10.867675605472915"><ele>102.0</ele><time>2026-04-11T14:52:08.999Z</time></trkpt><trkpt lat="44.546908768665745" lon="10.867575575764539"><ele>102.0</ele><time>2026-04-11T14:52:09.999Z</time></trkpt><trkpt lat="44.54692878597665" lon="10.86747839025246"><ele>102.0</ele><time>2026-04-11T14:52:10.999Z</time></trkpt><trkpt lat="44.54694727585135" lon="10.867379187864126"><ele>102.0</ele><time>2026-04-11T14:52:11.999Z</time></trkpt><trkpt lat="44.54696419875493" lon="10.86727936170068"><ele>102.0</ele><time>2026-04-11T14:52:12.999Z</time></trkpt><trkpt lat="44.54698123248645" lon="10.86718108537641"><ele>102.0</ele><time>2026-04-11T14:52:13.999Z</time></trkpt><trkpt lat="44.54699534216224" lon="10.867075124285764"><ele>101.83333333333333</ele><time>2026-04-11T14:52:14.999Z</time></trkpt><trkpt lat="44.54701375125538" lon="10.866978212599467"><ele>101.66666666666666</ele><time>2026-04-11T14:52:15.999Z</time></trkpt><trkpt lat="44.547027457445694" lon="10.866871757633112"><ele>101.5</ele><time>2026-04-11T14:52:16.999Z</time></trkpt><trkpt lat="44.54704521241541" lon="10.866767586391168"><ele>101.33333333333333</ele><time>2026-04-11T14:52:17.999Z</time></trkpt><trkpt lat="44.54706043365264" lon="10.866659094615724"><ele>101.16666666666666</ele><time>2026-04-11T14:52:18.999Z</time></trkpt><trkpt lat="44.54707475222522" lon="10.866554993486016"><ele>101.0</ele><time>2026-04-11T14:52:19.999Z</time></trkpt><trkpt lat="44.54709452882435" lon="10.86644811135723"><ele>100.99999999999999</ele><time>2026-04-11T14:52:20.999Z</time></trkpt><trkpt lat="44.54711499209089" lon="10.866341440466913"><ele>101.0</ele><time>2026-04-11T14:52:21.999Z</time></trkpt><trkpt lat="44.54713115149389" lon="10.866237668266374"><ele>101.0</ele><time>2026-04-11T14:52:22.999Z</time></trkpt><trkpt lat="44.54715188407591" lon="10.866137796950113"><ele>101.0</ele><time>2026-04-11T14:52:23.999Z</time></trkpt><trkpt lat="44.54717189069963" lon="10.866033581794591"><ele>100.99999999999999</ele><time>2026-04-11T14:52:24.999Z</time></trkpt><trkpt lat="44.54718662102437" lon="10.865932175768164"><ele>101.0</ele><time>2026-04-11T14:52:26Z</time></trkpt><trkpt lat="44.54719894551605" lon="10.865824339080026"><ele>101.0</ele><time>2026-04-11T14:52:27Z</time></trkpt><trkpt lat="44.54722262144825" lon="10.865724396726621"><ele>101.0</ele><time>2026-04-11T14:52:28Z</time></trkpt><trkpt lat="44.547245623535744" lon="10.86562362332501"><ele>101.0</ele><time>2026-04-11T14:52:29Z</time></trkpt><trkpt lat="44.54726303676098" lon="10.865528349816437"><ele>101.0</ele><time>2026-04-11T14:52:30Z</time></trkpt><trkpt lat="44.547278700694044" lon="10.865428962360363"><ele>101.0</ele><time>2026-04-11T14:52:31Z</time></trkpt><trkpt lat="44.547294488353664" lon="10.86533105459715"><ele>101.0</ele><time>2026-04-11T14:52:32Z</time></trkpt><trkpt lat="44.54731257885844" lon="10.86523301179407"><ele>101.0</ele><time>2026-04-11T14:52:33Z</time></trkpt><trkpt lat="44.54732925693889" lon="10.865136032547964"><ele>101.14285714285714</ele><time>2026-04-11T14:52:34Z</time></trkpt><trkpt lat="44.547348379067685" lon="10.865046721987222"><ele>101.28571428571428</ele><time>2026-04-11T14:52:35Z</time></trkpt><trkpt lat="44.547367642067115" lon="10.864953485252117"><ele>101.42857142857143</ele><time>2026-04-11T14:52:36Z</time></trkpt><trkpt lat="44.54738155042413" lon="10.864852735585561"><ele>101.57142857142857</ele><time>2026-04-11T14:52:37Z</time></trkpt><trkpt lat="44.54739988837663" lon="10.86475612264667"><ele>101.71428571428572</ele><time>2026-04-11T14:52:38Z</time></trkpt><trkpt lat="44.54741823537619" lon="10.864661587700725"><ele>101.85714285714286</ele><time>2026-04-11T14:52:39Z</time></trkpt><trkpt lat="44.54743390240428" lon="10.864568574965759"><ele>102.0</ele><time>2026-04-11T14:52:40Z</time></trkpt><trkpt lat="44.54745035093579" lon="10.864474609180489"><ele>102.0</ele><time>2026-04-11T14:52:41Z</time></trkpt><trkpt lat="44.54746719753862" lon="10.864383190509873"><ele>102.0</ele><time>2026-04-11T14:52:42Z</time></trkpt><trkpt lat="44.547484814149556" lon="10.864291615682692"><ele>102.0</ele><time>2026-04-11T14:52:43Z</time></trkpt><trkpt lat="44.54750178039893" lon="10.864194552633796"><ele>102.0</ele><time>2026-04-11T14:52:44Z</time></trkpt><trkpt lat="44.5475175965953" lon="10.86409910757789"><ele>102.0</ele><time>2026-04-11T14:52:45Z</time></trkpt><trkpt lat="44.5475360940982" lon="10.86400712313018"><ele>102.0</ele><time>2026-04-11T14:52:46Z</time></trkpt><trkpt lat="44.54755457090954" lon="10.86391629731049"><ele>102.0</ele><time>2026-04-11T14:52:47Z</time></trkpt><trkpt lat="44.54757348453665" lon="10.863823758591025"><ele>102.0</ele><time>2026-04-11T14:52:48Z</time></trkpt><trkpt lat="44.547609682167725" lon="10.863639708677205"><ele>102.0</ele><time>2026-04-11T14:52:50Z</time></trkpt><trkpt lat="44.54762387306801" lon="10.863541730874829"><ele>102.0</ele><time>2026-04-11T14:52:51Z</time></trkpt><trkpt lat="44.54764382406559" lon="10.863450703825409"><ele>102.0</ele><time>2026-04-11T14:52:52Z</time></trkpt><trkpt lat="44.547660866977814" lon="10.863352284161246"><ele>102.0</ele><time>2026-04-11T14:52:53Z</time></trkpt><trkpt lat="44.547668971666404" lon="10.863260286375937"><ele>102.0</ele><time>2026-04-11T14:52:54Z</time></trkpt><trkpt lat="44.547687192788786" lon="10.863162012397302"><ele>102.0</ele><time>2026-04-11T14:52:55Z</time></trkpt><trkpt lat="44.54770321146743" lon="10.863069597752014"><ele>102.0</ele><time>2026-04-11T14:52:56Z</time></trkpt><trkpt lat="44.547721209675146" lon="10.862961350464564"><ele>102.0</ele><time>2026-04-11T14:52:57Z</time></trkpt><trkpt lat="44.5477369582673" lon="10.862860948731496"><ele>102.0</ele><time>2026-04-11T14:52:58Z</time></trkpt><trkpt lat="44.54775339596805" lon="10.862763431455527"><ele>102.0</ele><time>2026-04-11T14:52:59Z</time></trkpt><trkpt lat="44.5477784705167" lon="10.862665457198048"><ele>102.0</ele><time>2026-04-11T14:53:00Z</time></trkpt><trkpt lat="44.54779243733284" lon="10.862568830944026"><ele>102.0</ele><time>2026-04-11T14:53:01Z</time></trkpt><trkpt lat="44.54780821363006" lon="10.862468551540797"><ele>102.16666666666667</ele><time>2026-04-11T14:53:02Z</time></trkpt><trkpt lat="44.5478225897498" lon="10.862367093463588"><ele>102.33333333333334</ele><time>2026-04-11T14:53:03Z</time></trkpt><trkpt lat="44.54783828181819" lon="10.862252349200514"><ele>102.5</ele><time>2026-04-11T14:53:04Z</time></trkpt><trkpt lat="44.54785143880938" lon="10.86214884425884"><ele>102.66666666666667</ele><time>2026-04-11T14:53:05Z</time></trkpt><trkpt lat="44.547872081010695" lon="10.862051936641912"><ele>102.83333333333334</ele><time>2026-04-11T14:53:06Z</time></trkpt><trkpt lat="44.54788966974735" lon="10.861951597384765"><ele>103.0</ele><time>2026-04-11T14:53:07Z</time></trkpt><trkpt lat="44.54790540294439" lon="10.86185012092367"><ele>103.14285714285714</ele><time>2026-04-11T14:53:08Z</time></trkpt><trkpt lat="44.54792590556901" lon="10.861743170183251"><ele>103.28571428571428</ele><time>2026-04-11T14:53:09Z</time></trkpt><trkpt lat="44.54794692374935" lon="10.861652032355046"><ele>103.42857142857142</ele><time>2026-04-11T14:53:10Z</time></trkpt><trkpt lat="44.54796483842792" lon="10.861561477870584"><ele>103.57142857142857</ele><time>2026-04-11T14:53:11Z</time></trkpt><trkpt lat="44.547983069539264" lon="10.861467135855184"><ele>103.71428571428572</ele><time>2026-04-11T14:53:12Z</time></trkpt><trkpt lat="44.548003918340044" lon="10.861375305921195"><ele>103.85714285714285</ele><time>2026-04-11T14:53:13Z</time></trkpt><trkpt lat="44.54801731801731" lon="10.86127775027225"><ele>104.0</ele><time>2026-04-11T14:53:14Z</time></trkpt><trkpt lat="44.5480372656484" lon="10.861183771329877"><ele>104.0</ele><time>2026-04-11T14:53:15Z</time></trkpt><trkpt lat="44.548058651719174" lon="10.861095589560946"><ele>104.0</ele><time>2026-04-11T14:53:16Z</time></trkpt><trkpt lat="44.54807559115523" lon="10.861000169094046"><ele>104.0</ele><time>2026-04-11T14:53:17Z</time></trkpt><trkpt lat="44.54809064335543" lon="10.860910839068017"><ele>104.0</ele><time>2026-04-11T14:53:18Z</time></trkpt><trkpt lat="44.54810378042907" lon="10.860808913076466"><ele>104.0</ele><time>2026-04-11T14:53:19Z</time></trkpt><trkpt lat="44.548115696601336" lon="10.860715195234306"><ele>104.0</ele><time>2026-04-11T14:53:20Z</time></trkpt><trkpt lat="44.54813927254199" lon="10.860628367122239"><ele>104.0</ele><time>2026-04-11T14:53:21Z</time></trkpt><trkpt lat="44.54815453316144" lon="10.860539171584517"><ele>104.0</ele><time>2026-04-11T14:53:22Z</time></trkpt><trkpt lat="44.54817210580436" lon="10.860445200737479"><ele>104.0</ele><time>2026-04-11T14:53:23Z</time></trkpt><trkpt lat="44.548199977665504" lon="10.860271886614298"><ele>104.0</ele><time>2026-04-11T14:53:25Z</time></trkpt><trkpt lat="44.54821991692601" lon="10.860181296803544"><ele>104.0</ele><time>2026-04-11T14:53:26Z</time></trkpt><trkpt lat="44.54825062867918" lon="10.86001388109895"><ele>104.0</ele><time>2026-04-11T14:53:27.999Z</time></trkpt><trkpt lat="44.54825844588665" lon="10.85991579633395"><ele>103.80000000000001</ele><time>2026-04-11T14:53:28.999Z</time></trkpt><trkpt lat="44.548295943904826" lon="10.859743220109207"><ele>103.60000000000001</ele><time>2026-04-11T14:53:30.999Z</time></trkpt><trkpt lat="44.5483409615365" lon="10.859589162611742"><ele>103.4</ele><time>2026-04-11T14:53:32.999Z</time></trkpt><trkpt lat="44.54835271997553" lon="10.859500376034266"><ele>103.2</ele><time>2026-04-11T14:53:33.999Z</time></trkpt><trkpt lat="44.54836771707044" lon="10.859414088065897"><ele>103.0</ele><time>2026-04-11T14:53:34.999Z</time></trkpt><trkpt lat="44.54841566616297" lon="10.859252568945191"><ele>103.5</ele><time>2026-04-11T14:53:36.999Z</time></trkpt><trkpt lat="44.54845853315277" lon="10.859109754874998"><ele>104.0</ele><time>2026-04-11T14:53:38.999Z</time></trkpt><trkpt lat="44.54849019668068" lon="10.858948738895815"><ele>104.5</ele><time>2026-04-11T14:53:40.999Z</time></trkpt><trkpt lat="44.54853267272753" lon="10.85879496250095"><ele>105.0</ele><time>2026-04-11T14:53:42.999Z</time></trkpt><trkpt lat="44.54856529537754" lon="10.85864037630221"><ele>105.0</ele><time>2026-04-11T14:53:44.999Z</time></trkpt><trkpt lat="44.54860378524878" lon="10.858496771775506"><ele>105.0</ele><time>2026-04-11T14:53:46.999Z</time></trkpt><trkpt lat="44.54863790401349" lon="10.858345343732275"><ele>105.0</ele><time>2026-04-11T14:53:48.999Z</time></trkpt><trkpt lat="44.548666534838254" lon="10.858196272314668"><ele>105.0</ele><time>2026-04-11T14:53:50.999Z</time></trkpt><trkpt lat="44.54865354543952" lon="10.858046033517379"><ele>105.0</ele><time>2026-04-11T14:53:52.999Z</time></trkpt><trkpt lat="44.548647757948814" lon="10.857906811183833"><ele>104.8</ele><time>2026-04-11T14:53:54.999Z</time></trkpt><trkpt lat="44.54871369049602" lon="10.857790589192344"><ele>104.6</ele><time>2026-04-11T14:53:56.999Z</time></trkpt><trkpt lat="44.54879638417912" lon="10.857679105835794"><ele>104.4</ele><time>2026-04-11T14:53:58.999Z</time></trkpt><trkpt lat="44.54879635624684" lon="10.857589962302406"><ele>104.2</ele><time>2026-04-11T14:53:59.999Z</time></trkpt><trkpt lat="44.5489197374118" lon="10.85750400154172"><ele>104.0</ele><time>2026-04-11T14:54:01.999Z</time></trkpt><trkpt lat="44.54898501205784" lon="10.857505373617844"><ele>103.99999999999999</ele><time>2026-04-11T14:54:02.999Z</time></trkpt><trkpt lat="44.54905231308885" lon="10.857492110058367"><ele>104.0</ele><time>2026-04-11T14:54:03.999Z</time></trkpt><trkpt lat="44.54911620444116" lon="10.857478090590257"><ele>104.0</ele><time>2026-04-11T14:54:04.999Z</time></trkpt><trkpt lat="44.5491829732003" lon="10.857444061498107"><ele>104.0</ele><time>2026-04-11T14:54:05.999Z</time></trkpt><trkpt lat="44.54924782892476" lon="10.857415434756687"><ele>103.99999999999999</ele><time>2026-04-11T14:54:06.999Z</time></trkpt><trkpt lat="44.54931339059737" lon="10.85737913465067"><ele>104.0</ele><time>2026-04-11T14:54:07.999Z</time></trkpt><trkpt lat="44.54944159343265" lon="10.85732285462065"><ele>104.0</ele><time>2026-04-11T14:54:09.999Z</time></trkpt><trkpt lat="44.54950656599459" lon="10.857292167219907"><ele>104.0</ele><time>2026-04-11T14:54:10.999Z</time></trkpt><trkpt lat="44.54957622784046" lon="10.857266490610929"><ele>104.0</ele><time>2026-04-11T14:54:11.999Z</time></trkpt><trkpt lat="44.54964310075312" lon="10.857231371281694"><ele>104.0</ele><time>2026-04-11T14:54:12.999Z</time></trkpt><trkpt lat="44.54970445848176" lon="10.857197053323155"><ele>104.0</ele><time>2026-04-11T14:54:13.999Z</time></trkpt><trkpt lat="44.5497824517885" lon="10.857171952965917"><ele>104.0</ele><time>2026-04-11T14:54:14.999Z</time></trkpt><trkpt lat="44.54985544320787" lon="10.857149753845478"><ele>104.0</ele><time>2026-04-11T14:54:15.999Z</time></trkpt><trkpt lat="44.5499265793192" lon="10.857119706331277"><ele>103.49999999999999</ele><time>2026-04-11T14:54:16.999Z</time></trkpt><trkpt lat="44.549996069291865" lon="10.857097755574095"><ele>103.0</ele><time>2026-04-11T14:54:17.999Z</time></trkpt><trkpt lat="44.55007246344414" lon="10.857065826728338"><ele>102.5</ele><time>2026-04-11T14:54:18.999Z</time></trkpt><trkpt lat="44.55015021650736" lon="10.857038287779048"><ele>102.0</ele><time>2026-04-11T14:54:19.999Z</time></trkpt><trkpt lat="44.550224543994595" lon="10.857010461763442"><ele>101.49999999999999</ele><time>2026-04-11T14:54:20.999Z</time></trkpt><trkpt lat="44.55030064414085" lon="10.856977124083903"><ele>101.0</ele><time>2026-04-11T14:54:21.999Z</time></trkpt><trkpt lat="44.55037875599091" lon="10.856947419215308"><ele>100.99999999999999</ele><time>2026-04-11T14:54:22.999Z</time></trkpt><trkpt lat="44.550446476112754" lon="10.856924314589774"><ele>101.0</ele><time>2026-04-11T14:54:23.999Z</time></trkpt><trkpt lat="44.55052286427608" lon="10.856896428519981"><ele>101.0</ele><time>2026-04-11T14:54:24.999Z</time></trkpt><trkpt lat="44.550593678707095" lon="10.856857705139102"><ele>101.0</ele><time>2026-04-11T14:54:25.999Z</time></trkpt><trkpt lat="44.55066533278148" lon="10.856834742367766"><ele>100.99999999999999</ele><time>2026-04-11T14:54:26.999Z</time></trkpt><trkpt lat="44.55073579514225" lon="10.856806933969978"><ele>101.0</ele><time>2026-04-11T14:54:27.999Z</time></trkpt><trkpt lat="44.55081279306782" lon="10.856780209148665"><ele>101.0</ele><time>2026-04-11T14:54:28.999Z</time></trkpt><trkpt lat="44.55088524797315" lon="10.856749454917328"><ele>101.0</ele><time>2026-04-11T14:54:29.999Z</time></trkpt><trkpt lat="44.55095807925706" lon="10.856719936099383"><ele>101.0</ele><time>2026-04-11T14:54:30.999Z</time></trkpt><trkpt lat="44.551028598079256" lon="10.856693823425589"><ele>101.0</ele><time>2026-04-11T14:54:32Z</time></trkpt><trkpt lat="44.551100149487226" lon="10.856665113418316"><ele>101.0</ele><time>2026-04-11T14:54:33Z</time></trkpt><trkpt lat="44.5511720170114" lon="10.856634960797741"><ele>101.0</ele><time>2026-04-11T14:54:34Z</time></trkpt><trkpt lat="44.55124389474038" lon="10.856605236480187"><ele>101.0</ele><time>2026-04-11T14:54:35Z</time></trkpt><trkpt lat="44.55131741272681" lon="10.856578193747023"><ele>100.66666666666666</ele><time>2026-04-11T14:54:36Z</time></trkpt><trkpt lat="44.55139250808646" lon="10.856553066240988"><ele>100.33333333333333</ele><time>2026-04-11T14:54:37Z</time></trkpt><trkpt lat="44.55147180920659" lon="10.856533172744495"><ele>100.0</ele><time>2026-04-11T14:54:38Z</time></trkpt><trkpt lat="44.55155464997659" lon="10.856529862493929"><ele>99.66666666666666</ele><time>2026-04-11T14:54:39Z</time></trkpt><trkpt lat="44.55163864215147" lon="10.856479540453781"><ele>99.33333333333333</ele><time>2026-04-11T14:54:40Z</time></trkpt><trkpt lat="44.55171848097676" lon="10.856505291624602"><ele>99.0</ele><time>2026-04-11T14:54:41Z</time></trkpt><trkpt lat="44.551802366333504" lon="10.856491412412867"><ele>99.0</ele><time>2026-04-11T14:54:42Z</time></trkpt><trkpt lat="44.551885765203586" lon="10.85650042684118"><ele>99.0</ele><time>2026-04-11T14:54:43Z</time></trkpt><trkpt lat="44.551967766406484" lon="10.856521968256839"><ele>99.0</ele><time>2026-04-11T14:54:44Z</time></trkpt><trkpt lat="44.55204301262709" lon="10.85655946551401"><ele>99.0</ele><time>2026-04-11T14:54:45Z</time></trkpt><trkpt lat="44.55212381640317" lon="10.856600945471705"><ele>99.0</ele><time>2026-04-11T14:54:46Z</time></trkpt><trkpt lat="44.55220729031148" lon="10.856546791230086"><ele>99.0</ele><time>2026-04-11T14:54:47Z</time></trkpt><trkpt lat="44.552287232284975" lon="10.85664873288704"><ele>98.5</ele><time>2026-04-11T14:54:48Z</time></trkpt><trkpt lat="44.55235620734068" lon="10.85671975321296"><ele>98.0</ele><time>2026-04-11T14:54:49Z</time></trkpt><trkpt lat="44.55243081433257" lon="10.856762741531776"><ele>97.5</ele><time>2026-04-11T14:54:50Z</time></trkpt><trkpt lat="44.55250518340406" lon="10.856811453190398"><ele>97.0</ele><time>2026-04-11T14:54:51Z</time></trkpt><trkpt lat="44.55257578616086" lon="10.856864397682829"><ele>96.5</ele><time>2026-04-11T14:54:52Z</time></trkpt><trkpt lat="44.55264245689473" lon="10.856918623656941"><ele>96.0</ele><time>2026-04-11T14:54:53Z</time></trkpt><trkpt lat="44.55271083132146" lon="10.856969701951726"><ele>95.85714285714285</ele><time>2026-04-11T14:54:54Z</time></trkpt><trkpt lat="44.552778779019306" lon="10.857016158559148"><ele>95.71428571428571</ele><time>2026-04-11T14:54:55Z</time></trkpt><trkpt lat="44.55284498222869" lon="10.857055837477938"><ele>95.57142857142857</ele><time>2026-04-11T14:54:56Z</time></trkpt><trkpt lat="44.552912215658594" lon="10.857093017554092"><ele>95.42857142857142</ele><time>2026-04-11T14:54:57Z</time></trkpt><trkpt lat="44.55298040793848" lon="10.85712814588234"><ele>95.28571428571429</ele><time>2026-04-11T14:54:58Z</time></trkpt><trkpt lat="44.55303899462019" lon="10.857166624938989"><ele>95.14285714285714</ele><time>2026-04-11T14:54:59Z</time></trkpt><trkpt lat="44.553100471858585" lon="10.857194832630135"><ele>95.0</ele><time>2026-04-11T14:55:00Z</time></trkpt><trkpt lat="44.55316468681356" lon="10.85722278162342"><ele>95.0</ele><time>2026-04-11T14:55:01Z</time></trkpt><trkpt lat="44.553277286380755" lon="10.857297496909972"><ele>95.0</ele><time>2026-04-11T14:55:03Z</time></trkpt><trkpt lat="44.553304847297674" lon="10.857473261381136"><ele>95.0</ele><time>2026-04-11T14:55:05Z</time></trkpt><trkpt lat="44.553329165139566" lon="10.857640913566923"><ele>95.0</ele><time>2026-04-11T14:55:07Z</time></trkpt><trkpt lat="44.55335913740142" lon="10.857799122828723"><ele>95.25</ele><time>2026-04-11T14:55:09Z</time></trkpt><trkpt lat="44.55336891671857" lon="10.85796355317738"><ele>95.5</ele><time>2026-04-11T14:55:11Z</time></trkpt><trkpt lat="44.553385841566524" lon="10.858126001244324"><ele>95.75</ele><time>2026-04-11T14:55:13Z</time></trkpt><trkpt lat="44.5534035599417" lon="10.858282972462952"><ele>96.0</ele><time>2026-04-11T14:55:15Z</time></trkpt><trkpt lat="44.55342384983178" lon="10.858445413517776"><ele>95.6</ele><time>2026-04-11T14:55:17Z</time></trkpt><trkpt lat="44.55343704345263" lon="10.858602219230228"><ele>95.19999999999999</ele><time>2026-04-11T14:55:19Z</time></trkpt><trkpt lat="44.55346196785235" lon="10.858752857364296"><ele>94.80000000000001</ele><time>2026-04-11T14:55:21Z</time></trkpt><trkpt lat="44.553479418033135" lon="10.858905048416506"><ele>94.4</ele><time>2026-04-11T14:55:23Z</time></trkpt><trkpt lat="44.5535124673687" lon="10.859050608900885"><ele>94.0</ele><time>2026-04-11T14:55:25Z</time></trkpt><trkpt lat="44.55353290754188" lon="10.859203624679086"><ele>94.25</ele><time>2026-04-11T14:55:27Z</time></trkpt><trkpt lat="44.55355375469061" lon="10.859359382389753"><ele>94.5</ele><time>2026-04-11T14:55:28.999Z</time></trkpt><trkpt lat="44.55355969998795" lon="10.859517500001711"><ele>94.75</ele><time>2026-04-11T14:55:30.999Z</time></trkpt><trkpt lat="44.55359587050791" lon="10.859673899831119"><ele>95.0</ele><time>2026-04-11T14:55:32.999Z</time></trkpt><trkpt lat="44.553616860124414" lon="10.859830648530375"><ele>95.0</ele><time>2026-04-11T14:55:34.999Z</time></trkpt><trkpt lat="44.55363713860005" lon="10.85998208645659"><ele>95.0</ele><time>2026-04-11T14:55:36.999Z</time></trkpt><trkpt lat="44.55364110507094" lon="10.860135593103077"><ele>95.0</ele><time>2026-04-11T14:55:38.999Z</time></trkpt><trkpt lat="44.55367728491455" lon="10.860278892789598"><ele>95.0</ele><time>2026-04-11T14:55:40.999Z</time></trkpt><trkpt lat="44.55369689040195" lon="10.8604237970489"><ele>95.0</ele><time>2026-04-11T14:55:42.999Z</time></trkpt><trkpt lat="44.5537170894649" lon="10.860573088296661"><ele>94.8</ele><time>2026-04-11T14:55:44.999Z</time></trkpt><trkpt lat="44.5537363117197" lon="10.860715160046285"><ele>94.6</ele><time>2026-04-11T14:55:46.999Z</time></trkpt><trkpt lat="44.55375556873689" lon="10.860857065066849"><ele>94.4</ele><time>2026-04-11T14:55:48.999Z</time></trkpt><trkpt lat="44.55377611134815" lon="10.861003825253883"><ele>94.2</ele><time>2026-04-11T14:55:50.999Z</time></trkpt><trkpt lat="44.55379614293525" lon="10.861146934651082"><ele>94.0</ele><time>2026-04-11T14:55:52.999Z</time></trkpt><trkpt lat="44.55381342180662" lon="10.861287077507178"><ele>94.0</ele><time>2026-04-11T14:55:54.999Z</time></trkpt><trkpt lat="44.55381707689004" lon="10.86144416484507"><ele>94.0</ele><time>2026-04-11T14:55:56.999Z</time></trkpt><trkpt lat="44.553786012805894" lon="10.86159436994978"><ele>94.0</ele><time>2026-04-11T14:55:58.999Z</time></trkpt><trkpt lat="44.55367252448725" lon="10.861662436762137"><ele>94.0</ele><time>2026-04-11T14:56:00.999Z</time></trkpt><trkpt lat="44.55358513369667" lon="10.861724125836158"><ele>94.0</ele><time>2026-04-11T14:56:02.999Z</time></trkpt><trkpt lat="44.55348485490888" lon="10.861714713945359"><ele>94.0</ele><time>2026-04-11T14:56:04.999Z</time></trkpt><trkpt lat="44.553439009522656" lon="10.861829268861598"><ele>94.0</ele><time>2026-04-11T14:56:06.999Z</time></trkpt><trkpt lat="44.5534679399736" lon="10.861944084749544"><ele>94.0</ele><time>2026-04-11T14:56:07.999Z</time></trkpt><trkpt lat="44.553554052022804" lon="10.861885690154477"><ele>94.0</ele><time>2026-04-11T14:56:10.999Z</time></trkpt><trkpt lat="44.55362876382461" lon="10.861890674741009"><ele>94.0</ele><time>2026-04-11T14:56:11.999Z</time></trkpt><trkpt lat="44.55371342566929" lon="10.861811609103276"><ele>94.0</ele><time>2026-04-11T14:56:13.999Z</time></trkpt><trkpt lat="44.5537938076224" lon="10.861709521719714"><ele>94.0</ele><time>2026-04-11T14:56:15.999Z</time></trkpt><trkpt lat="44.55384333000368" lon="10.861574028025892"><ele>94.0</ele><time>2026-04-11T14:56:17.999Z</time></trkpt><trkpt lat="44.5538635388387" lon="10.861425272656714"><ele>94.0</ele><time>2026-04-11T14:56:19.999Z</time></trkpt><trkpt lat="44.55386241173317" lon="10.861275586590168"><ele>94.0</ele><time>2026-04-11T14:56:21.999Z</time></trkpt><trkpt lat="44.553847193942694" lon="10.861131217142225"><ele>94.0</ele><time>2026-04-11T14:56:23.999Z</time></trkpt><trkpt lat="44.553827474293435" lon="10.860979037200712"><ele>94.0</ele><time>2026-04-11T14:56:25.999Z</time></trkpt><trkpt lat="44.553800184747566" lon="10.860825393281772"><ele>94.0</ele><time>2026-04-11T14:56:27.999Z</time></trkpt><trkpt lat="44.55378448641396" lon="10.86067087983612"><ele>94.0</ele><time>2026-04-11T14:56:29.999Z</time></trkpt><trkpt lat="44.5537595469625" lon="10.860519491598852"><ele>94.0</ele><time>2026-04-11T14:56:31.999Z</time></trkpt><trkpt lat="44.55373797641555" lon="10.860364953737676"><ele>94.0</ele><time>2026-04-11T14:56:33.999Z</time></trkpt><trkpt lat="44.553717971564865" lon="10.860207244059865"><ele>94.0</ele><time>2026-04-11T14:56:35.999Z</time></trkpt><trkpt lat="44.55369734254622" lon="10.860049309348687"><ele>94.0</ele><time>2026-04-11T14:56:38Z</time></trkpt><trkpt lat="44.553677035043535" lon="10.859887206428507"><ele>94.0</ele><time>2026-04-11T14:56:40Z</time></trkpt><trkpt lat="44.55364975547316" lon="10.859725815569359"><ele>94.0</ele><time>2026-04-11T14:56:42Z</time></trkpt><trkpt lat="44.55363084461711" lon="10.859573575819157"><ele>94.0</ele><time>2026-04-11T14:56:44Z</time></trkpt><trkpt lat="44.553610327764844" lon="10.859425474084638"><ele>94.0</ele><time>2026-04-11T14:56:46Z</time></trkpt><trkpt lat="44.553577160883954" lon="10.859281204184967"><ele>94.0</ele><time>2026-04-11T14:56:48Z</time></trkpt><trkpt lat="44.553556128846495" lon="10.859123893634088"><ele>94.0</ele><time>2026-04-11T14:56:50Z</time></trkpt><trkpt lat="44.55355168619159" lon="10.85896777608914"><ele>94.0</ele><time>2026-04-11T14:56:52Z</time></trkpt><trkpt lat="44.55352777922862" lon="10.85881093720323"><ele>94.0</ele><time>2026-04-11T14:56:54Z</time></trkpt><trkpt lat="44.55350622456864" lon="10.858653841417715"><ele>94.0</ele><time>2026-04-11T14:56:56Z</time></trkpt><trkpt lat="44.55348510652882" lon="10.858496085778853"><ele>94.0</ele><time>2026-04-11T14:56:58Z</time></trkpt><trkpt lat="44.55346515322941" lon="10.858337694050066"><ele>94.2</ele><time>2026-04-11T14:57:00Z</time></trkpt><trkpt lat="44.55344079995397" lon="10.858184080582673"><ele>94.4</ele><time>2026-04-11T14:57:02Z</time></trkpt><trkpt lat="44.55341731142217" lon="10.858033112736008"><ele>94.6</ele><time>2026-04-11T14:57:04Z</time></trkpt><trkpt lat="44.553389384706676" lon="10.857887545187099"><ele>94.8</ele><time>2026-04-11T14:57:06Z</time></trkpt><trkpt lat="44.55336692462838" lon="10.85773828259996"><ele>95.0</ele><time>2026-04-11T14:57:08Z</time></trkpt><trkpt lat="44.55334197306006" lon="10.857586859968286"><ele>95.0</ele><time>2026-04-11T14:57:10Z</time></trkpt><trkpt lat="44.553326169069415" lon="10.857430461864979"><ele>95.0</ele><time>2026-04-11T14:57:12Z</time></trkpt><trkpt lat="44.553302584895974" lon="10.857283813403324"><ele>95.0</ele><time>2026-04-11T14:57:14Z</time></trkpt><trkpt lat="44.55322127029117" lon="10.857163987388224"><ele>95.0</ele><time>2026-04-11T14:57:16Z</time></trkpt><trkpt lat="44.55311491101343" lon="10.857087520307575"><ele>95.0</ele><time>2026-04-11T14:57:18Z</time></trkpt><trkpt lat="44.55300277082326" lon="10.857038902668743"><ele>95.0</ele><time>2026-04-11T14:57:20Z</time></trkpt><trkpt lat="44.552890259696134" lon="10.856980255640936"><ele>95.0</ele><time>2026-04-11T14:57:22Z</time></trkpt><trkpt lat="44.55278141669052" lon="10.856924711098593"><ele>95.0</ele><time>2026-04-11T14:57:24Z</time></trkpt><trkpt lat="44.55267224138108" lon="10.856857870045035"><ele>95.2</ele><time>2026-04-11T14:57:26Z</time></trkpt><trkpt lat="44.552575081464994" lon="10.856774138031472"><ele>95.4</ele><time>2026-04-11T14:57:28Z</time></trkpt><trkpt lat="44.552490389946726" lon="10.856690233270797"><ele>95.6</ele><time>2026-04-11T14:57:29.999Z</time></trkpt><trkpt lat="44.55240897868934" lon="10.85662970562585"><ele>95.8</ele><time>2026-04-11T14:57:31.999Z</time></trkpt><trkpt lat="44.552414291765466" lon="10.856445246860108"><ele>96.0</ele><time>2026-04-11T14:57:33.999Z</time></trkpt><trkpt lat="44.55242164500233" lon="10.856317441340849"><ele>96.0</ele><time>2026-04-11T14:57:35.999Z</time></trkpt><trkpt lat="44.55245760833703" lon="10.85620459244242"><ele>96.0</ele><time>2026-04-11T14:57:37.999Z</time></trkpt><trkpt lat="44.55251581273588" lon="10.856109927760293"><ele>96.0</ele><time>2026-04-11T14:57:39.999Z</time></trkpt><trkpt lat="44.552636240640986" lon="10.856068509129367"><ele>96.0</ele><time>2026-04-11T14:57:41.999Z</time></trkpt><trkpt lat="44.55274144663915" lon="10.856013111580868"><ele>96.0</ele><time>2026-04-11T14:57:43.999Z</time></trkpt><trkpt lat="44.552858653051494" lon="10.855961306759268"><ele>95.6</ele><time>2026-04-11T14:57:45.999Z</time></trkpt><trkpt lat="44.55291976239725" lon="10.855938721373217"><ele>95.19999999999999</ele><time>2026-04-11T14:57:46.999Z</time></trkpt><trkpt lat="44.55298980223377" lon="10.855924832096667"><ele>94.80000000000001</ele><time>2026-04-11T14:57:47.999Z</time></trkpt><trkpt lat="44.553100329386645" lon="10.855870728437585"><ele>94.4</ele><time>2026-04-11T14:57:49.999Z</time></trkpt><trkpt lat="44.55316526318858" lon="10.85583713144432"><ele>94.0</ele><time>2026-04-11T14:57:50.999Z</time></trkpt><trkpt lat="44.55329465632329" lon="10.855841477776321"><ele>94.0</ele><time>2026-04-11T14:57:52.999Z</time></trkpt><trkpt lat="44.55341200654026" lon="10.855783532059688"><ele>94.0</ele><time>2026-04-11T14:57:54.999Z</time></trkpt><trkpt lat="44.5534762318485" lon="10.85575542766709"><ele>94.0</ele><time>2026-04-11T14:57:55.999Z</time></trkpt><trkpt lat="44.55353833725964" lon="10.855730618978148"><ele>94.0</ele><time>2026-04-11T14:57:56.999Z</time></trkpt><trkpt lat="44.55360094146245" lon="10.855707658294772"><ele>94.0</ele><time>2026-04-11T14:57:57.999Z</time></trkpt><trkpt lat="44.55366946259165" lon="10.855680574161333"><ele>94.0</ele><time>2026-04-11T14:57:58.999Z</time></trkpt><trkpt lat="44.55373390126495" lon="10.85565282574427"><ele>93.85714285714286</ele><time>2026-04-11T14:57:59.999Z</time></trkpt><trkpt lat="44.55379941142819" lon="10.855629862777306"><ele>93.71428571428571</ele><time>2026-04-11T14:58:00.999Z</time></trkpt><trkpt lat="44.55386744037525" lon="10.855602974900663"><ele>93.57142857142858</ele><time>2026-04-11T14:58:01.999Z</time></trkpt><trkpt lat="44.55393223124601" lon="10.855577867065458"><ele>93.42857142857143</ele><time>2026-04-11T14:58:02.999Z</time></trkpt><trkpt lat="44.55399626617432" lon="10.855544082384284"><ele>93.28571428571429</ele><time>2026-04-11T14:58:03.999Z</time></trkpt><trkpt lat="44.554063211188584" lon="10.85551804110646"><ele>93.14285714285715</ele><time>2026-04-11T14:58:04.999Z</time></trkpt><trkpt lat="44.554126293665625" lon="10.855491498210268"><ele>93.0</ele><time>2026-04-11T14:58:05.999Z</time></trkpt><trkpt lat="44.55419096329194" lon="10.855464161019945"><ele>93.00000000000001</ele><time>2026-04-11T14:58:06.999Z</time></trkpt><trkpt lat="44.55425751446803" lon="10.855438354582194"><ele>93.0</ele><time>2026-04-11T14:58:07.999Z</time></trkpt><trkpt lat="44.55432223961565" lon="10.855412571138876"><ele>93.0</ele><time>2026-04-11T14:58:08.999Z</time></trkpt><trkpt lat="44.55438614543374" lon="10.855380441882279"><ele>93.0</ele><time>2026-04-11T14:58:09.999Z</time></trkpt><trkpt lat="44.554450543275905" lon="10.855352273231425"><ele>93.0</ele><time>2026-04-11T14:58:10.999Z</time></trkpt><trkpt lat="44.55451345939029" lon="10.855324901332024"><ele>93.00000000000001</ele><time>2026-04-11T14:58:11.999Z</time></trkpt><trkpt lat="44.55458056429791" lon="10.855291582909839"><ele>93.0</ele><time>2026-04-11T14:58:12.999Z</time></trkpt><trkpt lat="44.55464236001124" lon="10.855271987933843"><ele>93.00000000000001</ele><time>2026-04-11T14:58:13.999Z</time></trkpt><trkpt lat="44.55471116948886" lon="10.855244000035873"><ele>93.0</ele><time>2026-04-11T14:58:14.999Z</time></trkpt><trkpt lat="44.554777839390965" lon="10.855205503294785"><ele>93.0</ele><time>2026-04-11T14:58:15.999Z</time></trkpt><trkpt lat="44.554846138972195" lon="10.855176733061674"><ele>93.0</ele><time>2026-04-11T14:58:16.999Z</time></trkpt><trkpt lat="44.55491220032023" lon="10.855142592193296"><ele>93.0</ele><time>2026-04-11T14:58:17.999Z</time></trkpt><trkpt lat="44.55497809734787" lon="10.85511747510016"><ele>93.00000000000001</ele><time>2026-04-11T14:58:18.999Z</time></trkpt><trkpt lat="44.555045862491326" lon="10.85509238435601"><ele>93.0</ele><time>2026-04-11T14:58:19.999Z</time></trkpt><trkpt lat="44.55511314543788" lon="10.855059430122655"><ele>93.00000000000001</ele><time>2026-04-11T14:58:20.999Z</time></trkpt><trkpt lat="44.55518008000675" lon="10.855028754453949"><ele>93.0</ele><time>2026-04-11T14:58:21.999Z</time></trkpt><trkpt lat="44.555245944925886" lon="10.85500486648353"><ele>93.0</ele><time>2026-04-11T14:58:22.999Z</time></trkpt><trkpt lat="44.55531272572889" lon="10.85497934955555"><ele>93.0</ele><time>2026-04-11T14:58:23.999Z</time></trkpt><trkpt lat="44.55538247631778" lon="10.85495187300664"><ele>93.0</ele><time>2026-04-11T14:58:24.999Z</time></trkpt><trkpt lat="44.55545312645424" lon="10.854924680264123"><ele>93.00000000000001</ele><time>2026-04-11T14:58:25.999Z</time></trkpt><trkpt lat="44.55552265889798" lon="10.854892647835651"><ele>93.0</ele><time>2026-04-11T14:58:26.999Z</time></trkpt><trkpt lat="44.555591524335966" lon="10.854858634935864"><ele>92.85714285714286</ele><time>2026-04-11T14:58:27.999Z</time></trkpt><trkpt lat="44.555657500339706" lon="10.854834938946896"><ele>92.71428571428572</ele><time>2026-04-11T14:58:28.999Z</time></trkpt><trkpt lat="44.555725851138924" lon="10.854805595443167"><ele>92.57142857142858</ele><time>2026-04-11T14:58:29.999Z</time></trkpt><trkpt lat="44.55579570034309" lon="10.854782249351937"><ele>92.42857142857143</ele><time>2026-04-11T14:58:30.999Z</time></trkpt><trkpt lat="44.55586543441963" lon="10.854755842148014"><ele>92.28571428571428</ele><time>2026-04-11T14:58:31.999Z</time></trkpt><trkpt lat="44.555932037094934" lon="10.85473024115949"><ele>92.14285714285715</ele><time>2026-04-11T14:58:32.999Z</time></trkpt><trkpt lat="44.55600197598294" lon="10.854700850788188"><ele>92.0</ele><time>2026-04-11T14:58:33.999Z</time></trkpt><trkpt lat="44.55607014580518" lon="10.854671320605172"><ele>92.0</ele><time>2026-04-11T14:58:34.999Z</time></trkpt><trkpt lat="44.55614309905712" lon="10.854643682933085"><ele>92.0</ele><time>2026-04-11T14:58:35.999Z</time></trkpt><trkpt lat="44.55620965536297" lon="10.854619579589176"><ele>92.0</ele><time>2026-04-11T14:58:36.999Z</time></trkpt><trkpt lat="44.55628716388496" lon="10.854615302046199"><ele>92.0</ele><time>2026-04-11T14:58:37.999Z</time></trkpt><trkpt lat="44.55634793722151" lon="10.854571354676242"><ele>92.0</ele><time>2026-04-11T14:58:38.999Z</time></trkpt><trkpt lat="44.55646269112513" lon="10.854471208041847"><ele>92.0</ele><time>2026-04-11T14:58:39.999Z</time></trkpt><trkpt lat="44.556535347987925" lon="10.854497092972373"><ele>91.75</ele><time>2026-04-11T14:58:40.998Z</time></trkpt><trkpt lat="44.55661224649579" lon="10.854460142766122"><ele>91.5</ele><time>2026-04-11T14:58:44Z</time></trkpt><trkpt lat="44.556742885645875" lon="10.854728778544603"><ele>91.25</ele><time>2026-04-11T14:58:48Z</time></trkpt><trkpt lat="44.55682875005209" lon="10.854838996592797"><ele>91.0</ele><time>2026-04-11T14:58:50Z</time></trkpt><trkpt lat="44.5569427463302" lon="10.854914615670852"><ele>91.0</ele><time>2026-04-11T14:58:52Z</time></trkpt><trkpt lat="44.55700899054266" lon="10.854930739855774"><ele>91.0</ele><time>2026-04-11T14:58:53Z</time></trkpt><trkpt lat="44.557076728952694" lon="10.85495476295839"><ele>91.0</ele><time>2026-04-11T14:58:54Z</time></trkpt><trkpt lat="44.5571454637476" lon="10.854981058804631"><ele>91.0</ele><time>2026-04-11T14:58:55Z</time></trkpt><trkpt lat="44.5572200336962" lon="10.855004203706223"><ele>91.0</ele><time>2026-04-11T14:58:56Z</time></trkpt><trkpt lat="44.55728453576275" lon="10.855032446050124"><ele>91.0</ele><time>2026-04-11T14:58:57Z</time></trkpt><trkpt lat="44.55734570768503" lon="10.855061574964658"><ele>91.0</ele><time>2026-04-11T14:58:58Z</time></trkpt><trkpt lat="44.55740717494979" lon="10.85508789625149"><ele>91.0</ele><time>2026-04-11T14:58:59Z</time></trkpt><trkpt lat="44.55746741910376" lon="10.855127105716234"><ele>91.0</ele><time>2026-04-11T14:59:00Z</time></trkpt><trkpt lat="44.55753218515294" lon="10.855168199464755"><ele>91.0</ele><time>2026-04-11T14:59:01Z</time></trkpt><trkpt lat="44.55760128562628" lon="10.855186468109949"><ele>91.0</ele><time>2026-04-11T14:59:02Z</time></trkpt><trkpt lat="44.55766345963017" lon="10.855209576943798"><ele>91.0</ele><time>2026-04-11T14:59:03Z</time></trkpt><trkpt lat="44.55773021475372" lon="10.855230701133374"><ele>91.0</ele><time>2026-04-11T14:59:04Z</time></trkpt><trkpt lat="44.55779337387777" lon="10.855258847950784"><ele>91.0</ele><time>2026-04-11T14:59:05Z</time></trkpt><trkpt lat="44.55785965012586" lon="10.855281608509927"><ele>90.83333333333333</ele><time>2026-04-11T14:59:06Z</time></trkpt><trkpt lat="44.55792793787742" lon="10.85530544947965"><ele>90.66666666666666</ele><time>2026-04-11T14:59:07Z</time></trkpt><trkpt lat="44.557988924763116" lon="10.855332412388337"><ele>90.5</ele><time>2026-04-11T14:59:08Z</time></trkpt><trkpt lat="44.55804848872259" lon="10.855365214017498"><ele>90.33333333333333</ele><time>2026-04-11T14:59:09Z</time></trkpt><trkpt lat="44.55811153887273" lon="10.85539976889343"><ele>90.16666666666667</ele><time>2026-04-11T14:59:10Z</time></trkpt><trkpt lat="44.55817973770858" lon="10.855417336803093"><ele>90.0</ele><time>2026-04-11T14:59:11Z</time></trkpt><trkpt lat="44.558298931482604" lon="10.855466247834103"><ele>90.0</ele><time>2026-04-11T14:59:13Z</time></trkpt><trkpt lat="44.55836193014653" lon="10.855485429094731"><ele>90.0</ele><time>2026-04-11T14:59:14Z</time></trkpt><trkpt lat="44.55842358063061" lon="10.855503672950965"><ele>90.0</ele><time>2026-04-11T14:59:15Z</time></trkpt><trkpt lat="44.55848592311101" lon="10.855522328404195"><ele>90.0</ele><time>2026-04-11T14:59:16Z</time></trkpt><trkpt lat="44.55854773115316" lon="10.85555282839233"><ele>90.0</ele><time>2026-04-11T14:59:17Z</time></trkpt><trkpt lat="44.558606864670885" lon="10.855583313168871"><ele>90.0</ele><time>2026-04-11T14:59:18Z</time></trkpt><trkpt lat="44.558709392499736" lon="10.855630037792341"><ele>90.0</ele><time>2026-04-11T14:59:20Z</time></trkpt><trkpt lat="44.55877345348541" lon="10.85565209254787"><ele>90.0</ele><time>2026-04-11T14:59:21Z</time></trkpt><trkpt lat="44.558834667378875" lon="10.855684441403573"><ele>90.0</ele><time>2026-04-11T14:59:22Z</time></trkpt><trkpt lat="44.558960082909145" lon="10.855720185151096"><ele>90.0</ele><time>2026-04-11T14:59:24Z</time></trkpt><trkpt lat="44.559083133539225" lon="10.85576696093729"><ele>90.0</ele><time>2026-04-11T14:59:26Z</time></trkpt><trkpt lat="44.55920213876953" lon="10.85581421115861"><ele>90.0</ele><time>2026-04-11T14:59:28Z</time></trkpt><trkpt lat="44.559267124027365" lon="10.855846105879168"><ele>90.0</ele><time>2026-04-11T14:59:29Z</time></trkpt><trkpt lat="44.55933393739579" lon="10.855871006397045"><ele>90.0</ele><time>2026-04-11T14:59:30Z</time></trkpt><trkpt lat="44.55939559734435" lon="10.855907008453018"><ele>90.0</ele><time>2026-04-11T14:59:31Z</time></trkpt><trkpt lat="44.55951634979147" lon="10.855945713514037"><ele>90.0</ele><time>2026-04-11T14:59:32.999Z</time></trkpt><trkpt lat="44.559638240363626" lon="10.855982894466223"><ele>90.0</ele><time>2026-04-11T14:59:34.999Z</time></trkpt><trkpt lat="44.55970069635561" lon="10.856002782454121"><ele>90.0</ele><time>2026-04-11T14:59:35.999Z</time></trkpt><trkpt lat="44.55981027248239" lon="10.856040414559969"><ele>89.8</ele><time>2026-04-11T14:59:37.999Z</time></trkpt><trkpt lat="44.559928092258296" lon="10.856084189089223"><ele>89.6</ele><time>2026-04-11T14:59:39.999Z</time></trkpt><trkpt lat="44.55999151704564" lon="10.856116755136052"><ele>89.4</ele><time>2026-04-11T14:59:40.999Z</time></trkpt><trkpt lat="44.560098206293915" lon="10.856170592400856"><ele>89.2</ele><time>2026-04-11T14:59:42.999Z</time></trkpt><trkpt lat="44.560200885543985" lon="10.856234823118722"><ele>89.0</ele><time>2026-04-11T14:59:44.999Z</time></trkpt><trkpt lat="44.56024492880435" lon="10.856366400138793"><ele>89.0</ele><time>2026-04-11T14:59:46.999Z</time></trkpt><trkpt lat="44.56024124178176" lon="10.85650778503106"><ele>89.0</ele><time>2026-04-11T14:59:48.999Z</time></trkpt><trkpt lat="44.56024751369006" lon="10.856669600449036"><ele>89.0</ele><time>2026-04-11T14:59:50.999Z</time></trkpt><trkpt lat="44.56024336418724" lon="10.856833462452654"><ele>89.0</ele><time>2026-04-11T14:59:52.999Z</time></trkpt><trkpt lat="44.56024174076864" lon="10.856999830154374"><ele>89.0</ele><time>2026-04-11T14:59:54.999Z</time></trkpt><trkpt lat="44.56022328006689" lon="10.857160428490536"><ele>89.0</ele><time>2026-04-11T14:59:56.999Z</time></trkpt><trkpt lat="44.560199414254015" lon="10.857312744493683"><ele>89.0</ele><time>2026-04-11T14:59:58.999Z</time></trkpt><trkpt lat="44.56015624927525" lon="10.857457905555531"><ele>89.0</ele><time>2026-04-11T15:00:00.999Z</time></trkpt><trkpt lat="44.56012820728657" lon="10.857602000783418"><ele>89.0</ele><time>2026-04-11T15:00:02.999Z</time></trkpt><trkpt lat="44.560089121356576" lon="10.857749905172462"><ele>89.0</ele><time>2026-04-11T15:00:04.999Z</time></trkpt><trkpt lat="44.560053439738454" lon="10.857881779719321"><ele>89.0</ele><time>2026-04-11T15:00:06.999Z</time></trkpt><trkpt lat="44.56002315806056" lon="10.858026769606038"><ele>89.0</ele><time>2026-04-11T15:00:08.999Z</time></trkpt><trkpt lat="44.56000277521306" lon="10.85814013413324"><ele>89.0</ele><time>2026-04-11T15:00:10.999Z</time></trkpt><trkpt lat="44.55996211201673" lon="10.858289304223158"><ele>89.0</ele><time>2026-04-11T15:00:12.999Z</time></trkpt><trkpt lat="44.55992455205358" lon="10.858430122484897"><ele>89.0</ele><time>2026-04-11T15:00:14.999Z</time></trkpt><trkpt lat="44.5598974700766" lon="10.858571677395025"><ele>89.0</ele><time>2026-04-11T15:00:16.999Z</time></trkpt><trkpt lat="44.559860637060986" lon="10.858712300250836"><ele>89.0</ele><time>2026-04-11T15:00:18.999Z</time></trkpt><trkpt lat="44.55982767739893" lon="10.858867369915622"><ele>89.0</ele><time>2026-04-11T15:00:20.999Z</time></trkpt><trkpt lat="44.559796821495844" lon="10.859021096466163"><ele>89.0</ele><time>2026-04-11T15:00:22.999Z</time></trkpt><trkpt lat="44.559767301138976" lon="10.859158884206236"><ele>89.0</ele><time>2026-04-11T15:00:24.999Z</time></trkpt><trkpt lat="44.55973376775532" lon="10.859307125686122"><ele>89.0</ele><time>2026-04-11T15:00:26.999Z</time></trkpt><trkpt lat="44.55970549675498" lon="10.859452652938211"><ele>89.0</ele><time>2026-04-11T15:00:28.999Z</time></trkpt><trkpt lat="44.55967816720633" lon="10.859583911912253"><ele>89.0</ele><time>2026-04-11T15:00:30.999Z</time></trkpt><trkpt lat="44.55965315772813" lon="10.859709942153442"><ele>89.0</ele><time>2026-04-11T15:00:32.999Z</time></trkpt><trkpt lat="44.5596212552758" lon="10.859820915166736"><ele>89.0</ele><time>2026-04-11T15:00:34.999Z</time></trkpt><trkpt lat="44.559592414528176" lon="10.859934297360804"><ele>89.0</ele><time>2026-04-11T15:00:36.999Z</time></trkpt><trkpt lat="44.559560201308976" lon="10.860060115825906"><ele>89.0</ele><time>2026-04-11T15:00:38.999Z</time></trkpt><trkpt lat="44.55953416705238" lon="10.860184082877332"><ele>89.0</ele><time>2026-04-11T15:00:40.999Z</time></trkpt><trkpt lat="44.55950412707162" lon="10.860316490847648"><ele>89.0</ele><time>2026-04-11T15:00:42.998Z</time></trkpt><trkpt lat="44.55947874631084" lon="10.860440553326285"><ele>89.2</ele><time>2026-04-11T15:00:44.998Z</time></trkpt><trkpt lat="44.55945310977299" lon="10.860573930671169"><ele>89.4</ele><time>2026-04-11T15:00:46.998Z</time></trkpt><trkpt lat="44.5594280194403" lon="10.860714348841796"><ele>89.6</ele><time>2026-04-11T15:00:48.998Z</time></trkpt><trkpt lat="44.559401687466824" lon="10.86084691716417"><ele>89.8</ele><time>2026-04-11T15:00:51Z</time></trkpt><trkpt lat="44.55936448604778" lon="10.860974513156423"><ele>90.0</ele><time>2026-04-11T15:00:53Z</time></trkpt><trkpt lat="44.55933751020856" lon="10.861117152214703"><ele>90.0</ele><time>2026-04-11T15:00:55Z</time></trkpt><trkpt lat="44.55936466988826" lon="10.861251060124253"><ele>90.0</ele><time>2026-04-11T15:00:57Z</time></trkpt><trkpt lat="44.559452607231016" lon="10.861337601765456"><ele>90.0</ele><time>2026-04-11T15:00:59Z</time></trkpt><trkpt lat="44.55955670777853" lon="10.861404321517915"><ele>90.0</ele><time>2026-04-11T15:01:01Z</time></trkpt><trkpt lat="44.55965830321657" lon="10.861478955124914"><ele>90.0</ele><time>2026-04-11T15:01:03Z</time></trkpt><trkpt lat="44.55975356602019" lon="10.861558636098165"><ele>90.0</ele><time>2026-04-11T15:01:05Z</time></trkpt><trkpt lat="44.55984661727446" lon="10.861629362519093"><ele>90.0</ele><time>2026-04-11T15:01:07Z</time></trkpt><trkpt lat="44.55995480231521" lon="10.861697897120985"><ele>90.0</ele><time>2026-04-11T15:01:09Z</time></trkpt><trkpt lat="44.56001288608916" lon="10.861741213479057"><ele>90.0</ele><time>2026-04-11T15:01:10Z</time></trkpt><trkpt lat="44.56011150833838" lon="10.861823439582805"><ele>90.0</ele><time>2026-04-11T15:01:12Z</time></trkpt><trkpt lat="44.560216803256736" lon="10.861907072494693"><ele>89.75</ele><time>2026-04-11T15:01:14Z</time></trkpt><trkpt lat="44.560328054033086" lon="10.862004180025306"><ele>89.5</ele><time>2026-04-11T15:01:16Z</time></trkpt><trkpt lat="44.560422504739805" lon="10.86210289444328"><ele>89.25</ele><time>2026-04-11T15:01:18Z</time></trkpt><trkpt lat="44.56050637869255" lon="10.862199767454637"><ele>89.0</ele><time>2026-04-11T15:01:20Z</time></trkpt><trkpt lat="44.560609281760534" lon="10.862290266614641"><ele>89.0</ele><time>2026-04-11T15:01:22Z</time></trkpt><trkpt lat="44.56069779294351" lon="10.86238347312361"><ele>89.0</ele><time>2026-04-11T15:01:24Z</time></trkpt><trkpt lat="44.560756295267524" lon="10.862434357495818"><ele>89.0</ele><time>2026-04-11T15:01:25Z</time></trkpt><trkpt lat="44.56085752063577" lon="10.862530431849322"><ele>89.0</ele><time>2026-04-11T15:01:27Z</time></trkpt><trkpt lat="44.56095451243792" lon="10.862633144856623"><ele>89.0</ele><time>2026-04-11T15:01:29Z</time></trkpt><trkpt lat="44.56105906914544" lon="10.862722523308944"><ele>89.0</ele><time>2026-04-11T15:01:31Z</time></trkpt><trkpt lat="44.56115702099269" lon="10.862820497969254"><ele>89.0</ele><time>2026-04-11T15:01:33Z</time></trkpt><trkpt lat="44.56125333130912" lon="10.862918733903594"><ele>89.0</ele><time>2026-04-11T15:01:34.999Z</time></trkpt><trkpt lat="44.56130953282851" lon="10.862974938606504"><ele>89.0</ele><time>2026-04-11T15:01:35.999Z</time></trkpt><trkpt lat="44.561411122822385" lon="10.86305937879419"><ele>89.0</ele><time>2026-04-11T15:01:37.999Z</time></trkpt><trkpt lat="44.56150449559469" lon="10.863157843105215"><ele>88.80000000000001</ele><time>2026-04-11T15:01:39.999Z</time></trkpt><trkpt lat="44.56159825432363" lon="10.86325610094737"><ele>88.60000000000001</ele><time>2026-04-11T15:01:41.999Z</time></trkpt><trkpt lat="44.561653509995196" lon="10.863306886650326"><ele>88.4</ele><time>2026-04-11T15:01:42.999Z</time></trkpt><trkpt lat="44.56174902987826" lon="10.863400807655013"><ele>88.2</ele><time>2026-04-11T15:01:44.999Z</time></trkpt><trkpt lat="44.56184241685299" lon="10.863489636180159"><ele>88.0</ele><time>2026-04-11T15:01:46.999Z</time></trkpt><trkpt lat="44.56193886077123" lon="10.863590663604636"><ele>88.0</ele><time>2026-04-11T15:01:48.999Z</time></trkpt><trkpt lat="44.56203078743193" lon="10.863679832185017"><ele>88.0</ele><time>2026-04-11T15:01:50.999Z</time></trkpt><trkpt lat="44.56213841993742" lon="10.863769149037198"><ele>88.0</ele><time>2026-04-11T15:01:52.999Z</time></trkpt><trkpt lat="44.56224234607509" lon="10.863865565489816"><ele>88.0</ele><time>2026-04-11T15:01:54.999Z</time></trkpt><trkpt lat="44.56229899876705" lon="10.863906845430844"><ele>88.0</ele><time>2026-04-11T15:01:55.999Z</time></trkpt><trkpt lat="44.56239234650473" lon="10.864011192570295"><ele>87.80000000000001</ele><time>2026-04-11T15:01:57.999Z</time></trkpt><trkpt lat="44.56246940281169" lon="10.864102888383234"><ele>87.6</ele><time>2026-04-11T15:01:59.999Z</time></trkpt><trkpt lat="44.56253014324169" lon="10.864149360272464"><ele>87.4</ele><time>2026-04-11T15:02:00.999Z</time></trkpt><trkpt lat="44.56258339649386" lon="10.864207969384116"><ele>87.19999999999999</ele><time>2026-04-11T15:02:01.999Z</time></trkpt><trkpt lat="44.562680532403405" lon="10.864304473091064"><ele>87.0</ele><time>2026-04-11T15:02:03.999Z</time></trkpt><trkpt lat="44.56278600943453" lon="10.8644016041186"><ele>87.0</ele><time>2026-04-11T15:02:05.999Z</time></trkpt><trkpt lat="44.5628821948038" lon="10.864507490263076"><ele>87.0</ele><time>2026-04-11T15:02:07.999Z</time></trkpt><trkpt lat="44.562938831670216" lon="10.864562594204045"><ele>87.0</ele><time>2026-04-11T15:02:08.999Z</time></trkpt><trkpt lat="44.56303498637177" lon="10.864653866996866"><ele>87.0</ele><time>2026-04-11T15:02:10.999Z</time></trkpt><trkpt lat="44.56313412446858" lon="10.864747296886101"><ele>87.0</ele><time>2026-04-11T15:02:12.999Z</time></trkpt><trkpt lat="44.563233331347504" lon="10.864858543111247"><ele>87.0</ele><time>2026-04-11T15:02:14.999Z</time></trkpt><trkpt lat="44.56328577620557" lon="10.864911007734742"><ele>87.0</ele><time>2026-04-11T15:02:15.999Z</time></trkpt><trkpt lat="44.56338226440689" lon="10.865007527293516"><ele>87.0</ele><time>2026-04-11T15:02:17.999Z</time></trkpt><trkpt lat="44.56347538887892" lon="10.865112903298483"><ele>87.0</ele><time>2026-04-11T15:02:19.999Z</time></trkpt><trkpt lat="44.56353198945343" lon="10.865172521400641"><ele>87.0</ele><time>2026-04-11T15:02:20.999Z</time></trkpt><trkpt lat="44.563618557896326" lon="10.865273886708346"><ele>87.19999999999999</ele><time>2026-04-11T15:02:22.999Z</time></trkpt><trkpt lat="44.56372177030654" lon="10.865382103981984"><ele>87.4</ele><time>2026-04-11T15:02:24.999Z</time></trkpt><trkpt lat="44.56375633823409" lon="10.865507859372762"><ele>87.6</ele><time>2026-04-11T15:02:26.999Z</time></trkpt><trkpt lat="44.56369958207951" lon="10.865568384506652"><ele>87.80000000000001</ele><time>2026-04-11T15:02:27.999Z</time></trkpt><trkpt lat="44.56361659986516" lon="10.865678978967066"><ele>88.0</ele><time>2026-04-11T15:02:29.999Z</time></trkpt><trkpt lat="44.56353211528157" lon="10.865795234231511"><ele>87.60000000000001</ele><time>2026-04-11T15:02:31.999Z</time></trkpt><trkpt lat="44.56346842952358" lon="10.865928759001024"><ele>87.2</ele><time>2026-04-11T15:02:33.999Z</time></trkpt><trkpt lat="44.563427647987986" lon="10.866005367071583"><ele>86.8</ele><time>2026-04-11T15:02:34.999Z</time></trkpt><trkpt lat="44.563382017592424" lon="10.866068748452438"><ele>86.4</ele><time>2026-04-11T15:02:35.999Z</time></trkpt><trkpt lat="44.563320619485346" lon="10.866199378509442"><ele>86.0</ele><time>2026-04-11T15:02:37.999Z</time></trkpt><trkpt lat="44.56324364696756" lon="10.866335520988283"><ele>86.0</ele><time>2026-04-11T15:02:39.999Z</time></trkpt><trkpt lat="44.56320337483797" lon="10.866405113821985"><ele>86.0</ele><time>2026-04-11T15:02:40.999Z</time></trkpt><trkpt lat="44.56312796436613" lon="10.866543851282088"><ele>86.0</ele><time>2026-04-11T15:02:42.999Z</time></trkpt><trkpt lat="44.5630884954862" lon="10.86661424130034"><ele>86.0</ele><time>2026-04-11T15:02:43.999Z</time></trkpt><trkpt lat="44.563003771311486" lon="10.866745103427238"><ele>86.0</ele><time>2026-04-11T15:02:45.998Z</time></trkpt><trkpt lat="44.562959373164844" lon="10.866829494368098"><ele>85.83333333333334</ele><time>2026-04-11T15:02:46.998Z</time></trkpt><trkpt lat="44.56292114564187" lon="10.866903652929622"><ele>85.66666666666667</ele><time>2026-04-11T15:02:47.998Z</time></trkpt><trkpt lat="44.56288026474167" lon="10.86698468204042"><ele>85.5</ele><time>2026-04-11T15:02:48.998Z</time></trkpt><trkpt lat="44.562808502112695" lon="10.867126834478817"><ele>85.33333333333333</ele><time>2026-04-11T15:02:50.998Z</time></trkpt><trkpt lat="44.56277544509836" lon="10.867203038502119"><ele>85.16666666666666</ele><time>2026-04-11T15:02:51.998Z</time></trkpt><trkpt lat="44.56273511283091" lon="10.867283683895533"><ele>85.0</ele><time>2026-04-11T15:02:52.998Z</time></trkpt><trkpt lat="44.56270078711322" lon="10.86736072087817"><ele>85.0</ele><time>2026-04-11T15:02:53.998Z</time></trkpt><trkpt lat="44.562667979826735" lon="10.867449524499147"><ele>85.0</ele><time>2026-04-11T15:02:54.998Z</time></trkpt><trkpt lat="44.56260221727894" lon="10.867596084378357"><ele>85.0</ele><time>2026-04-11T15:02:57Z</time></trkpt><trkpt lat="44.562543211991986" lon="10.86774822811561"><ele>85.0</ele><time>2026-04-11T15:02:59Z</time></trkpt><trkpt lat="44.56251697554587" lon="10.867831257598104"><ele>85.0</ele><time>2026-04-11T15:03:00Z</time></trkpt><trkpt lat="44.562486920251935" lon="10.867909200351548"><ele>85.0</ele><time>2026-04-11T15:03:01Z</time></trkpt><trkpt lat="44.562418856166964" lon="10.868052276116288"><ele>85.0</ele><time>2026-04-11T15:03:03Z</time></trkpt><trkpt lat="44.5623894584053" lon="10.868138956270084"><ele>85.0</ele><time>2026-04-11T15:03:04Z</time></trkpt><trkpt lat="44.562356360443076" lon="10.868219855932338"><ele>85.0</ele><time>2026-04-11T15:03:05Z</time></trkpt><trkpt lat="44.56232517167766" lon="10.86829690537755"><ele>85.0</ele><time>2026-04-11T15:03:06Z</time></trkpt><trkpt lat="44.56229616908606" lon="10.868377893624013"><ele>85.0</ele><time>2026-04-11T15:03:07Z</time></trkpt><trkpt lat="44.56226651055882" lon="10.868458611022717"><ele>85.0</ele><time>2026-04-11T15:03:08Z</time></trkpt><trkpt lat="44.56223498209476" lon="10.868535329199066"><ele>85.0</ele><time>2026-04-11T15:03:09Z</time></trkpt><trkpt lat="44.56220875634847" lon="10.868617573434028"><ele>85.0</ele><time>2026-04-11T15:03:10Z</time></trkpt><trkpt lat="44.56215161598134" lon="10.868765418476908"><ele>85.0</ele><time>2026-04-11T15:03:12Z</time></trkpt><trkpt lat="44.56210181312562" lon="10.868922591824175"><ele>85.0</ele><time>2026-04-11T15:03:14Z</time></trkpt><trkpt lat="44.56205122507653" lon="10.869090918511132"><ele>85.0</ele><time>2026-04-11T15:03:16Z</time></trkpt><trkpt lat="44.56202365779546" lon="10.869170767532378"><ele>85.0</ele><time>2026-04-11T15:03:17Z</time></trkpt><trkpt lat="44.561977409594974" lon="10.869323903067174"><ele>85.5</ele><time>2026-04-11T15:03:19Z</time></trkpt><trkpt lat="44.56192899921427" lon="10.869486249014711"><ele>86.0</ele><time>2026-04-11T15:03:21Z</time></trkpt><trkpt lat="44.56187564225239" lon="10.869641649033293"><ele>86.5</ele><time>2026-04-11T15:03:23Z</time></trkpt><trkpt lat="44.56182853378806" lon="10.869802310742308"><ele>87.0</ele><time>2026-04-11T15:03:25Z</time></trkpt><trkpt lat="44.56178657088245" lon="10.869956656555004"><ele>87.0</ele><time>2026-04-11T15:03:27Z</time></trkpt><trkpt lat="44.56174083952009" lon="10.870104695105843"><ele>87.0</ele><time>2026-04-11T15:03:29Z</time></trkpt><trkpt lat="44.561692225614166" lon="10.870257549842457"><ele>87.0</ele><time>2026-04-11T15:03:31Z</time></trkpt><trkpt lat="44.5616459027121" lon="10.870404606242376"><ele>87.0</ele><time>2026-04-11T15:03:33Z</time></trkpt><trkpt lat="44.561598946580176" lon="10.870543227796755"><ele>87.0</ele><time>2026-04-11T15:03:35Z</time></trkpt><trkpt lat="44.561556548805626" lon="10.87068155826093"><ele>87.0</ele><time>2026-04-11T15:03:37Z</time></trkpt><trkpt lat="44.56151011819491" lon="10.870822902847095"><ele>87.0</ele><time>2026-04-11T15:03:39Z</time></trkpt><trkpt lat="44.56146432590214" lon="10.870964461410539"><ele>87.0</ele><time>2026-04-11T15:03:41Z</time></trkpt><trkpt lat="44.56141880966055" lon="10.87110214356398"><ele>87.0</ele><time>2026-04-11T15:03:42.999Z</time></trkpt><trkpt lat="44.56138192086615" lon="10.871236763605868"><ele>86.8</ele><time>2026-04-11T15:03:44.999Z</time></trkpt><trkpt lat="44.56134308752785" lon="10.871373003294668"><ele>86.6</ele><time>2026-04-11T15:03:46.999Z</time></trkpt><trkpt lat="44.56130242557273" lon="10.871502618177464"><ele>86.39999999999999</ele><time>2026-04-11T15:03:48.999Z</time></trkpt><trkpt lat="44.56126313884827" lon="10.87164010708727"><ele>86.19999999999999</ele><time>2026-04-11T15:03:50.999Z</time></trkpt><trkpt lat="44.56122338929031" lon="10.871773241329606"><ele>86.0</ele><time>2026-04-11T15:03:52.999Z</time></trkpt><trkpt lat="44.56118380880927" lon="10.8719055293881"><ele>86.4</ele><time>2026-04-11T15:03:54.999Z</time></trkpt><trkpt lat="44.56113815622369" lon="10.872041686409068"><ele>86.8</ele><time>2026-04-11T15:03:56.999Z</time></trkpt><trkpt lat="44.561094918903514" lon="10.872176681432705"><ele>87.2</ele><time>2026-04-11T15:03:58.999Z</time></trkpt><trkpt lat="44.561059888604454" lon="10.872313052648071"><ele>87.60000000000001</ele><time>2026-04-11T15:04:00.999Z</time></trkpt><trkpt lat="44.56102026330798" lon="10.872449260954065"><ele>88.0</ele><time>2026-04-11T15:04:02.999Z</time></trkpt><trkpt lat="44.56097630992132" lon="10.872578196684056"><ele>88.0</ele><time>2026-04-11T15:04:04.999Z</time></trkpt><trkpt lat="44.5609427067606" lon="10.872705614411712"><ele>88.0</ele><time>2026-04-11T15:04:06.999Z</time></trkpt><trkpt lat="44.56090535386265" lon="10.872828930834014"><ele>88.0</ele><time>2026-04-11T15:04:08.999Z</time></trkpt><trkpt lat="44.560869519567525" lon="10.872954183101458"><ele>88.0</ele><time>2026-04-11T15:04:10.999Z</time></trkpt><trkpt lat="44.56083313988715" lon="10.873079472894329"><ele>88.0</ele><time>2026-04-11T15:04:12.999Z</time></trkpt><trkpt lat="44.56079862616252" lon="10.873203493573213"><ele>88.0</ele><time>2026-04-11T15:04:14.999Z</time></trkpt><trkpt lat="44.56076075391162" lon="10.873331770607543"><ele>88.0</ele><time>2026-04-11T15:04:16.999Z</time></trkpt><trkpt lat="44.560724714668275" lon="10.873456228545374"><ele>88.0</ele><time>2026-04-11T15:04:18.999Z</time></trkpt><trkpt lat="44.560691904560365" lon="10.873587983636117"><ele>88.0</ele><time>2026-04-11T15:04:20.999Z</time></trkpt><trkpt lat="44.56065780636418" lon="10.87372690624958"><ele>88.0</ele><time>2026-04-11T15:04:22.999Z</time></trkpt><trkpt lat="44.56062734481277" lon="10.873859953971946"><ele>87.80000000000001</ele><time>2026-04-11T15:04:24.999Z</time></trkpt><trkpt lat="44.56059636346889" lon="10.87399851821833"><ele>87.6</ele><time>2026-04-11T15:04:26.999Z</time></trkpt><trkpt lat="44.56056333297136" lon="10.874138509840614"><ele>87.4</ele><time>2026-04-11T15:04:28.999Z</time></trkpt><trkpt lat="44.56053633160306" lon="10.874278699054935"><ele>87.19999999999999</ele><time>2026-04-11T15:04:30.999Z</time></trkpt><trkpt lat="44.56050598677034" lon="10.874418523159981"><ele>87.0</ele><time>2026-04-11T15:04:32.999Z</time></trkpt><trkpt lat="44.56047358512898" lon="10.87455170204114"><ele>87.0</ele><time>2026-04-11T15:04:34.999Z</time></trkpt><trkpt lat="44.560448083383754" lon="10.874680276244316"><ele>87.0</ele><time>2026-04-11T15:04:36.999Z</time></trkpt><trkpt lat="44.560414211479866" lon="10.87482163271005"><ele>87.0</ele><time>2026-04-11T15:04:38.999Z</time></trkpt><trkpt lat="44.56038392142952" lon="10.874955432089294"><ele>87.0</ele><time>2026-04-11T15:04:40.999Z</time></trkpt><trkpt lat="44.560352893351315" lon="10.875098788813295"><ele>87.0</ele><time>2026-04-11T15:04:42.999Z</time></trkpt><trkpt lat="44.56031443660375" lon="10.875254103604117"><ele>87.0</ele><time>2026-04-11T15:04:44.999Z</time></trkpt><trkpt lat="44.56027616848163" lon="10.875424864591247"><ele>87.0</ele><time>2026-04-11T15:04:46.999Z</time></trkpt><trkpt lat="44.56023552535595" lon="10.875583987195514"><ele>87.0</ele><time>2026-04-11T15:04:48.999Z</time></trkpt><trkpt lat="44.56020050561284" lon="10.875739967223707"><ele>87.0</ele><time>2026-04-11T15:04:50.999Z</time></trkpt><trkpt lat="44.56016284020775" lon="10.875895191527897"><ele>86.5</ele><time>2026-04-11T15:04:52.999Z</time></trkpt><trkpt lat="44.56012502360704" lon="10.876045416837735"><ele>86.0</ele><time>2026-04-11T15:04:54.998Z</time></trkpt><trkpt lat="44.56009470358343" lon="10.876198320013659"><ele>85.5</ele><time>2026-04-11T15:04:56.998Z</time></trkpt><trkpt lat="44.56006072413519" lon="10.876350798420514"><ele>85.0</ele><time>2026-04-11T15:04:58.998Z</time></trkpt><trkpt lat="44.56002463328466" lon="10.876506541515027"><ele>85.0</ele><time>2026-04-11T15:05:00.998Z</time></trkpt><trkpt lat="44.55999047239194" lon="10.876665242477172"><ele>85.0</ele><time>2026-04-11T15:05:03Z</time></trkpt><trkpt lat="44.559952144639475" lon="10.87682846480222"><ele>85.0</ele><time>2026-04-11T15:05:05Z</time></trkpt><trkpt lat="44.559918409889605" lon="10.876983569487878"><ele>85.0</ele><time>2026-04-11T15:05:07Z</time></trkpt><trkpt lat="44.559886499993056" lon="10.877134233304474"><ele>85.0</ele><time>2026-04-11T15:05:09Z</time></trkpt><trkpt lat="44.55984802596708" lon="10.877294464658151"><ele>85.0</ele><time>2026-04-11T15:05:11Z</time></trkpt><trkpt lat="44.559808543876436" lon="10.877453480324386"><ele>85.0</ele><time>2026-04-11T15:05:13Z</time></trkpt><trkpt lat="44.5597882752482" lon="10.877537954484556"><ele>85.0</ele><time>2026-04-11T15:05:14Z</time></trkpt><trkpt lat="44.5597733605972" lon="10.877625630861187"><ele>85.0</ele><time>2026-04-11T15:05:15Z</time></trkpt><trkpt lat="44.55975291956946" lon="10.877713093561866"><ele>85.0</ele><time>2026-04-11T15:05:16Z</time></trkpt><trkpt lat="44.55972422286179" lon="10.877861211272716"><ele>85.0</ele><time>2026-04-11T15:05:18Z</time></trkpt><trkpt lat="44.55968784961018" lon="10.878007177456174"><ele>85.0</ele><time>2026-04-11T15:05:20Z</time></trkpt><trkpt lat="44.559656197761136" lon="10.8781544853726"><ele>85.0</ele><time>2026-04-11T15:05:22Z</time></trkpt><trkpt lat="44.5596367833406" lon="10.878243456406494"><ele>85.0</ele><time>2026-04-11T15:05:23Z</time></trkpt><trkpt lat="44.55960105562435" lon="10.878389694144259"><ele>85.0</ele><time>2026-04-11T15:05:25Z</time></trkpt><trkpt lat="44.55956786813211" lon="10.878543474714114"><ele>85.0</ele><time>2026-04-11T15:05:27Z</time></trkpt><trkpt lat="44.55954080677359" lon="10.878676704549019"><ele>85.0</ele><time>2026-04-11T15:05:29Z</time></trkpt><trkpt lat="44.55949655182716" lon="10.878838892406579"><ele>85.0</ele><time>2026-04-11T15:05:31Z</time></trkpt><trkpt lat="44.559464533257206" lon="10.87900320858549"><ele>85.0</ele><time>2026-04-11T15:05:33Z</time></trkpt><trkpt lat="44.559428059276534" lon="10.879153973562584"><ele>85.25</ele><time>2026-04-11T15:05:35Z</time></trkpt><trkpt lat="44.55939125430175" lon="10.879308348039858"><ele>85.5</ele><time>2026-04-11T15:05:37Z</time></trkpt><trkpt lat="44.559357727532706" lon="10.879458043477145"><ele>85.75</ele><time>2026-04-11T15:05:39Z</time></trkpt><trkpt lat="44.559324047668376" lon="10.879616056067926"><ele>86.0</ele><time>2026-04-11T15:05:41Z</time></trkpt><trkpt lat="44.559286446828175" lon="10.879765981914733"><ele>86.0</ele><time>2026-04-11T15:05:43Z</time></trkpt><trkpt lat="44.5592558176228" lon="10.879927028889616"><ele>86.0</ele><time>2026-04-11T15:05:45Z</time></trkpt><trkpt lat="44.559221071133884" lon="10.880083812344964"><ele>86.0</ele><time>2026-04-11T15:05:47Z</time></trkpt><trkpt lat="44.559202580757905" lon="10.880169870638655"><ele>86.0</ele><time>2026-04-11T15:05:47.999Z</time></trkpt><trkpt lat="44.55916590135191" lon="10.880337210272852"><ele>86.0</ele><time>2026-04-11T15:05:49.999Z</time></trkpt><trkpt lat="44.5591464337994" lon="10.88042212991022"><ele>86.19999999999999</ele><time>2026-04-11T15:05:50.999Z</time></trkpt><trkpt lat="44.559109050417334" lon="10.880600648240726"><ele>86.39999999999999</ele><time>2026-04-11T15:05:52.999Z</time></trkpt><trkpt lat="44.55907773078296" lon="10.880681050949281"><ele>86.6</ele><time>2026-04-11T15:05:53.999Z</time></trkpt><trkpt lat="44.55905662622156" lon="10.880768191453205"><ele>86.8</ele><time>2026-04-11T15:05:54.999Z</time></trkpt><trkpt lat="44.55903452775876" lon="10.880857549902972"><ele>87.0</ele><time>2026-04-11T15:05:55.999Z</time></trkpt><trkpt lat="44.55896097537962" lon="10.880999267608074"><ele>87.0</ele><time>2026-04-11T15:05:57.999Z</time></trkpt><trkpt lat="44.558895574190956" lon="10.881026580942281"><ele>87.0</ele><time>2026-04-11T15:05:58.999Z</time></trkpt><trkpt lat="44.558832569870326" lon="10.881016377041414"><ele>87.0</ele><time>2026-04-11T15:05:59.999Z</time></trkpt><trkpt lat="44.558769159533796" lon="10.881021692661987"><ele>87.0</ele><time>2026-04-11T15:06:00.999Z</time></trkpt><trkpt lat="44.558652916252555" lon="10.881008804574897"><ele>87.0</ele><time>2026-04-11T15:06:02.999Z</time></trkpt><trkpt lat="44.55853324926766" lon="10.881008783743956"><ele>87.0</ele><time>2026-04-11T15:06:04.999Z</time></trkpt><trkpt lat="44.55841355902835" lon="10.881012277763991"><ele>87.25</ele><time>2026-04-11T15:06:06.999Z</time></trkpt><trkpt lat="44.558291834037526" lon="10.881019865029012"><ele>87.5</ele><time>2026-04-11T15:06:08.999Z</time></trkpt><trkpt lat="44.55817295964435" lon="10.881014661145214"><ele>87.75</ele><time>2026-04-11T15:06:10.999Z</time></trkpt><trkpt lat="44.55805691322271" lon="10.881014320178302"><ele>88.0</ele><time>2026-04-11T15:06:12.999Z</time></trkpt><trkpt lat="44.557932186588076" lon="10.881019734605262"><ele>88.4</ele><time>2026-04-11T15:06:14.999Z</time></trkpt><trkpt lat="44.55783600642703" lon="10.881019199159175"><ele>88.80000000000001</ele><time>2026-04-11T15:06:16.999Z</time></trkpt><trkpt lat="44.55773300929321" lon="10.881012388846107"><ele>89.2</ele><time>2026-04-11T15:06:18.999Z</time></trkpt><trkpt lat="44.557666988832075" lon="10.881021304646405"><ele>89.6</ele><time>2026-04-11T15:06:19.999Z</time></trkpt><trkpt lat="44.557557208723495" lon="10.881012134308362"><ele>90.0</ele><time>2026-04-11T15:06:21.999Z</time></trkpt><trkpt lat="44.5574528633227" lon="10.881011693975632"><ele>90.0</ele><time>2026-04-11T15:06:23.999Z</time></trkpt><trkpt lat="44.55735269778253" lon="10.88101679767971"><ele>90.0</ele><time>2026-04-11T15:06:25.999Z</time></trkpt><trkpt lat="44.557239561420175" lon="10.881014724724237"><ele>90.0</ele><time>2026-04-11T15:06:28.999Z</time></trkpt><trkpt lat="44.55716546558544" lon="10.881014476302903"><ele>90.0</ele><time>2026-04-11T15:06:29.999Z</time></trkpt><trkpt lat="44.55707484928559" lon="10.881021137330869"><ele>90.0</ele><time>2026-04-11T15:06:31.999Z</time></trkpt><trkpt lat="44.55698182458712" lon="10.88101842604429"><ele>89.8</ele><time>2026-04-11T15:06:33.999Z</time></trkpt><trkpt lat="44.55688554121646" lon="10.881008521258543"><ele>89.6</ele><time>2026-04-11T15:06:35.999Z</time></trkpt><trkpt lat="44.556795957661194" lon="10.881010116096398"><ele>89.4</ele><time>2026-04-11T15:06:37.999Z</time></trkpt><trkpt lat="44.55669977395931" lon="10.881011582196134"><ele>89.2</ele><time>2026-04-11T15:06:39.999Z</time></trkpt><trkpt lat="44.55660910213407" lon="10.881009923366637"><ele>89.0</ele><time>2026-04-11T15:06:41.999Z</time></trkpt><trkpt lat="44.55651626192761" lon="10.881003465723945"><ele>89.0</ele><time>2026-04-11T15:06:43.999Z</time></trkpt><trkpt lat="44.5564223511079" lon="10.881003988740627"><ele>89.0</ele><time>2026-04-11T15:06:45.999Z</time></trkpt><trkpt lat="44.556334823643624" lon="10.881002484693251"><ele>89.0</ele><time>2026-04-11T15:06:47.999Z</time></trkpt><trkpt lat="44.55625261716034" lon="10.881015859790498"><ele>89.0</ele><time>2026-04-11T15:06:49.999Z</time></trkpt><trkpt lat="44.55616070025614" lon="10.881055618129118"><ele>89.0</ele><time>2026-04-11T15:06:51.999Z</time></trkpt><trkpt lat="44.55608046118458" lon="10.881102583624163"><ele>89.0</ele><time>2026-04-11T15:06:53.999Z</time></trkpt><trkpt lat="44.555996310355084" lon="10.881166872761899"><ele>89.33333333333334</ele><time>2026-04-11T15:06:55.999Z</time></trkpt><trkpt lat="44.555927798346836" lon="10.8812453323815"><ele>89.66666666666667</ele><time>2026-04-11T15:06:57.999Z</time></trkpt><trkpt lat="44.55585734433742" lon="10.881316452737934"><ele>90.0</ele><time>2026-04-11T15:06:59.998Z</time></trkpt><trkpt lat="44.555788193417406" lon="10.881392000023125"><ele>90.33333333333333</ele><time>2026-04-11T15:07:01.998Z</time></trkpt><trkpt lat="44.5557193256972" lon="10.881465084283702"><ele>90.66666666666666</ele><time>2026-04-11T15:07:03.998Z</time></trkpt><trkpt lat="44.55564731260125" lon="10.881544983501422"><ele>91.0</ele><time>2026-04-11T15:07:05.998Z</time></trkpt><trkpt lat="44.555581859738055" lon="10.88161410682847"><ele>91.0</ele><time>2026-04-11T15:07:08Z</time></trkpt><trkpt lat="44.55551388437016" lon="10.8816928519713"><ele>91.0</ele><time>2026-04-11T15:07:10Z</time></trkpt><trkpt lat="44.55544368094065" lon="10.88176714322557"><ele>91.0</ele><time>2026-04-11T15:07:12Z</time></trkpt><trkpt lat="44.5553798589256" lon="10.881843631826705"><ele>91.0</ele><time>2026-04-11T15:07:14Z</time></trkpt><trkpt lat="44.55531278844207" lon="10.881917457501105"><ele>91.0</ele><time>2026-04-11T15:07:16Z</time></trkpt><trkpt lat="44.555245262485" lon="10.881991335456433"><ele>91.0</ele><time>2026-04-11T15:07:18Z</time></trkpt><trkpt lat="44.55518318456013" lon="10.882058582855484"><ele>91.5</ele><time>2026-04-11T15:07:20Z</time></trkpt><trkpt lat="44.55511982283403" lon="10.882129274576222"><ele>92.0</ele><time>2026-04-11T15:07:22Z</time></trkpt><trkpt lat="44.55506141699666" lon="10.882189088779146"><ele>92.5</ele><time>2026-04-11T15:07:24Z</time></trkpt><trkpt lat="44.55500560404606" lon="10.882273010945692"><ele>93.0</ele><time>2026-04-11T15:07:26Z</time></trkpt><trkpt lat="44.55494641474459" lon="10.882337346773364"><ele>93.5</ele><time>2026-04-11T15:07:28Z</time></trkpt><trkpt lat="44.554884282151455" lon="10.882400661650061"><ele>94.0</ele><time>2026-04-11T15:07:30Z</time></trkpt><trkpt lat="44.55482936191008" lon="10.882465205191277"><ele>94.0</ele><time>2026-04-11T15:07:32Z</time></trkpt><trkpt lat="44.554779590294025" lon="10.882529876319873"><ele>94.0</ele><time>2026-04-11T15:07:34Z</time></trkpt><trkpt lat="44.55473145363757" lon="10.882588232984972"><ele>94.0</ele><time>2026-04-11T15:07:36Z</time></trkpt><trkpt lat="44.5546740334219" lon="10.882651594713362"><ele>94.0</ele><time>2026-04-11T15:07:38Z</time></trkpt><trkpt lat="44.554617757631746" lon="10.882723329940607"><ele>94.0</ele><time>2026-04-11T15:07:40Z</time></trkpt><trkpt lat="44.55455983435521" lon="10.882800756706919"><ele>94.0</ele><time>2026-04-11T15:07:42Z</time></trkpt><trkpt lat="44.554498491284626" lon="10.882872455219198"><ele>94.0</ele><time>2026-04-11T15:07:44Z</time></trkpt><trkpt lat="44.554438110696374" lon="10.882953554410816"><ele>93.80000000000001</ele><time>2026-04-11T15:07:46Z</time></trkpt><trkpt lat="44.55437654052469" lon="10.883036298833371"><ele>93.60000000000001</ele><time>2026-04-11T15:07:48Z</time></trkpt><trkpt lat="44.55430852706485" lon="10.8831272739842"><ele>93.4</ele><time>2026-04-11T15:07:50Z</time></trkpt><trkpt lat="44.55424203834242" lon="10.883215654354819"><ele>93.2</ele><time>2026-04-11T15:07:52Z</time></trkpt><trkpt lat="44.55417938407947" lon="10.883302058017685"><ele>93.0</ele><time>2026-04-11T15:07:53.999Z</time></trkpt><trkpt lat="44.55411429227583" lon="10.883392540169979"><ele>93.2</ele><time>2026-04-11T15:07:55.999Z</time></trkpt><trkpt lat="44.55404476236469" lon="10.883491512815281"><ele>93.4</ele><time>2026-04-11T15:07:57.999Z</time></trkpt><trkpt lat="44.55396802810176" lon="10.883601402148813"><ele>93.60000000000001</ele><time>2026-04-11T15:07:59.999Z</time></trkpt><trkpt lat="44.553893295014326" lon="10.883712032778549"><ele>93.80000000000001</ele><time>2026-04-11T15:08:01.999Z</time></trkpt><trkpt lat="44.553821646051425" lon="10.883822425708022"><ele>94.0</ele><time>2026-04-11T15:08:03.999Z</time></trkpt><trkpt lat="44.553751633668114" lon="10.883938634751042"><ele>94.25</ele><time>2026-04-11T15:08:05.999Z</time></trkpt><trkpt lat="44.55367685194493" lon="10.884052107829806"><ele>94.5</ele><time>2026-04-11T15:08:07.999Z</time></trkpt><trkpt lat="44.553608742906405" lon="10.884175418616136"><ele>94.75</ele><time>2026-04-11T15:08:09.999Z</time></trkpt><trkpt lat="44.55354282954784" lon="10.884310698788244"><ele>95.0</ele><time>2026-04-11T15:08:11.999Z</time></trkpt><trkpt lat="44.55348993387782" lon="10.884453757152162"><ele>95.0</ele><time>2026-04-11T15:08:13.999Z</time></trkpt><trkpt lat="44.55343690591041" lon="10.884600297229055"><ele>95.0</ele><time>2026-04-11T15:08:15.999Z</time></trkpt><trkpt lat="44.553411675300644" lon="10.884683996663089"><ele>95.0</ele><time>2026-04-11T15:08:16.999Z</time></trkpt><trkpt lat="44.55336186354286" lon="10.884837902715685"><ele>95.0</ele><time>2026-04-11T15:08:18.999Z</time></trkpt><trkpt lat="44.55333446418201" lon="10.884917884242329"><ele>95.0</ele><time>2026-04-11T15:08:19.999Z</time></trkpt><trkpt lat="44.55330767865306" lon="10.884998736568837"><ele>95.0</ele><time>2026-04-11T15:08:20.999Z</time></trkpt><trkpt lat="44.55326079919516" lon="10.885163675606753"><ele>94.8</ele><time>2026-04-11T15:08:22.999Z</time></trkpt><trkpt lat="44.553215298651565" lon="10.88532283646561"><ele>94.6</ele><time>2026-04-11T15:08:24.999Z</time></trkpt><trkpt lat="44.553193571527004" lon="10.885407811749847"><ele>94.4</ele><time>2026-04-11T15:08:25.999Z</time></trkpt><trkpt lat="44.55314774639325" lon="10.885567091119428"><ele>94.2</ele><time>2026-04-11T15:08:27.999Z</time></trkpt><trkpt lat="44.55312370367305" lon="10.88565308007682"><ele>94.0</ele><time>2026-04-11T15:08:28.999Z</time></trkpt><trkpt lat="44.55307827662689" lon="10.885813883385222"><ele>93.6</ele><time>2026-04-11T15:08:30.999Z</time></trkpt><trkpt lat="44.55303341867078" lon="10.885976511952723"><ele>93.2</ele><time>2026-04-11T15:08:32.999Z</time></trkpt><trkpt lat="44.55299069656434" lon="10.886144488056814"><ele>92.8</ele><time>2026-04-11T15:08:34.999Z</time></trkpt><trkpt lat="44.552951196246674" lon="10.886311912795499"><ele>92.39999999999999</ele><time>2026-04-11T15:08:36.999Z</time></trkpt><trkpt lat="44.55292749868836" lon="10.8863983850249"><ele>92.0</ele><time>2026-04-11T15:08:37.999Z</time></trkpt><trkpt lat="44.55290418125778" lon="10.886488143268542"><ele>92.16666666666667</ele><time>2026-04-11T15:08:38.999Z</time></trkpt><trkpt lat="44.552864733699316" lon="10.886651660377789"><ele>92.33333333333334</ele><time>2026-04-11T15:08:40.999Z</time></trkpt><trkpt lat="44.55285114449632" lon="10.886739554686"><ele>92.5</ele><time>2026-04-11T15:08:41.999Z</time></trkpt><trkpt lat="44.552812910476305" lon="10.88690998471398"><ele>92.66666666666667</ele><time>2026-04-11T15:08:43.999Z</time></trkpt><trkpt lat="44.55279484637638" lon="10.886996047160117"><ele>92.83333333333333</ele><time>2026-04-11T15:08:44.999Z</time></trkpt><trkpt lat="44.55277759170582" lon="10.88708498774986"><ele>93.0</ele><time>2026-04-11T15:08:45.999Z</time></trkpt><trkpt lat="44.55275889137863" lon="10.88716995481855"><ele>92.66666666666667</ele><time>2026-04-11T15:08:46.999Z</time></trkpt><trkpt lat="44.55274639214535" lon="10.88725678791006"><ele>92.33333333333333</ele><time>2026-04-11T15:08:47.999Z</time></trkpt><trkpt lat="44.55273590583776" lon="10.887352057237393"><ele>92.0</ele><time>2026-04-11T15:08:48.999Z</time></trkpt><trkpt lat="44.55272042660634" lon="10.887441857891227"><ele>91.66666666666666</ele><time>2026-04-11T15:08:49.999Z</time></trkpt><trkpt lat="44.552704829894815" lon="10.887530373761116"><ele>91.33333333333333</ele><time>2026-04-11T15:08:50.999Z</time></trkpt><trkpt lat="44.552673757978866" lon="10.887704254509812"><ele>91.0</ele><time>2026-04-11T15:08:52.999Z</time></trkpt><trkpt lat="44.55265090731352" lon="10.88787752560637"><ele>91.0</ele><time>2026-04-11T15:08:54.999Z</time></trkpt><trkpt lat="44.552625485103725" lon="10.888053221033163"><ele>91.0</ele><time>2026-04-11T15:08:56.999Z</time></trkpt><trkpt lat="44.55260074723847" lon="10.888218748749138"><ele>91.0</ele><time>2026-04-11T15:08:58.999Z</time></trkpt><trkpt lat="44.55257379309784" lon="10.88838653480926"><ele>91.0</ele><time>2026-04-11T15:09:00.999Z</time></trkpt><trkpt lat="44.55254591195055" lon="10.888548033475738"><ele>90.8</ele><time>2026-04-11T15:09:02.999Z</time></trkpt><trkpt lat="44.55252189634567" lon="10.888630944530549"><ele>90.6</ele><time>2026-04-11T15:09:03.999Z</time></trkpt><trkpt lat="44.55243462640585" lon="10.88875924111681"><ele>90.4</ele><time>2026-04-11T15:09:05.999Z</time></trkpt><trkpt lat="44.55232822352658" lon="10.888863695572095"><ele>90.2</ele><time>2026-04-11T15:09:07.999Z</time></trkpt><trkpt lat="44.552289422018305" lon="10.88893976865139"><ele>90.0</ele><time>2026-04-11T15:09:08.998Z</time></trkpt><trkpt lat="44.552267269453786" lon="10.889030897693956"><ele>90.0</ele><time>2026-04-11T15:09:09.998Z</time></trkpt><trkpt lat="44.55226805436542" lon="10.889134466381421"><ele>90.0</ele><time>2026-04-11T15:09:10.998Z</time></trkpt><trkpt lat="44.55230184034679" lon="10.889236991240807"><ele>90.0</ele><time>2026-04-11T15:09:11.998Z</time></trkpt><trkpt lat="44.55232010548064" lon="10.889331455799491"><ele>90.0</ele><time>2026-04-11T15:09:12.998Z</time></trkpt><trkpt lat="44.55234521374007" lon="10.889434475690106"><ele>90.0</ele><time>2026-04-11T15:09:14Z</time></trkpt><trkpt lat="44.5523670743164" lon="10.889530237988744"><ele>90.0</ele><time>2026-04-11T15:09:15Z</time></trkpt><trkpt lat="44.552376599710584" lon="10.889634240349809"><ele>90.0</ele><time>2026-04-11T15:09:16Z</time></trkpt><trkpt lat="44.552367594754806" lon="10.889725611578696"><ele>90.0</ele><time>2026-04-11T15:09:17Z</time></trkpt><trkpt lat="44.552350372508734" lon="10.889831333942489"><ele>90.0</ele><time>2026-04-11T15:09:18Z</time></trkpt><trkpt lat="44.552336192576846" lon="10.889924927882394"><ele>90.0</ele><time>2026-04-11T15:09:19Z</time></trkpt><trkpt lat="44.55232172182996" lon="10.890018551093057"><ele>90.0</ele><time>2026-04-11T15:09:20Z</time></trkpt><trkpt lat="44.55230708201848" lon="10.890115688618375"><ele>90.0</ele><time>2026-04-11T15:09:21Z</time></trkpt><trkpt lat="44.55229125100036" lon="10.890208706473787"><ele>90.0</ele><time>2026-04-11T15:09:22Z</time></trkpt><trkpt lat="44.55227688175002" lon="10.890299986526337"><ele>90.0</ele><time>2026-04-11T15:09:23Z</time></trkpt><trkpt lat="44.552262670933025" lon="10.890392561552721"><ele>90.2</ele><time>2026-04-11T15:09:24Z</time></trkpt><trkpt lat="44.55224900617663" lon="10.89048429934595"><ele>90.4</ele><time>2026-04-11T15:09:25Z</time></trkpt><trkpt lat="44.552233556795485" lon="10.890576071096241"><ele>90.6</ele><time>2026-04-11T15:09:26Z</time></trkpt><trkpt lat="44.55221853495207" lon="10.890665239892513"><ele>90.8</ele><time>2026-04-11T15:09:27Z</time></trkpt><trkpt lat="44.55218997504705" lon="10.890839424491864"><ele>91.0</ele><time>2026-04-11T15:09:29Z</time></trkpt><trkpt lat="44.55215282063118" lon="10.891007346337416"><ele>91.0</ele><time>2026-04-11T15:09:31Z</time></trkpt><trkpt lat="44.55212566364873" lon="10.891169747459541"><ele>91.0</ele><time>2026-04-11T15:09:33Z</time></trkpt><trkpt lat="44.55208938018051" lon="10.891332487773834"><ele>91.0</ele><time>2026-04-11T15:09:35Z</time></trkpt><trkpt lat="44.55205967586793" lon="10.891502808738421"><ele>91.0</ele><time>2026-04-11T15:09:37Z</time></trkpt><trkpt lat="44.55202634085508" lon="10.891666618536656"><ele>91.5</ele><time>2026-04-11T15:09:39Z</time></trkpt><trkpt lat="44.55199484571287" lon="10.891829033439722"><ele>92.0</ele><time>2026-04-11T15:09:41Z</time></trkpt><trkpt lat="44.55196127634027" lon="10.891978897700888"><ele>92.5</ele><time>2026-04-11T15:09:43Z</time></trkpt><trkpt lat="44.55193286947802" lon="10.892135696675991"><ele>93.0</ele><time>2026-04-11T15:09:45Z</time></trkpt><trkpt lat="44.55190276462677" lon="10.89229323807131"><ele>93.0</ele><time>2026-04-11T15:09:47Z</time></trkpt><trkpt lat="44.55186953898449" lon="10.892445969536617"><ele>93.0</ele><time>2026-04-11T15:09:49Z</time></trkpt><trkpt lat="44.551837929876584" lon="10.892603034762434"><ele>93.0</ele><time>2026-04-11T15:09:51Z</time></trkpt><trkpt lat="44.55180999684827" lon="10.892765978686468"><ele>93.0</ele><time>2026-04-11T15:09:53Z</time></trkpt><trkpt lat="44.55178586026308" lon="10.892920326866427"><ele>93.0</ele><time>2026-04-11T15:09:55Z</time></trkpt><trkpt lat="44.55176082827551" lon="10.893067497633318"><ele>93.0</ele><time>2026-04-11T15:09:57Z</time></trkpt><trkpt lat="44.55172898208627" lon="10.893226683119732"><ele>93.0</ele><time>2026-04-11T15:09:59Z</time></trkpt><trkpt lat="44.55170867515924" lon="10.893391942445131"><ele>93.0</ele><time>2026-04-11T15:10:01Z</time></trkpt><trkpt lat="44.55167909256543" lon="10.893556403972706"><ele>93.0</ele><time>2026-04-11T15:10:03Z</time></trkpt><trkpt lat="44.55165754427675" lon="10.893721886843407"><ele>93.0</ele><time>2026-04-11T15:10:04.999Z</time></trkpt><trkpt lat="44.55162968333282" lon="10.893883120179199"><ele>93.0</ele><time>2026-04-11T15:10:06.999Z</time></trkpt><trkpt lat="44.55161363000544" lon="10.893970353716872"><ele>93.0</ele><time>2026-04-11T15:10:07.999Z</time></trkpt><trkpt lat="44.551581532878096" lon="10.894130558724996"><ele>93.0</ele><time>2026-04-11T15:10:09.999Z</time></trkpt><trkpt lat="44.55157045588562" lon="10.894220940234128"><ele>93.00000000000001</ele><time>2026-04-11T15:10:10.999Z</time></trkpt><trkpt lat="44.551555934686036" lon="10.894307427956434"><ele>93.0</ele><time>2026-04-11T15:10:11.999Z</time></trkpt><trkpt lat="44.55154077845582" lon="10.894395150431183"><ele>93.0</ele><time>2026-04-11T15:10:12.999Z</time></trkpt><trkpt lat="44.551524386271325" lon="10.894481386842948"><ele>93.0</ele><time>2026-04-11T15:10:13.999Z</time></trkpt><trkpt lat="44.551510123793165" lon="10.894570506864284"><ele>93.0</ele><time>2026-04-11T15:10:14.999Z</time></trkpt><trkpt lat="44.55149546182192" lon="10.894657001034421"><ele>93.00000000000001</ele><time>2026-04-11T15:10:15.999Z</time></trkpt><trkpt lat="44.55147651742672" lon="10.894749265305512"><ele>93.0</ele><time>2026-04-11T15:10:16.999Z</time></trkpt><trkpt lat="44.551461154366" lon="10.89483755298164"><ele>93.0</ele><time>2026-04-11T15:10:17.999Z</time></trkpt><trkpt lat="44.55144296618378" lon="10.89492829516858"><ele>93.0</ele><time>2026-04-11T15:10:18.999Z</time></trkpt><trkpt lat="44.55142940042886" lon="10.895019036888694"><ele>93.0</ele><time>2026-04-11T15:10:19.999Z</time></trkpt><trkpt lat="44.55140856465561" lon="10.895107143804951"><ele>93.0</ele><time>2026-04-11T15:10:20.999Z</time></trkpt><trkpt lat="44.55138446583777" lon="10.895195015661061"><ele>93.0</ele><time>2026-04-11T15:10:21.999Z</time></trkpt><trkpt lat="44.55136321658169" lon="10.895280651353207"><ele>93.0</ele><time>2026-04-11T15:10:22.999Z</time></trkpt><trkpt lat="44.55133181632297" lon="10.895453179044997"><ele>93.0</ele><time>2026-04-11T15:10:24.999Z</time></trkpt><trkpt lat="44.55131289155419" lon="10.895539309673177"><ele>93.0</ele><time>2026-04-11T15:10:25.999Z</time></trkpt><trkpt lat="44.5512654947506" lon="10.895691384141639"><ele>93.0</ele><time>2026-04-11T15:10:27.999Z</time></trkpt><trkpt lat="44.55124316894232" lon="10.895774758556776"><ele>93.0</ele><time>2026-04-11T15:10:28.999Z</time></trkpt><trkpt lat="44.55119192099842" lon="10.895935985424906"><ele>93.0</ele><time>2026-04-11T15:10:30.999Z</time></trkpt><trkpt lat="44.55116762856915" lon="10.89602023359819"><ele>93.0</ele><time>2026-04-11T15:10:31.999Z</time></trkpt><trkpt lat="44.55111205098713" lon="10.896173476462002"><ele>93.0</ele><time>2026-04-11T15:10:33.999Z</time></trkpt><trkpt lat="44.551060943834955" lon="10.896327252224962"><ele>93.0</ele><time>2026-04-11T15:10:35.999Z</time></trkpt><trkpt lat="44.55100972778477" lon="10.896481342503055"><ele>93.0</ele><time>2026-04-11T15:10:37.999Z</time></trkpt><trkpt lat="44.55095866078465" lon="10.896634300565589"><ele>93.0</ele><time>2026-04-11T15:10:39.999Z</time></trkpt><trkpt lat="44.55090292598419" lon="10.896786837761336"><ele>92.75</ele><time>2026-04-11T15:10:41.999Z</time></trkpt><trkpt lat="44.55085291451141" lon="10.89694189242513"><ele>92.5</ele><time>2026-04-11T15:10:43.999Z</time></trkpt><trkpt lat="44.5508029464473" lon="10.897087218185998"><ele>92.25</ele><time>2026-04-11T15:10:45.999Z</time></trkpt><trkpt lat="44.55075403229761" lon="10.89724125811492"><ele>92.0</ele><time>2026-04-11T15:10:47.999Z</time></trkpt><trkpt lat="44.55070616766631" lon="10.897386820276747"><ele>92.0</ele><time>2026-04-11T15:10:49.999Z</time></trkpt><trkpt lat="44.55065166323967" lon="10.897533384740926"><ele>92.0</ele><time>2026-04-11T15:10:51.999Z</time></trkpt><trkpt lat="44.55060838114419" lon="10.89768023358436"><ele>92.0</ele><time>2026-04-11T15:10:53.999Z</time></trkpt><trkpt lat="44.55055762085078" lon="10.89782622361571"><ele>92.0</ele><time>2026-04-11T15:10:55.999Z</time></trkpt><trkpt lat="44.550510849622334" lon="10.897971125903382"><ele>91.8</ele><time>2026-04-11T15:10:57.999Z</time></trkpt><trkpt lat="44.55046681377003" lon="10.898114853456564"><ele>91.6</ele><time>2026-04-11T15:10:59.999Z</time></trkpt><trkpt lat="44.55041555307956" lon="10.8982492552536"><ele>91.39999999999999</ele><time>2026-04-11T15:11:01.999Z</time></trkpt><trkpt lat="44.5503893432697" lon="10.898397908165329"><ele>91.19999999999999</ele><time>2026-04-11T15:11:03.999Z</time></trkpt><trkpt lat="44.55036209156181" lon="10.898546862636445"><ele>91.0</ele><time>2026-04-11T15:11:05.999Z</time></trkpt><trkpt lat="44.55029876197155" lon="10.898675254932527"><ele>91.6</ele><time>2026-04-11T15:11:07.999Z</time></trkpt><trkpt lat="44.55022537392693" lon="10.898803351524162"><ele>92.19999999999999</ele><time>2026-04-11T15:11:09.999Z</time></trkpt><trkpt lat="44.550193032176495" lon="10.898958670179605"><ele>92.80000000000001</ele><time>2026-04-11T15:11:11.999Z</time></trkpt><trkpt lat="44.550212309556244" lon="10.899112985496894"><ele>93.4</ele><time>2026-04-11T15:11:13.999Z</time></trkpt><trkpt lat="44.550141530409846" lon="10.899192106948199"><ele>94.0</ele><time>2026-04-11T15:11:14.999Z</time></trkpt><trkpt lat="44.550083037116465" lon="10.899336749985993"><ele>94.0</ele><time>2026-04-11T15:11:16.999Z</time></trkpt><trkpt lat="44.55001227384302" lon="10.899465563844645"><ele>94.0</ele><time>2026-04-11T15:11:18.999Z</time></trkpt><trkpt lat="44.549959784025354" lon="10.89961479813782"><ele>94.0</ele><time>2026-04-11T15:11:21Z</time></trkpt><trkpt lat="44.54990846485345" lon="10.899768410504155"><ele>94.0</ele><time>2026-04-11T15:11:23Z</time></trkpt><trkpt lat="44.5498524399406" lon="10.899912852693014"><ele>94.0</ele><time>2026-04-11T15:11:25Z</time></trkpt><trkpt lat="44.54980857019201" lon="10.900066136895395"><ele>94.0</ele><time>2026-04-11T15:11:27Z</time></trkpt><trkpt lat="44.549756792453614" lon="10.900212921574674"><ele>94.0</ele><time>2026-04-11T15:11:29Z</time></trkpt><trkpt lat="44.54971153141743" lon="10.900362094170209"><ele>94.0</ele><time>2026-04-11T15:11:31Z</time></trkpt><trkpt lat="44.549659036373036" lon="10.900517176364314"><ele>94.0</ele><time>2026-04-11T15:11:33Z</time></trkpt><trkpt lat="44.54961544432844" lon="10.9006674466477"><ele>94.0</ele><time>2026-04-11T15:11:35Z</time></trkpt><trkpt lat="44.54956909417125" lon="10.900815444774452"><ele>94.0</ele><time>2026-04-11T15:11:37Z</time></trkpt><trkpt lat="44.54951868849735" lon="10.90096410898715"><ele>94.0</ele><time>2026-04-11T15:11:39Z</time></trkpt><trkpt lat="44.549471038351456" lon="10.901103019150135"><ele>94.16666666666666</ele><time>2026-04-11T15:11:41Z</time></trkpt><trkpt lat="44.54942722272146" lon="10.901226023588094"><ele>94.33333333333333</ele><time>2026-04-11T15:11:43Z</time></trkpt><trkpt lat="44.54940508191895" lon="10.90131835024538"><ele>94.5</ele><time>2026-04-11T15:11:45Z</time></trkpt><trkpt lat="44.54935237921349" lon="10.901403713864566"><ele>94.66666666666667</ele><time>2026-04-11T15:11:47Z</time></trkpt><trkpt lat="44.549281885771435" lon="10.901482576787878"><ele>94.83333333333334</ele><time>2026-04-11T15:11:49Z</time></trkpt><trkpt lat="44.549237619645005" lon="10.90161001196039"><ele>95.0</ele><time>2026-04-11T15:11:51Z</time></trkpt><trkpt lat="44.54925062546967" lon="10.901761627261363"><ele>95.0</ele><time>2026-04-11T15:11:53Z</time></trkpt><trkpt lat="44.54927794961086" lon="10.901920212162453"><ele>95.0</ele><time>2026-04-11T15:11:55Z</time></trkpt><trkpt lat="44.54921111694107" lon="10.902054132834772"><ele>95.0</ele><time>2026-04-11T15:11:57Z</time></trkpt><trkpt lat="44.54917727226827" lon="10.902142109142092"><ele>95.0</ele><time>2026-04-11T15:11:58Z</time></trkpt><trkpt lat="44.54910730707238" lon="10.902276137804922"><ele>95.0</ele><time>2026-04-11T15:12:00Z</time></trkpt><trkpt lat="44.5490750413432" lon="10.902358912601837"><ele>95.0</ele><time>2026-04-11T15:12:01Z</time></trkpt><trkpt lat="44.54904115634696" lon="10.902438525258848"><ele>95.0</ele><time>2026-04-11T15:12:02Z</time></trkpt><trkpt lat="44.54900912007255" lon="10.902520975165999"><ele>95.0</ele><time>2026-04-11T15:12:03Z</time></trkpt><trkpt lat="44.548937513721135" lon="10.902686181426832"><ele>95.0</ele><time>2026-04-11T15:12:05Z</time></trkpt><trkpt lat="44.54890694848221" lon="10.902768974585605"><ele>95.0</ele><time>2026-04-11T15:12:06Z</time></trkpt><trkpt lat="44.54887008276113" lon="10.90285642999294"><ele>95.0</ele><time>2026-04-11T15:12:07Z</time></trkpt><trkpt lat="44.54884177493565" lon="10.902944680450116"><ele>94.8</ele><time>2026-04-11T15:12:08Z</time></trkpt><trkpt lat="44.54879135495707" lon="10.903104803088752"><ele>94.6</ele><time>2026-04-11T15:12:09.999Z</time></trkpt><trkpt lat="44.54876025687617" lon="10.9031907522564"><ele>94.4</ele><time>2026-04-11T15:12:10.999Z</time></trkpt><trkpt lat="44.548697185279075" lon="10.903329666231462"><ele>94.2</ele><time>2026-04-11T15:12:12.999Z</time></trkpt><trkpt lat="44.548661607316056" lon="10.90348992963536"><ele>94.0</ele><time>2026-04-11T15:12:14.999Z</time></trkpt><trkpt lat="44.54860955108393" lon="10.903637471166057"><ele>93.80000000000001</ele><time>2026-04-11T15:12:16.999Z</time></trkpt><trkpt lat="44.54857226031028" lon="10.903798969745472"><ele>93.60000000000001</ele><time>2026-04-11T15:12:18.999Z</time></trkpt><trkpt lat="44.548520550345195" lon="10.903931840315414"><ele>93.4</ele><time>2026-04-11T15:12:20.999Z</time></trkpt><trkpt lat="44.548476044325696" lon="10.904069588687285"><ele>93.2</ele><time>2026-04-11T15:12:22.999Z</time></trkpt><trkpt lat="44.54839627935737" lon="10.904151270822794"><ele>93.0</ele><time>2026-04-11T15:12:24.999Z</time></trkpt><trkpt lat="44.54835247641771" lon="10.90427450154308"><ele>93.0</ele><time>2026-04-11T15:12:26.999Z</time></trkpt><trkpt lat="44.548322774832755" lon="10.904398994373441"><ele>93.0</ele><time>2026-04-11T15:12:28.999Z</time></trkpt><trkpt lat="44.54828248247526" lon="10.904518333717999"><ele>93.0</ele><time>2026-04-11T15:12:30.999Z</time></trkpt><trkpt lat="44.54824527237211" lon="10.904647861594082"><ele>93.0</ele><time>2026-04-11T15:12:32.999Z</time></trkpt><trkpt lat="44.54820425597767" lon="10.904762994347337"><ele>93.0</ele><time>2026-04-11T15:12:34.999Z</time></trkpt><trkpt lat="44.54818269593709" lon="10.904856283664014"><ele>93.0</ele><time>2026-04-11T15:12:35.999Z</time></trkpt><trkpt lat="44.54814127180919" lon="10.904978212468631"><ele>92.60000000000001</ele><time>2026-04-11T15:12:37.999Z</time></trkpt><trkpt lat="44.54809733915927" lon="10.905100629009738"><ele>92.2</ele><time>2026-04-11T15:12:39.999Z</time></trkpt><trkpt lat="44.54805922412649" lon="10.905225492508533"><ele>91.8</ele><time>2026-04-11T15:12:41.999Z</time></trkpt><trkpt lat="44.54801958081003" lon="10.905337098519006"><ele>91.4</ele><time>2026-04-11T15:12:43.999Z</time></trkpt><trkpt lat="44.547975415105604" lon="10.905462964215056"><ele>91.0</ele><time>2026-04-11T15:12:45.999Z</time></trkpt><trkpt lat="44.54793784680605" lon="10.905576002226967"><ele>91.0</ele><time>2026-04-11T15:12:47.999Z</time></trkpt><trkpt lat="44.547890544164" lon="10.9056380082078"><ele>91.0</ele><time>2026-04-11T15:12:49.999Z</time></trkpt><trkpt lat="44.547866241635305" lon="10.905733477843496"><ele>91.0</ele><time>2026-04-11T15:12:51.999Z</time></trkpt><trkpt lat="44.547827774315515" lon="10.905854444385819"><ele>91.0</ele><time>2026-04-11T15:12:53.999Z</time></trkpt><trkpt lat="44.54780051397822" lon="10.905940168825417"><ele>91.0</ele><time>2026-04-11T15:12:55.999Z</time></trkpt><trkpt lat="44.547786926635816" lon="10.906057407689872"><ele>91.0</ele><time>2026-04-11T15:12:57.999Z</time></trkpt><trkpt lat="44.54773533658935" lon="10.906187849865384"><ele>90.8</ele><time>2026-04-11T15:12:59.999Z</time></trkpt><trkpt lat="44.54770155545749" lon="10.906293931061768"><ele>90.6</ele><time>2026-04-11T15:13:01.999Z</time></trkpt><trkpt lat="44.547659528036434" lon="10.906438536210842"><ele>90.4</ele><time>2026-04-11T15:13:03.999Z</time></trkpt><trkpt lat="44.547631178419145" lon="10.906560344238414"><ele>90.2</ele><time>2026-04-11T15:13:05.999Z</time></trkpt><trkpt lat="44.54759042446861" lon="10.906682259972523"><ele>90.0</ele><time>2026-04-11T15:13:07.999Z</time></trkpt><trkpt lat="44.54754954873063" lon="10.906813758465569"><ele>90.6</ele><time>2026-04-11T15:13:09.999Z</time></trkpt><trkpt lat="44.547512050727235" lon="10.906950010073963"><ele>91.2</ele><time>2026-04-11T15:13:11.999Z</time></trkpt><trkpt lat="44.54747404967145" lon="10.90706265129622"><ele>91.80000000000001</ele><time>2026-04-11T15:13:13.999Z</time></trkpt><trkpt lat="44.547429723803766" lon="10.907202217949855"><ele>92.4</ele><time>2026-04-11T15:13:15.999Z</time></trkpt><trkpt lat="44.54739949177919" lon="10.907323162047186"><ele>93.0</ele><time>2026-04-11T15:13:17.999Z</time></trkpt><trkpt lat="44.54735856358678" lon="10.907441531075833"><ele>93.4</ele><time>2026-04-11T15:13:19.999Z</time></trkpt><trkpt lat="44.5473108711721" lon="10.90758207298099"><ele>93.80000000000001</ele><time>2026-04-11T15:13:21.999Z</time></trkpt><trkpt lat="44.54726462189322" lon="10.907721104160888"><ele>94.2</ele><time>2026-04-11T15:13:23.999Z</time></trkpt><trkpt lat="44.54722677470922" lon="10.907839796105337"><ele>94.6</ele><time>2026-04-11T15:13:26Z</time></trkpt><trkpt lat="44.547197463825825" lon="10.907970526473848"><ele>95.0</ele><time>2026-04-11T15:13:28Z</time></trkpt><trkpt lat="44.54715063164834" lon="10.908096988488646"><ele>95.0</ele><time>2026-04-11T15:13:30Z</time></trkpt><trkpt lat="44.54710262786433" lon="10.908211382517147"><ele>95.0</ele><time>2026-04-11T15:13:32Z</time></trkpt><trkpt lat="44.54705812984621" lon="10.908352216826374"><ele>95.0</ele><time>2026-04-11T15:13:34Z</time></trkpt><trkpt lat="44.54701046235973" lon="10.908484148982726"><ele>95.0</ele><time>2026-04-11T15:13:36Z</time></trkpt><trkpt lat="44.54696881865592" lon="10.908627268203476"><ele>95.0</ele><time>2026-04-11T15:13:38Z</time></trkpt><trkpt lat="44.54693072898311" lon="10.90876117408157"><ele>95.2</ele><time>2026-04-11T15:13:40Z</time></trkpt><trkpt lat="44.54687907753997" lon="10.908888472434581"><ele>95.4</ele><time>2026-04-11T15:13:42Z</time></trkpt><trkpt lat="44.54683991481914" lon="10.909027818437515"><ele>95.6</ele><time>2026-04-11T15:13:44Z</time></trkpt><trkpt lat="44.546796935786524" lon="10.909192008248779"><ele>95.8</ele><time>2026-04-11T15:13:46Z</time></trkpt><trkpt lat="44.54676078402044" lon="10.909271280853028"><ele>96.0</ele><time>2026-04-11T15:13:47Z</time></trkpt><trkpt lat="44.546716628583596" lon="10.909407575964583"><ele>96.0</ele><time>2026-04-11T15:13:49Z</time></trkpt><trkpt lat="44.54667187379187" lon="10.909558986478622"><ele>96.0</ele><time>2026-04-11T15:13:51Z</time></trkpt><trkpt lat="44.54664353553564" lon="10.909661136382889"><ele>96.0</ele><time>2026-04-11T15:13:53Z</time></trkpt><trkpt lat="44.54659060715111" lon="10.90981583430228"><ele>96.0</ele><time>2026-04-11T15:13:55Z</time></trkpt><trkpt lat="44.54654297373937" lon="10.909987459549304"><ele>96.0</ele><time>2026-04-11T15:13:57Z</time></trkpt><trkpt lat="44.54649701899909" lon="10.910112795149741"><ele>96.0</ele><time>2026-04-11T15:13:59Z</time></trkpt><trkpt lat="44.54646282913777" lon="10.910247659857907"><ele>96.0</ele><time>2026-04-11T15:14:01Z</time></trkpt><trkpt lat="44.546427280161254" lon="10.910390135762814"><ele>96.0</ele><time>2026-04-11T15:14:03Z</time></trkpt><trkpt lat="44.546371884744616" lon="10.91051741255007"><ele>96.0</ele><time>2026-04-11T15:14:05Z</time></trkpt><trkpt lat="44.5463256951971" lon="10.910597321905758"><ele>96.0</ele><time>2026-04-11T15:14:07Z</time></trkpt><trkpt lat="44.54619515628173" lon="10.91050184529121"><ele>95.4</ele><time>2026-04-11T15:14:09Z</time></trkpt><trkpt lat="44.54613559833057" lon="10.910407509884744"><ele>94.8</ele><time>2026-04-11T15:14:11Z</time></trkpt><trkpt lat="44.54605412050171" lon="10.910352942859227"><ele>94.2</ele><time>2026-04-11T15:14:13Z</time></trkpt><trkpt lat="44.54595871579194" lon="10.91037598053935"><ele>93.60000000000001</ele><time>2026-04-11T15:14:15Z</time></trkpt><trkpt lat="44.54591221421652" lon="10.910518070578364"><ele>93.0</ele><time>2026-04-11T15:14:17Z</time></trkpt><trkpt lat="44.54587128902141" lon="10.910640408178827"><ele>93.0</ele><time>2026-04-11T15:14:18.999Z</time></trkpt><trkpt lat="44.54581544667825" lon="10.910771684737231"><ele>93.0</ele><time>2026-04-11T15:14:20.999Z</time></trkpt><trkpt lat="44.545758518468745" lon="10.910909250522002"><ele>93.0</ele><time>2026-04-11T15:14:22.999Z</time></trkpt><trkpt lat="44.5457279482519" lon="10.911055651207452"><ele>93.0</ele><time>2026-04-11T15:14:24.999Z</time></trkpt><trkpt lat="44.545791857807885" lon="10.911186828419545"><ele>93.0</ele><time>2026-04-11T15:14:26.999Z</time></trkpt><trkpt lat="44.54585125989506" lon="10.911223853085287"><ele>92.2</ele><time>2026-04-11T15:14:27.999Z</time></trkpt><trkpt lat="44.54594637543346" lon="10.91130610500475"><ele>91.4</ele><time>2026-04-11T15:14:29.999Z</time></trkpt><trkpt lat="44.545979618333824" lon="10.911383652764076"><ele>90.60000000000001</ele><time>2026-04-11T15:14:30.999Z</time></trkpt><trkpt lat="44.54596008125845" lon="10.911549102801425"><ele>89.80000000000001</ele><time>2026-04-11T15:14:32.999Z</time></trkpt><trkpt lat="44.545965101277034" lon="10.911646326694653"><ele>89.0</ele><time>2026-04-11T15:14:33.999Z</time></trkpt><trkpt lat="44.545911847238266" lon="10.911792420410048"><ele>88.80000000000001</ele><time>2026-04-11T15:14:35.999Z</time></trkpt><trkpt lat="44.545859047155254" lon="10.911937181684236"><ele>88.60000000000001</ele><time>2026-04-11T15:14:37.999Z</time></trkpt><trkpt lat="44.54580518439518" lon="10.912085526874725"><ele>88.4</ele><time>2026-04-11T15:14:39.999Z</time></trkpt><trkpt lat="44.54575198386839" lon="10.912232488492512"><ele>88.2</ele><time>2026-04-11T15:14:41.999Z</time></trkpt><trkpt lat="44.54572099488256" lon="10.912319283515872"><ele>88.0</ele><time>2026-04-11T15:14:42.999Z</time></trkpt><trkpt lat="44.545692021462145" lon="10.912400916499541"><ele>88.0</ele><time>2026-04-11T15:14:43.999Z</time></trkpt><trkpt lat="44.545635215514395" lon="10.912560968357468"><ele>88.0</ele><time>2026-04-11T15:14:45.999Z</time></trkpt><trkpt lat="44.54558156215423" lon="10.912710233007253"><ele>88.0</ele><time>2026-04-11T15:14:47.999Z</time></trkpt><trkpt lat="44.54552845121695" lon="10.912857192250355"><ele>88.0</ele><time>2026-04-11T15:14:49.999Z</time></trkpt><trkpt lat="44.54547854525755" lon="10.912996039971093"><ele>88.25</ele><time>2026-04-11T15:14:51.999Z</time></trkpt><trkpt lat="44.54543621209626" lon="10.91311381803962"><ele>88.5</ele><time>2026-04-11T15:14:53.999Z</time></trkpt><trkpt lat="44.545275237315856" lon="10.913022806894043"><ele>88.75</ele><time>2026-04-11T15:14:55.999Z</time></trkpt><trkpt lat="44.54520778034104" lon="10.91293181382778"><ele>89.0</ele><time>2026-04-11T15:14:57.999Z</time></trkpt><trkpt lat="44.54513221451195" lon="10.912857121573621"><ele>89.0</ele><time>2026-04-11T15:14:59.999Z</time></trkpt><trkpt lat="44.54503593776741" lon="10.912790514374777"><ele>89.0</ele><time>2026-04-11T15:15:01.999Z</time></trkpt><trkpt lat="44.54494562400066" lon="10.91270544106297"><ele>89.0</ele><time>2026-04-11T15:15:03.999Z</time></trkpt><trkpt lat="44.54485494112809" lon="10.912619388132761"><ele>89.0</ele><time>2026-04-11T15:15:05.999Z</time></trkpt><trkpt lat="44.54477107952972" lon="10.91253019126948"><ele>89.0</ele><time>2026-04-11T15:15:07.999Z</time></trkpt><trkpt lat="44.544678295602104" lon="10.91245385739079"><ele>89.25</ele><time>2026-04-11T15:15:09.999Z</time></trkpt><trkpt lat="44.54459351070778" lon="10.912357504426149"><ele>89.5</ele><time>2026-04-11T15:15:11.999Z</time></trkpt><trkpt lat="44.54449723765682" lon="10.912277250934498"><ele>89.75</ele><time>2026-04-11T15:15:13.999Z</time></trkpt><trkpt lat="44.544398140067266" lon="10.912197346048567"><ele>90.0</ele><time>2026-04-11T15:15:15.999Z</time></trkpt><trkpt lat="44.544276077010345" lon="10.912142227929579"><ele>90.0</ele><time>2026-04-11T15:15:17.999Z</time></trkpt><trkpt lat="44.544160393189905" lon="10.912121608161069"><ele>90.0</ele><time>2026-04-11T15:15:19.999Z</time></trkpt><trkpt lat="44.544043850261" lon="10.912081920833591"><ele>90.0</ele><time>2026-04-11T15:15:21.999Z</time></trkpt><trkpt lat="44.54393310099316" lon="10.912041585532496"><ele>90.0</ele><time>2026-04-11T15:15:23.999Z</time></trkpt><trkpt lat="44.543877582987314" lon="10.911998523426174"><ele>90.0</ele><time>2026-04-11T15:15:24.999Z</time></trkpt><trkpt lat="44.54378429658991" lon="10.911923900367217"><ele>90.25</ele><time>2026-04-11T15:15:26.999Z</time></trkpt><trkpt lat="44.54368478976309" lon="10.911846372501238"><ele>90.5</ele><time>2026-04-11T15:15:28.999Z</time></trkpt><trkpt lat="44.54358405353755" lon="10.911757966157944"><ele>90.75</ele><time>2026-04-11T15:15:30.999Z</time></trkpt><trkpt lat="44.54349351239511" lon="10.911671865223886"><ele>91.0</ele><time>2026-04-11T15:15:33Z</time></trkpt><trkpt lat="44.54339616759172" lon="10.911596455901883"><ele>91.0</ele><time>2026-04-11T15:15:35Z</time></trkpt><trkpt lat="44.54330207496272" lon="10.911517439108543"><ele>91.0</ele><time>2026-04-11T15:15:37Z</time></trkpt><trkpt lat="44.54321331965377" lon="10.911435148328685"><ele>91.0</ele><time>2026-04-11T15:15:39Z</time></trkpt><trkpt lat="44.54312042098896" lon="10.911349781427814"><ele>91.0</ele><time>2026-04-11T15:15:41Z</time></trkpt><trkpt lat="44.54303683454287" lon="10.911263880358307"><ele>91.0</ele><time>2026-04-11T15:15:43Z</time></trkpt><trkpt lat="44.54295876202822" lon="10.911159086480183"><ele>91.19999999999999</ele><time>2026-04-11T15:15:45Z</time></trkpt><trkpt lat="44.54287038525336" lon="10.911058384883422"><ele>91.39999999999999</ele><time>2026-04-11T15:15:47Z</time></trkpt><trkpt lat="44.542796645282685" lon="10.910950095274579"><ele>91.6</ele><time>2026-04-11T15:15:49Z</time></trkpt><trkpt lat="44.542729384137814" lon="10.910832812263402"><ele>91.8</ele><time>2026-04-11T15:15:51Z</time></trkpt><trkpt lat="44.54266308230327" lon="10.91071294785167"><ele>92.0</ele><time>2026-04-11T15:15:53Z</time></trkpt><trkpt lat="44.54260165641771" lon="10.91058804312452"><ele>92.0</ele><time>2026-04-11T15:15:55Z</time></trkpt><trkpt lat="44.54250641804957" lon="10.910508978805042"><ele>92.0</ele><time>2026-04-11T15:15:57Z</time></trkpt><trkpt lat="44.54244482908117" lon="10.910385845024388"><ele>92.0</ele><time>2026-04-11T15:15:59Z</time></trkpt><trkpt lat="44.54239659045396" lon="10.910252062540764"><ele>92.0</ele><time>2026-04-11T15:16:01Z</time></trkpt><trkpt lat="44.542332177157036" lon="10.910134373583604"><ele>92.0</ele><time>2026-04-11T15:16:03Z</time></trkpt><trkpt lat="44.54226207160103" lon="10.910036195744258"><ele>92.6</ele><time>2026-04-11T15:16:05Z</time></trkpt><trkpt lat="44.54217941596344" lon="10.90993957849874"><ele>93.19999999999999</ele><time>2026-04-11T15:16:07Z</time></trkpt><trkpt lat="44.542095712064096" lon="10.909866000987899"><ele>93.8</ele><time>2026-04-11T15:16:09Z</time></trkpt><trkpt lat="44.54201502632073" lon="10.90979192882055"><ele>94.4</ele><time>2026-04-11T15:16:11Z</time></trkpt><trkpt lat="44.541951028922995" lon="10.909737840154532"><ele>95.0</ele><time>2026-04-11T15:16:13Z</time></trkpt><trkpt lat="44.54189910503553" lon="10.909660743035477"><ele>95.16666666666667</ele><time>2026-04-11T15:16:15Z</time></trkpt><trkpt lat="44.541867557592454" lon="10.909582656991827"><ele>95.33333333333334</ele><time>2026-04-11T15:16:17Z</time></trkpt><trkpt lat="44.54185735285361" lon="10.909489319553654"><ele>95.5</ele><time>2026-04-11T15:16:19Z</time></trkpt><trkpt lat="44.54181612856093" lon="10.909404102602794"><ele>95.66666666666667</ele><time>2026-04-11T15:16:21Z</time></trkpt><trkpt lat="44.541735767716496" lon="10.909363454409814"><ele>95.83333333333333</ele><time>2026-04-11T15:16:23Z</time></trkpt><trkpt lat="44.54166282946509" lon="10.909326284436682"><ele>96.0</ele><time>2026-04-11T15:16:25Z</time></trkpt><trkpt lat="44.541586553422206" lon="10.90924369032127"><ele>96.0</ele><time>2026-04-11T15:16:26.999Z</time></trkpt><trkpt lat="44.541514162165264" lon="10.909161909755051"><ele>96.0</ele><time>2026-04-11T15:16:28.999Z</time></trkpt><trkpt lat="44.5414402194833" lon="10.90907372038365"><ele>96.0</ele><time>2026-04-11T15:16:30.999Z</time></trkpt><trkpt lat="44.54137936431139" lon="10.90901131313711"><ele>96.0</ele><time>2026-04-11T15:16:32.999Z</time></trkpt><trkpt lat="44.5413062330747" lon="10.908903416696157"><ele>96.0</ele><time>2026-04-11T15:16:34.999Z</time></trkpt><trkpt lat="44.54122412650705" lon="10.908797214052615"><ele>96.33333333333333</ele><time>2026-04-11T15:16:36.999Z</time></trkpt><trkpt lat="44.541167104042955" lon="10.908750090629203"><ele>96.66666666666666</ele><time>2026-04-11T15:16:37.999Z</time></trkpt><trkpt lat="44.5411197114507" lon="10.90868125868435"><ele>97.0</ele><time>2026-04-11T15:16:38.999Z</time></trkpt><trkpt lat="44.541035111021294" lon="10.908598673564557"><ele>97.33333333333333</ele><time>2026-04-11T15:16:40.999Z</time></trkpt><trkpt lat="44.54095110536151" lon="10.908515101618724"><ele>97.66666666666666</ele><time>2026-04-11T15:16:42.999Z</time></trkpt><trkpt lat="44.540899337941454" lon="10.908413173107968"><ele>98.0</ele><time>2026-04-11T15:16:45.999Z</time></trkpt><trkpt lat="44.540811451815756" lon="10.908377788447686"><ele>98.0</ele><time>2026-04-11T15:16:47.999Z</time></trkpt><trkpt lat="44.540710053679845" lon="10.908327497757325"><ele>98.0</ele><time>2026-04-11T15:16:49.999Z</time></trkpt><trkpt lat="44.540632797948916" lon="10.908231891593106"><ele>98.0</ele><time>2026-04-11T15:16:51.999Z</time></trkpt><trkpt lat="44.54057231755964" lon="10.908129785114026"><ele>98.0</ele><time>2026-04-11T15:16:53.999Z</time></trkpt><trkpt lat="44.54049953820389" lon="10.908049067607644"><ele>98.0</ele><time>2026-04-11T15:16:55.999Z</time></trkpt><trkpt lat="44.54043226645461" lon="10.907964523816414"><ele>98.4</ele><time>2026-04-11T15:16:57.999Z</time></trkpt><trkpt lat="44.54036579129922" lon="10.907866352587346"><ele>98.80000000000001</ele><time>2026-04-11T15:16:59.999Z</time></trkpt><trkpt lat="44.54028926130688" lon="10.907777717258858"><ele>99.2</ele><time>2026-04-11T15:17:01.999Z</time></trkpt><trkpt lat="44.54021880558808" lon="10.907680939963779"><ele>99.6</ele><time>2026-04-11T15:17:03.999Z</time></trkpt><trkpt lat="44.54014676546819" lon="10.907594636117395"><ele>100.0</ele><time>2026-04-11T15:17:05.999Z</time></trkpt><trkpt lat="44.54008004957805" lon="10.907511593433673"><ele>100.00000000000001</ele><time>2026-04-11T15:17:07.999Z</time></trkpt><trkpt lat="44.5400216412593" lon="10.907425964147102"><ele>100.0</ele><time>2026-04-11T15:17:09.999Z</time></trkpt><trkpt lat="44.539963381278454" lon="10.907352127984236"><ele>100.0</ele><time>2026-04-11T15:17:11.999Z</time></trkpt><trkpt lat="44.5398979491735" lon="10.907286650873539"><ele>100.0</ele><time>2026-04-11T15:17:13.999Z</time></trkpt><trkpt lat="44.53982261653014" lon="10.907193548086696"><ele>100.00000000000001</ele><time>2026-04-11T15:17:15.999Z</time></trkpt><trkpt lat="44.53974677424797" lon="10.907110734504801"><ele>100.0</ele><time>2026-04-11T15:17:17.999Z</time></trkpt><trkpt lat="44.53967740487423" lon="10.90703182424238"><ele>100.0</ele><time>2026-04-11T15:17:19.999Z</time></trkpt><trkpt lat="44.539606354252186" lon="10.906935755302767"><ele>100.0</ele><time>2026-04-11T15:17:21.999Z</time></trkpt><trkpt lat="44.53952777370853" lon="10.906856217349075"><ele>100.0</ele><time>2026-04-11T15:17:23.999Z</time></trkpt><trkpt lat="44.539456607500846" lon="10.906761421165415"><ele>100.0</ele><time>2026-04-11T15:17:25.999Z</time></trkpt><trkpt lat="44.539389783673556" lon="10.90666270296977"><ele>100.0</ele><time>2026-04-11T15:17:27.999Z</time></trkpt><trkpt lat="44.53931411659896" lon="10.90657141263775"><ele>100.00000000000001</ele><time>2026-04-11T15:17:29.999Z</time></trkpt><trkpt lat="44.53924544605759" lon="10.906475012880517"><ele>100.0</ele><time>2026-04-11T15:17:31.999Z</time></trkpt><trkpt lat="44.53920972509211" lon="10.906355682821292"><ele>100.0</ele><time>2026-04-11T15:17:33.999Z</time></trkpt><trkpt lat="44.5391533109835" lon="10.906258708346309"><ele>100.0</ele><time>2026-04-11T15:17:35.999Z</time></trkpt><trkpt lat="44.539083447767716" lon="10.906186637108531"><ele>100.00000000000001</ele><time>2026-04-11T15:17:38Z</time></trkpt><trkpt lat="44.53902934094071" lon="10.906119738792718"><ele>100.0</ele><time>2026-04-11T15:17:40Z</time></trkpt><trkpt lat="44.53897535122254" lon="10.906044961108934"><ele>100.00000000000001</ele><time>2026-04-11T15:17:42Z</time></trkpt><trkpt lat="44.53892733204035" lon="10.90596900872602"><ele>100.0</ele><time>2026-04-11T15:17:44Z</time></trkpt><trkpt lat="44.53885722288288" lon="10.905900400582178"><ele>100.0</ele><time>2026-04-11T15:17:47Z</time></trkpt><trkpt lat="44.53878389044287" lon="10.90587265057203"><ele>100.0</ele><time>2026-04-11T15:17:51Z</time></trkpt><trkpt lat="44.53868443256" lon="10.905854333828517"><ele>100.00000000000001</ele><time>2026-04-11T15:17:55Z</time></trkpt><trkpt lat="44.53859212507213" lon="10.905789321748486"><ele>100.0</ele><time>2026-04-11T15:17:57Z</time></trkpt><trkpt lat="44.53852561859512" lon="10.905704580590795"><ele>99.8</ele><time>2026-04-11T15:17:59Z</time></trkpt><trkpt lat="44.538449242862015" lon="10.90560924520048"><ele>99.6</ele><time>2026-04-11T15:18:01Z</time></trkpt><trkpt lat="44.53838465607194" lon="10.90552509178021"><ele>99.4</ele><time>2026-04-11T15:18:03Z</time></trkpt><trkpt lat="44.53830791754945" lon="10.905467314823317"><ele>99.2</ele><time>2026-04-11T15:18:05Z</time></trkpt><trkpt lat="44.53823756498335" lon="10.905378986342393"><ele>99.0</ele><time>2026-04-11T15:18:07Z</time></trkpt><trkpt lat="44.5381638262951" lon="10.905313405660154"><ele>99.0</ele><time>2026-04-11T15:18:09Z</time></trkpt><trkpt lat="44.53810436049547" lon="10.905243470719377"><ele>99.0</ele><time>2026-04-11T15:18:11Z</time></trkpt><trkpt lat="44.53801859178449" lon="10.905241753546635"><ele>99.0</ele><time>2026-04-11T15:18:13Z</time></trkpt><trkpt lat="44.537934795801185" lon="10.905219477410915"><ele>99.0</ele><time>2026-04-11T15:18:15Z</time></trkpt><trkpt lat="44.53785441088981" lon="10.905141079473816"><ele>99.0</ele><time>2026-04-11T15:18:17Z</time></trkpt><trkpt lat="44.5377580029491" lon="10.905069381708836"><ele>99.4</ele><time>2026-04-11T15:18:19Z</time></trkpt><trkpt lat="44.53766248846268" lon="10.90500300452"><ele>99.80000000000001</ele><time>2026-04-11T15:18:21Z</time></trkpt><trkpt lat="44.53757058379793" lon="10.904906317338414"><ele>100.19999999999999</ele><time>2026-04-11T15:18:23Z</time></trkpt><trkpt lat="44.53748690483711" lon="10.904824550578681"><ele>100.6</ele><time>2026-04-11T15:18:25Z</time></trkpt><trkpt lat="44.53740947839243" lon="10.904734823560826"><ele>101.0</ele><time>2026-04-11T15:18:27Z</time></trkpt><trkpt lat="44.53733166411417" lon="10.904664366313696"><ele>100.99999999999999</ele><time>2026-04-11T15:18:29Z</time></trkpt><trkpt lat="44.537266602784115" lon="10.904591906939869"><ele>101.0</ele><time>2026-04-11T15:18:31Z</time></trkpt><trkpt lat="44.537198839951266" lon="10.90456345697635"><ele>101.0</ele><time>2026-04-11T15:18:33Z</time></trkpt><trkpt lat="44.53713205477627" lon="10.904524402834925"><ele>101.0</ele><time>2026-04-11T15:18:34.999Z</time></trkpt><trkpt lat="44.537046969344765" lon="10.904508122826444"><ele>100.99999999999999</ele><time>2026-04-11T15:18:36.999Z</time></trkpt><trkpt lat="44.53696938256336" lon="10.904472131514686"><ele>101.0</ele><time>2026-04-11T15:18:38.999Z</time></trkpt><trkpt lat="44.536896807020156" lon="10.904386479879006"><ele>100.83333333333333</ele><time>2026-04-11T15:18:40.999Z</time></trkpt><trkpt lat="44.53684989837834" lon="10.904301839387486"><ele>100.66666666666666</ele><time>2026-04-11T15:18:42.999Z</time></trkpt><trkpt lat="44.536787509779955" lon="10.904269125588844"><ele>100.5</ele><time>2026-04-11T15:18:44.999Z</time></trkpt><trkpt lat="44.53673878345448" lon="10.904208310230759"><ele>100.33333333333334</ele><time>2026-04-11T15:18:45.999Z</time></trkpt><trkpt lat="44.53666046356221" lon="10.904115441171342"><ele>100.16666666666667</ele><time>2026-04-11T15:18:47.999Z</time></trkpt><trkpt lat="44.53657907610835" lon="10.904037671382213"><ele>100.0</ele><time>2026-04-11T15:18:49.999Z</time></trkpt><trkpt lat="44.53648527525581" lon="10.904001189535277"><ele>100.0</ele><time>2026-04-11T15:18:51.999Z</time></trkpt><trkpt lat="44.536386025945056" lon="10.90395398011806"><ele>100.0</ele><time>2026-04-11T15:18:53.999Z</time></trkpt><trkpt lat="44.53630215753993" lon="10.903862680312686"><ele>100.0</ele><time>2026-04-11T15:18:55.999Z</time></trkpt><trkpt lat="44.53621738050396" lon="10.903765906601206"><ele>100.0</ele><time>2026-04-11T15:18:57.999Z</time></trkpt><trkpt lat="44.53614639294672" lon="10.903660837871918"><ele>100.0</ele><time>2026-04-11T15:18:59.999Z</time></trkpt><trkpt lat="44.53606530570118" lon="10.903583872627602"><ele>100.6</ele><time>2026-04-11T15:19:01.999Z</time></trkpt><trkpt lat="44.53598150602078" lon="10.903567761972214"><ele>101.2</ele><time>2026-04-11T15:19:03.999Z</time></trkpt><trkpt lat="44.53589226167352" lon="10.903500853899075"><ele>101.80000000000001</ele><time>2026-04-11T15:19:05.999Z</time></trkpt><trkpt lat="44.53580817999573" lon="10.903453322649792"><ele>102.4</ele><time>2026-04-11T15:19:07.999Z</time></trkpt><trkpt lat="44.53575095428044" lon="10.903368235628138"><ele>103.0</ele><time>2026-04-11T15:19:09.999Z</time></trkpt><trkpt lat="44.53568259850395" lon="10.903282320527783"><ele>103.00000000000001</ele><time>2026-04-11T15:19:11.999Z</time></trkpt><trkpt lat="44.53561784063665" lon="10.903207507462636"><ele>103.0</ele><time>2026-04-11T15:19:13.999Z</time></trkpt><trkpt lat="44.53553574881638" lon="10.90312130786827"><ele>103.0</ele><time>2026-04-11T15:19:15.999Z</time></trkpt><trkpt lat="44.53546593344352" lon="10.90306620235675"><ele>103.0</ele><time>2026-04-11T15:19:17.999Z</time></trkpt><trkpt lat="44.535394183633166" lon="10.902996367300254"><ele>103.00000000000001</ele><time>2026-04-11T15:19:19.999Z</time></trkpt><trkpt lat="44.53532575343676" lon="10.90294209491917"><ele>103.0</ele><time>2026-04-11T15:19:21.999Z</time></trkpt><trkpt lat="44.535250687566325" lon="10.902856802253552"><ele>103.2</ele><time>2026-04-11T15:19:23.999Z</time></trkpt><trkpt lat="44.53517251325414" lon="10.902765134758718"><ele>103.4</ele><time>2026-04-11T15:19:25.999Z</time></trkpt><trkpt lat="44.53509896483527" lon="10.90266809810313"><ele>103.60000000000001</ele><time>2026-04-11T15:19:27.999Z</time></trkpt><trkpt lat="44.53500735478717" lon="10.902611984454273"><ele>103.80000000000001</ele><time>2026-04-11T15:19:29.999Z</time></trkpt><trkpt lat="44.53492556606155" lon="10.902535102051731"><ele>104.0</ele><time>2026-04-11T15:19:31.999Z</time></trkpt><trkpt lat="44.53483764342654" lon="10.902508021887124"><ele>104.2</ele><time>2026-04-11T15:19:33.999Z</time></trkpt><trkpt lat="44.53475456234401" lon="10.902469832103979"><ele>104.4</ele><time>2026-04-11T15:19:35.999Z</time></trkpt><trkpt lat="44.53466361601737" lon="10.90243030328418"><ele>104.6</ele><time>2026-04-11T15:19:37.999Z</time></trkpt><trkpt lat="44.534576131965956" lon="10.90237513871306"><ele>104.8</ele><time>2026-04-11T15:19:39.999Z</time></trkpt><trkpt lat="44.53449368786818" lon="10.902318687593764"><ele>105.0</ele><time>2026-04-11T15:19:41.999Z</time></trkpt><trkpt lat="44.534405368516786" lon="10.902251945649894"><ele>105.16666666666667</ele><time>2026-04-11T15:19:44Z</time></trkpt><trkpt lat="44.53432076377433" lon="10.902196482429845"><ele>105.33333333333334</ele><time>2026-04-11T15:19:46Z</time></trkpt><trkpt lat="44.53424128200789" lon="10.90214554067037"><ele>105.5</ele><time>2026-04-11T15:19:48Z</time></trkpt><trkpt lat="44.534166990565815" lon="10.902090355190744"><ele>105.66666666666667</ele><time>2026-04-11T15:19:50Z</time></trkpt><trkpt lat="44.53410535283935" lon="10.902026566028908"><ele>105.83333333333334</ele><time>2026-04-11T15:19:52Z</time></trkpt><trkpt lat="44.53403524648308" lon="10.901978926884675"><ele>106.0</ele><time>2026-04-11T15:19:54Z</time></trkpt><trkpt lat="44.53395829135932" lon="10.901949073440235"><ele>106.00000000000001</ele><time>2026-04-11T15:19:56Z</time></trkpt><trkpt lat="44.53387983415211" lon="10.90190813740907"><ele>106.0</ele><time>2026-04-11T15:19:58Z</time></trkpt><trkpt lat="44.53381276459335" lon="10.901865974694472"><ele>106.0</ele><time>2026-04-11T15:20:00Z</time></trkpt><trkpt lat="44.53373847646389" lon="10.901834392910756"><ele>106.0</ele><time>2026-04-11T15:20:03Z</time></trkpt><trkpt lat="44.53366966484029" lon="10.901804547143186"><ele>106.00000000000001</ele><time>2026-04-11T15:20:06Z</time></trkpt><trkpt lat="44.53359540660388" lon="10.901759929291698"><ele>106.0</ele><time>2026-04-11T15:20:10Z</time></trkpt><trkpt lat="44.533524870801564" lon="10.901741867612998"><ele>106.19999999999999</ele><time>2026-04-11T15:20:13Z</time></trkpt><trkpt lat="44.53344157550529" lon="10.90169065884728"><ele>106.39999999999999</ele><time>2026-04-11T15:20:16Z</time></trkpt><trkpt lat="44.53338014502935" lon="10.901643928288676"><ele>106.6</ele><time>2026-04-11T15:20:18Z</time></trkpt><trkpt lat="44.533310659857904" lon="10.90159307653875"><ele>106.8</ele><time>2026-04-11T15:20:20Z</time></trkpt><trkpt lat="44.533225630878356" lon="10.901529159092565"><ele>107.0</ele><time>2026-04-11T15:20:22Z</time></trkpt><trkpt lat="44.53312297179486" lon="10.901453617715426"><ele>107.0</ele><time>2026-04-11T15:20:24Z</time></trkpt><trkpt lat="44.53301070992002" lon="10.901385224056972"><ele>107.0</ele><time>2026-04-11T15:20:26Z</time></trkpt><trkpt lat="44.53289732420977" lon="10.901307181260513"><ele>107.0</ele><time>2026-04-11T15:20:28Z</time></trkpt><trkpt lat="44.53277950520162" lon="10.90125835418004"><ele>107.0</ele><time>2026-04-11T15:20:30Z</time></trkpt><trkpt lat="44.532657215310536" lon="10.901250721705553"><ele>107.0</ele><time>2026-04-11T15:20:32Z</time></trkpt><trkpt lat="44.53254858188751" lon="10.901207702562811"><ele>106.99999999999999</ele><time>2026-04-11T15:20:34Z</time></trkpt><trkpt lat="44.532447498182805" lon="10.901136557002214"><ele>106.99999999999999</ele><time>2026-04-11T15:20:36Z</time></trkpt><trkpt lat="44.532345417379496" lon="10.90109490952273"><ele>107.0</ele><time>2026-04-11T15:20:38Z</time></trkpt><trkpt lat="44.532244557782704" lon="10.901036977827713"><ele>107.0</ele><time>2026-04-11T15:20:39.999Z</time></trkpt><trkpt lat="44.53215927672641" lon="10.900938779063047"><ele>106.99999999999999</ele><time>2026-04-11T15:20:41.999Z</time></trkpt><trkpt lat="44.53208709189006" lon="10.900831754851508"><ele>107.0</ele><time>2026-04-11T15:20:43.999Z</time></trkpt><trkpt lat="44.532032601851434" lon="10.900727007727493"><ele>107.0</ele><time>2026-04-11T15:20:45.999Z</time></trkpt><trkpt lat="44.53198307255367" lon="10.90064584639468"><ele>107.0</ele><time>2026-04-11T15:20:47.999Z</time></trkpt><trkpt lat="44.53192466314186" lon="10.900566231973242"><ele>106.99999999999999</ele><time>2026-04-11T15:20:49.999Z</time></trkpt><trkpt lat="44.531842653514836" lon="10.90052295338306"><ele>107.0</ele><time>2026-04-11T15:20:51.999Z</time></trkpt><trkpt lat="44.531757912186485" lon="10.900500444053936"><ele>107.33333333333333</ele><time>2026-04-11T15:20:53.999Z</time></trkpt><trkpt lat="44.53168061784726" lon="10.900472049378521"><ele>107.66666666666666</ele><time>2026-04-11T15:20:55.999Z</time></trkpt><trkpt lat="44.53160291959513" lon="10.900450228535515"><ele>108.0</ele><time>2026-04-11T15:20:57.999Z</time></trkpt><trkpt lat="44.53152923374065" lon="10.900442627248067"><ele>108.33333333333334</ele><time>2026-04-11T15:20:59.999Z</time></trkpt><trkpt lat="44.53145142042242" lon="10.900434558636205"><ele>108.66666666666667</ele><time>2026-04-11T15:21:01.999Z</time></trkpt><trkpt lat="44.531379048983254" lon="10.900426728303687"><ele>109.0</ele><time>2026-04-11T15:21:03.999Z</time></trkpt><trkpt lat="44.5313029531199" lon="10.900449101841607"><ele>109.0</ele><time>2026-04-11T15:21:05.999Z</time></trkpt><trkpt lat="44.5312358884755" lon="10.900495787029337"><ele>109.0</ele><time>2026-04-11T15:21:07.999Z</time></trkpt><trkpt lat="44.53117115681431" lon="10.900564055043887"><ele>109.0</ele><time>2026-04-11T15:21:09.999Z</time></trkpt><trkpt lat="44.53109211797684" lon="10.900654420745582"><ele>109.0</ele><time>2026-04-11T15:21:11.999Z</time></trkpt><trkpt lat="44.53100275330513" lon="10.90071914716957"><ele>109.0</ele><time>2026-04-11T15:21:13.999Z</time></trkpt><trkpt lat="44.53088969747294" lon="10.900732035003836"><ele>109.80000000000001</ele><time>2026-04-11T15:21:15.999Z</time></trkpt><trkpt lat="44.530786446682455" lon="10.900691840639139"><ele>110.60000000000001</ele><time>2026-04-11T15:21:17.999Z</time></trkpt><trkpt lat="44.53069005205037" lon="10.900637295539493"><ele>111.4</ele><time>2026-04-11T15:21:19.999Z</time></trkpt><trkpt lat="44.530589693909086" lon="10.90061537930652"><ele>112.2</ele><time>2026-04-11T15:21:21.999Z</time></trkpt><trkpt lat="44.530495868564174" lon="10.9006511522702"><ele>113.0</ele><time>2026-04-11T15:21:23.999Z</time></trkpt><trkpt lat="44.530405046915" lon="10.900698722753754"><ele>113.16666666666666</ele><time>2026-04-11T15:21:25.999Z</time></trkpt><trkpt lat="44.530310900768455" lon="10.900710897993319"><ele>113.33333333333333</ele><time>2026-04-11T15:21:27.999Z</time></trkpt><trkpt lat="44.530232530400845" lon="10.900758598317822"><ele>113.5</ele><time>2026-04-11T15:21:29.999Z</time></trkpt><trkpt lat="44.53014681229937" lon="10.900796896608458"><ele>113.66666666666666</ele><time>2026-04-11T15:21:31.999Z</time></trkpt><trkpt lat="44.53006683671057" lon="10.900838428627306"><ele>113.83333333333333</ele><time>2026-04-11T15:21:33.999Z</time></trkpt><trkpt lat="44.52999209333111" lon="10.900871540925165"><ele>114.0</ele><time>2026-04-11T15:21:35.999Z</time></trkpt><trkpt lat="44.52991024782838" lon="10.900888028495967"><ele>114.0</ele><time>2026-04-11T15:21:37.999Z</time></trkpt><trkpt lat="44.529838825829906" lon="10.900869741629311"><ele>114.0</ele><time>2026-04-11T15:21:39.999Z</time></trkpt><trkpt lat="44.52976502388559" lon="10.900833271698799"><ele>114.0</ele><time>2026-04-11T15:21:41.999Z</time></trkpt><trkpt lat="44.52972297006966" lon="10.900751616933247"><ele>114.0</ele><time>2026-04-11T15:21:43.999Z</time></trkpt><trkpt lat="44.52970410780285" lon="10.900644035741482"><ele>114.0</ele><time>2026-04-11T15:21:45.999Z</time></trkpt><trkpt lat="44.52970459105442" lon="10.90054544718635"><ele>114.0</ele><time>2026-04-11T15:21:47.999Z</time></trkpt><trkpt lat="44.52972599297483" lon="10.90043670935007"><ele>114.0</ele><time>2026-04-11T15:21:51Z</time></trkpt><trkpt lat="44.52973768632084" lon="10.900341251979103"><ele>114.0</ele><time>2026-04-11T15:21:55Z</time></trkpt><trkpt lat="44.529732196052315" lon="10.9002273839648"><ele>114.0</ele><time>2026-04-11T15:21:59Z</time></trkpt><trkpt lat="44.52973461892815" lon="10.900109612271505"><ele>114.0</ele><time>2026-04-11T15:22:02Z</time></trkpt><trkpt lat="44.529735849759305" lon="10.899980855767119"><ele>114.0</ele><time>2026-04-11T15:22:05Z</time></trkpt><trkpt lat="44.52973683240027" lon="10.899880816794004"><ele>114.0</ele><time>2026-04-11T15:22:07Z</time></trkpt><trkpt lat="44.52974400012771" lon="10.899783509017157"><ele>114.28571428571428</ele><time>2026-04-11T15:22:09Z</time></trkpt><trkpt lat="44.5297537479819" lon="10.899692343397984"><ele>114.57142857142856</ele><time>2026-04-11T15:22:11Z</time></trkpt><trkpt lat="44.52975829595398" lon="10.899601026024328"><ele>114.85714285714286</ele><time>2026-04-11T15:22:13Z</time></trkpt><trkpt lat="44.52977324699673" lon="10.899487353330668"><ele>115.14285714285714</ele><time>2026-04-11T15:22:16Z</time></trkpt><trkpt lat="44.52977953449912" lon="10.899371664895932"><ele>115.42857142857143</ele><time>2026-04-11T15:22:18Z</time></trkpt><trkpt lat="44.52979283802657" lon="10.899265411456012"><ele>115.71428571428572</ele><time>2026-04-11T15:22:20Z</time></trkpt><trkpt lat="44.52980756508172" lon="10.899176582782403"><ele>116.00000000000001</ele><time>2026-04-11T15:22:22Z</time></trkpt><trkpt lat="44.52982410174816" lon="10.8990749152324"><ele>116.16666666666666</ele><time>2026-04-11T15:22:24Z</time></trkpt><trkpt lat="44.52983641131472" lon="10.89895827064087"><ele>116.33333333333333</ele><time>2026-04-11T15:22:26Z</time></trkpt><trkpt lat="44.529844599541" lon="10.898863237398718"><ele>116.5</ele><time>2026-04-11T15:22:28Z</time></trkpt><trkpt lat="44.52987577346765" lon="10.898768365521942"><ele>116.66666666666666</ele><time>2026-04-11T15:22:30Z</time></trkpt><trkpt lat="44.52989368540242" lon="10.89866487804189"><ele>116.83333333333333</ele><time>2026-04-11T15:22:32Z</time></trkpt><trkpt lat="44.529916847288" lon="10.89855178953845"><ele>117.0</ele><time>2026-04-11T15:22:34Z</time></trkpt><trkpt lat="44.529936162175176" lon="10.89843654517563"><ele>117.33333333333333</ele><time>2026-04-11T15:22:36Z</time></trkpt><trkpt lat="44.529952867888" lon="10.898345948718887"><ele>117.66666666666666</ele><time>2026-04-11T15:22:38Z</time></trkpt><trkpt lat="44.52998814324674" lon="10.898193573939206"><ele>118.0</ele><time>2026-04-11T15:22:41Z</time></trkpt><trkpt lat="44.52996250464007" lon="10.898075305861648"><ele>118.33333333333333</ele><time>2026-04-11T15:22:44Z</time></trkpt><trkpt lat="44.52991600538177" lon="10.898000034078926"><ele>118.66666666666666</ele><time>2026-04-11T15:22:46.999Z</time></trkpt><trkpt lat="44.529867181905736" lon="10.897914872397143"><ele>119.0</ele><time>2026-04-11T15:22:50.999Z</time></trkpt><trkpt lat="44.529730450123644" lon="10.897954017274285"><ele>119.0</ele><time>2026-04-11T15:22:51.999Z</time></trkpt><trkpt lat="44.52968554925774" lon="10.89783719646847"><ele>119.0</ele><time>2026-04-11T15:22:55.999Z</time></trkpt><trkpt lat="44.52969707959589" lon="10.897628370448857"><ele>119.0</ele><time>2026-04-11T15:22:58.999Z</time></trkpt><trkpt lat="44.52980952997275" lon="10.897595367510158"><ele>119.0</ele><time>2026-04-11T15:22:59.999Z</time></trkpt><trkpt lat="44.52985790375366" lon="10.897488876506035"><ele>119.0</ele><time>2026-04-11T15:23:02.999Z</time></trkpt><trkpt lat="44.52991072546032" lon="10.897386513826694"><ele>118.99999999999999</ele><time>2026-04-11T15:23:05.999Z</time></trkpt><trkpt lat="44.52984159884629" lon="10.897285519731641"><ele>119.0</ele><time>2026-04-11T15:23:08.999Z</time></trkpt><trkpt lat="44.52982190530759" lon="10.897157884188811"><ele>119.0</ele><time>2026-04-11T15:23:11.999Z</time></trkpt><trkpt lat="44.52983946312202" lon="10.897067023716843"><ele>119.0</ele><time>2026-04-11T15:23:13.999Z</time></trkpt><trkpt lat="44.52986318178474" lon="10.896974221942958"><ele>118.99999999999999</ele><time>2026-04-11T15:23:15.999Z</time></trkpt><trkpt lat="44.5298784788599" lon="10.896844778225445"><ele>119.0</ele><time>2026-04-11T15:23:18.999Z</time></trkpt><trkpt lat="44.52988455130702" lon="10.896755946512306"><ele>119.2</ele><time>2026-04-11T15:23:20.999Z</time></trkpt><trkpt lat="44.5298914888741" lon="10.896620542304024"><ele>119.4</ele><time>2026-04-11T15:23:23.999Z</time></trkpt><trkpt lat="44.5298002692444" lon="10.89658533046576"><ele>119.6</ele><time>2026-04-11T15:23:25.999Z</time></trkpt><trkpt lat="44.529736138225786" lon="10.896605583128439"><ele>119.8</ele><time>2026-04-11T15:23:27.999Z</time></trkpt><trkpt lat="44.52964887692228" lon="10.896605394515245"><ele>120.0</ele><time>2026-04-11T15:23:31.017Z</time></trkpt><trkpt lat="44.52943308935835" lon="10.896798236023736"><ele>120.0</ele><time>2026-04-11T15:23:35.999Z</time></trkpt><trkpt lat="44.5293741059768" lon="10.896628550949554"><ele>120.0</ele><time>2026-04-11T15:23:36.999Z</time></trkpt><trkpt lat="44.52931569018263" lon="10.896691581458908"><ele>120.0</ele><time>2026-04-11T15:23:38.999Z</time></trkpt><trkpt lat="44.52926339515192" lon="10.896769948039168"><ele>120.0</ele><time>2026-04-11T15:23:41.999Z</time></trkpt><trkpt lat="44.5292006273293" lon="10.896779567015507"><ele>120.0</ele><time>2026-04-11T15:23:44.999Z</time></trkpt><trkpt lat="44.529152999676164" lon="10.896716386697115"><ele>120.0</ele><time>2026-04-11T15:23:46.999Z</time></trkpt><trkpt lat="44.52910550403265" lon="10.896641330265513"><ele>120.5</ele><time>2026-04-11T15:23:48.999Z</time></trkpt><trkpt lat="44.52902649470657" lon="10.896579094828182"><ele>121.0</ele><time>2026-04-11T15:23:51.999Z</time></trkpt><trkpt lat="44.52897387985628" lon="10.896519890945813"><ele>121.5</ele><time>2026-04-11T15:23:53.999Z</time></trkpt><trkpt lat="44.528899546490194" lon="10.896447759838214"><ele>122.0</ele><time>2026-04-11T15:23:57Z</time></trkpt><trkpt lat="44.52886200236354" lon="10.896371038859742"><ele>122.5</ele><time>2026-04-11T15:23:59Z</time></trkpt><trkpt lat="44.52888423274809" lon="10.896282322340781"><ele>123.0</ele><time>2026-04-11T15:24:01Z</time></trkpt><trkpt lat="44.528909896894824" lon="10.896166602127606"><ele>123.00000000000001</ele><time>2026-04-11T15:24:04Z</time></trkpt><trkpt lat="44.52892801673831" lon="10.896045305376683"><ele>123.0</ele><time>2026-04-11T15:24:07Z</time></trkpt><trkpt lat="44.52893349110736" lon="10.895952779321947"><ele>123.00000000000001</ele><time>2026-04-11T15:24:09Z</time></trkpt><trkpt lat="44.52892994207789" lon="10.895826143714674"><ele>123.00000000000001</ele><time>2026-04-11T15:24:12Z</time></trkpt><trkpt lat="44.52890365495042" lon="10.895743156238623"><ele>123.0</ele><time>2026-04-11T15:24:14Z</time></trkpt><trkpt lat="44.528853939296496" lon="10.895687798413642"><ele>123.00000000000001</ele><time>2026-04-11T15:24:16Z</time></trkpt><trkpt lat="44.52879548650145" lon="10.895646388218196"><ele>123.00000000000001</ele><time>2026-04-11T15:24:18Z</time></trkpt><trkpt lat="44.528741114897315" lon="10.895596702267492"><ele>123.00000000000001</ele><time>2026-04-11T15:24:20Z</time></trkpt><trkpt lat="44.52874293213501" lon="10.89548477901172"><ele>123.0</ele><time>2026-04-11T15:24:23Z</time></trkpt><trkpt lat="44.52877491202118" lon="10.89540716518979"><ele>123.00000000000001</ele><time>2026-04-11T15:24:25Z</time></trkpt><trkpt lat="44.528748411509724" lon="10.895312766633696"><ele>123.00000000000001</ele><time>2026-04-11T15:24:27Z</time></trkpt><trkpt lat="44.528696177997595" lon="10.895239383777653"><ele>123.0</ele><time>2026-04-11T15:24:29Z</time></trkpt><trkpt lat="44.528625847561806" lon="10.895192668766228"><ele>123.00000000000001</ele><time>2026-04-11T15:24:31Z</time></trkpt><trkpt lat="44.52856319160543" lon="10.895139513355385"><ele>123.00000000000001</ele><time>2026-04-11T15:24:33Z</time></trkpt><trkpt lat="44.52849737837123" lon="10.895078724037969"><ele>123.14285714285717</ele><time>2026-04-11T15:24:35Z</time></trkpt><trkpt lat="44.528432812522475" lon="10.895016828403728"><ele>123.28571428571429</ele><time>2026-04-11T15:24:37Z</time></trkpt><trkpt lat="44.528366924320046" lon="10.894969823155888"><ele>123.42857142857144</ele><time>2026-04-11T15:24:39Z</time></trkpt><trkpt lat="44.52830404715173" lon="10.894931888397977"><ele>123.57142857142858</ele><time>2026-04-11T15:24:41Z</time></trkpt><trkpt lat="44.52824065405929" lon="10.894882192395498"><ele>123.71428571428572</ele><time>2026-04-11T15:24:43Z</time></trkpt><trkpt lat="44.52817979765269" lon="10.89483043851618"><ele>123.85714285714286</ele><time>2026-04-11T15:24:45Z</time></trkpt><trkpt lat="44.528132837940596" lon="10.894734438887717"><ele>124.0</ele><time>2026-04-11T15:24:47Z</time></trkpt><trkpt lat="44.528060901390084" lon="10.894670814145089"><ele>124.00000000000001</ele><time>2026-04-11T15:24:48.999Z</time></trkpt><trkpt lat="44.52798808473617" lon="10.89460641084609"><ele>124.0</ele><time>2026-04-11T15:24:50.999Z</time></trkpt><trkpt lat="44.52791691138533" lon="10.894544860772688"><ele>124.0</ele><time>2026-04-11T15:24:52.999Z</time></trkpt><trkpt lat="44.52784228908513" lon="10.894479774407342"><ele>124.0</ele><time>2026-04-11T15:24:54.999Z</time></trkpt><trkpt lat="44.52776395628383" lon="10.894411885046786"><ele>124.00000000000001</ele><time>2026-04-11T15:24:56.999Z</time></trkpt><trkpt lat="44.527680055399514" lon="10.894339169950308"><ele>124.0</ele><time>2026-04-11T15:24:58.999Z</time></trkpt><trkpt lat="44.527603319775515" lon="10.894272664832153"><ele>124.33333333333334</ele><time>2026-04-11T15:25:00.999Z</time></trkpt><trkpt lat="44.527528001613426" lon="10.89420738819596"><ele>124.66666666666667</ele><time>2026-04-11T15:25:02.999Z</time></trkpt><trkpt lat="44.527461502619744" lon="10.894149754943044"><ele>125.0</ele><time>2026-04-11T15:25:04.999Z</time></trkpt><trkpt lat="44.52739133739094" lon="10.894088944244704"><ele>125.33333333333334</ele><time>2026-04-11T15:25:06.999Z</time></trkpt><trkpt lat="44.52733302425584" lon="10.894038405504613"><ele>125.66666666666667</ele><time>2026-04-11T15:25:08.999Z</time></trkpt><trkpt lat="44.52726831624859" lon="10.893982324400561"><ele>126.0</ele><time>2026-04-11T15:25:14.999Z</time></trkpt><trkpt lat="44.52719279385493" lon="10.894148634211387"><ele>126.0</ele><time>2026-04-11T15:25:16.999Z</time></trkpt><trkpt lat="44.527158069974504" lon="10.89423720768526"><ele>126.0</ele><time>2026-04-11T15:25:18.999Z</time></trkpt><trkpt lat="44.52711412418749" lon="10.894325817347614"><ele>126.0</ele><time>2026-04-11T15:25:20.999Z</time></trkpt><trkpt lat="44.527075342261476" lon="10.894421632756982"><ele>126.0</ele><time>2026-04-11T15:25:22.999Z</time></trkpt><trkpt lat="44.5270327679448" lon="10.894522732625529"><ele>126.0</ele><time>2026-04-11T15:25:24.999Z</time></trkpt><trkpt lat="44.526983021263845" lon="10.894631300610992"><ele>126.0</ele><time>2026-04-11T15:25:26.999Z</time></trkpt><trkpt lat="44.52693581192926" lon="10.894743153960977"><ele>126.0</ele><time>2026-04-11T15:25:28.999Z</time></trkpt><trkpt lat="44.526891701843255" lon="10.894855883916211"><ele>126.0</ele><time>2026-04-11T15:25:30.999Z</time></trkpt><trkpt lat="44.526840767595715" lon="10.894970117738808"><ele>126.0</ele><time>2026-04-11T15:25:32.999Z</time></trkpt><trkpt lat="44.52676882895212" lon="10.89505798195546"><ele>126.0</ele><time>2026-04-11T15:25:34.999Z</time></trkpt><trkpt lat="44.52662653563751" lon="10.895032861513382"><ele>126.0</ele><time>2026-04-11T15:25:37.999Z</time></trkpt><trkpt lat="44.52654977716917" lon="10.89496480982381"><ele>126.0</ele><time>2026-04-11T15:25:39.999Z</time></trkpt><trkpt lat="44.52647158816824" lon="10.894896897267778"><ele>126.0</ele><time>2026-04-11T15:25:41.999Z</time></trkpt><trkpt lat="44.52639441056011" lon="10.894823754544037"><ele>126.0</ele><time>2026-04-11T15:25:43.999Z</time></trkpt><trkpt lat="44.52631367725254" lon="10.894753929244235"><ele>126.0</ele><time>2026-04-11T15:25:45.999Z</time></trkpt><trkpt lat="44.526240029135586" lon="10.894672011630739"><ele>126.0</ele><time>2026-04-11T15:25:47.999Z</time></trkpt><trkpt lat="44.52616647788159" lon="10.894607151086792"><ele>126.16666666666667</ele><time>2026-04-11T15:25:49.999Z</time></trkpt><trkpt lat="44.52609474208794" lon="10.894545320335398"><ele>126.33333333333334</ele><time>2026-04-11T15:25:51.999Z</time></trkpt><trkpt lat="44.52602003108803" lon="10.894482055520811"><ele>126.5</ele><time>2026-04-11T15:25:53.999Z</time></trkpt><trkpt lat="44.52595040982222" lon="10.894423100655018"><ele>126.66666666666667</ele><time>2026-04-11T15:25:55.999Z</time></trkpt><trkpt lat="44.525874074361305" lon="10.894381789702127"><ele>126.83333333333334</ele><time>2026-04-11T15:25:57.999Z</time></trkpt><trkpt lat="44.52580714584538" lon="10.894301785586796"><ele>127.0</ele><time>2026-04-11T15:25:59.998Z</time></trkpt><trkpt lat="44.52573018989293" lon="10.894236619753146"><ele>127.16666666666667</ele><time>2026-04-11T15:26:02Z</time></trkpt><trkpt lat="44.525649663810185" lon="10.894177946077246"><ele>127.33333333333334</ele><time>2026-04-11T15:26:04Z</time></trkpt><trkpt lat="44.5255678240165" lon="10.894116128518256"><ele>127.5</ele><time>2026-04-11T15:26:06Z</time></trkpt><trkpt lat="44.5254927219058" lon="10.894051912898506"><ele>127.66666666666666</ele><time>2026-04-11T15:26:08Z</time></trkpt><trkpt lat="44.525419913266525" lon="10.893987803147722"><ele>127.83333333333333</ele><time>2026-04-11T15:26:10Z</time></trkpt><trkpt lat="44.525346317245805" lon="10.893926383862528"><ele>128.0</ele><time>2026-04-11T15:26:12Z</time></trkpt><trkpt lat="44.52528014473121" lon="10.893866538820951"><ele>127.99999999999999</ele><time>2026-04-11T15:26:14Z</time></trkpt><trkpt lat="44.525215111681675" lon="10.893808943181266"><ele>128.0</ele><time>2026-04-11T15:26:16Z</time></trkpt><trkpt lat="44.52514492286517" lon="10.893763656222264"><ele>128.0</ele><time>2026-04-11T15:26:19Z</time></trkpt><trkpt lat="44.52506121153984" lon="10.893850387424116"><ele>128.0</ele><time>2026-04-11T15:26:22Z</time></trkpt><trkpt lat="44.52503124153924" lon="10.893929878359772"><ele>127.99999999999999</ele><time>2026-04-11T15:26:24Z</time></trkpt><trkpt lat="44.52499711233608" lon="10.8940204009504"><ele>128.0</ele><time>2026-04-11T15:26:26Z</time></trkpt><trkpt lat="44.524962611994674" lon="10.894109158626152"><ele>127.99999999999999</ele><time>2026-04-11T15:26:28Z</time></trkpt><trkpt lat="44.524938045451904" lon="10.894207563986104"><ele>128.0</ele><time>2026-04-11T15:26:30Z</time></trkpt><trkpt lat="44.52489590380959" lon="10.894306098619019"><ele>128.0</ele><time>2026-04-11T15:26:32Z</time></trkpt><trkpt lat="44.52485047006483" lon="10.89439579785387"><ele>128.0</ele><time>2026-04-11T15:26:34Z</time></trkpt><trkpt lat="44.52477736739305" lon="10.89441240714151"><ele>127.99999999999999</ele><time>2026-04-11T15:26:36Z</time></trkpt><trkpt lat="44.52474036797412" lon="10.894321881865705"><ele>128.0</ele><time>2026-04-11T15:26:37Z</time></trkpt><trkpt lat="44.5246977608059" lon="10.894230047411254"><ele>128.0</ele><time>2026-04-11T15:26:39Z</time></trkpt><trkpt lat="44.52464305503144" lon="10.894141057049962"><ele>128.0</ele><time>2026-04-11T15:26:41Z</time></trkpt><trkpt lat="44.524589416709546" lon="10.894056361269662"><ele>128.0</ele><time>2026-04-11T15:26:43Z</time></trkpt><trkpt lat="44.52452882538222" lon="10.893965018866641"><ele>128.0</ele><time>2026-04-11T15:26:45Z</time></trkpt><trkpt lat="44.52447112510872" lon="10.89386204764728"><ele>128.0</ele><time>2026-04-11T15:26:47Z</time></trkpt><trkpt lat="44.52440168062129" lon="10.893755440875502"><ele>127.80000000000001</ele><time>2026-04-11T15:26:49Z</time></trkpt><trkpt lat="44.52432564897294" lon="10.893640497015546"><ele>127.60000000000001</ele><time>2026-04-11T15:26:51Z</time></trkpt><trkpt lat="44.52424190761448" lon="10.893570700706281"><ele>127.39999999999999</ele><time>2026-04-11T15:26:52.999Z</time></trkpt><trkpt lat="44.524310553271455" lon="10.893447434480166"><ele>127.19999999999999</ele><time>2026-04-11T15:26:55.999Z</time></trkpt><trkpt lat="44.52434774642873" lon="10.893356742481178"><ele>127.0</ele><time>2026-04-11T15:26:58.999Z</time></trkpt><trkpt lat="44.52437698969093" lon="10.893258452590464"><ele>127.00000000000001</ele><time>2026-04-11T15:27:01.999Z</time></trkpt><trkpt lat="44.52441418602066" lon="10.89316792818824"><ele>127.0</ele><time>2026-04-11T15:27:04.999Z</time></trkpt><trkpt lat="44.52443002387816" lon="10.89308147302458"><ele>127.0</ele><time>2026-04-11T15:27:06.999Z</time></trkpt><trkpt lat="44.5243350147214" lon="10.892950498693283"><ele>127.0</ele><time>2026-04-11T15:27:09.999Z</time></trkpt><trkpt lat="44.52427708024726" lon="10.892890488073986"><ele>127.00000000000001</ele><time>2026-04-11T15:27:11.999Z</time></trkpt><trkpt lat="44.52421464034806" lon="10.892828133875922"><ele>127.0</ele><time>2026-04-11T15:27:13.999Z</time></trkpt><trkpt lat="44.52415677391425" lon="10.892750966472775"><ele>127.00000000000001</ele><time>2026-04-11T15:27:15.999Z</time></trkpt><trkpt lat="44.524095133605236" lon="10.892692349387755"><ele>127.0</ele><time>2026-04-11T15:27:17.999Z</time></trkpt><trkpt lat="44.52403260513118" lon="10.89261469634439"><ele>127.0</ele><time>2026-04-11T15:27:19.999Z</time></trkpt><trkpt lat="44.523979879319405" lon="10.892561606024419"><ele>127.0</ele><time>2026-04-11T15:27:21.999Z</time></trkpt><trkpt lat="44.5239128922408" lon="10.892478984627207"><ele>127.00000000000001</ele><time>2026-04-11T15:27:23.999Z</time></trkpt><trkpt lat="44.523862926427505" lon="10.892406059021898"><ele>127.0</ele><time>2026-04-11T15:27:25.999Z</time></trkpt><trkpt lat="44.523804368727326" lon="10.89232510979392"><ele>127.16666666666667</ele><time>2026-04-11T15:27:27.999Z</time></trkpt><trkpt lat="44.5237307516163" lon="10.892246847888499"><ele>127.33333333333334</ele><time>2026-04-11T15:27:29.999Z</time></trkpt><trkpt lat="44.52367044404925" lon="10.892173921445291"><ele>127.5</ele><time>2026-04-11T15:27:31.999Z</time></trkpt><trkpt lat="44.52360408868601" lon="10.892102977338151"><ele>127.66666666666666</ele><time>2026-04-11T15:27:33.999Z</time></trkpt><trkpt lat="44.5235511194124" lon="10.892017634077524"><ele>127.83333333333333</ele><time>2026-04-11T15:27:35.999Z</time></trkpt><trkpt lat="44.523513132021584" lon="10.891925915590072"><ele>128.0</ele><time>2026-04-11T15:27:37.999Z</time></trkpt><trkpt lat="44.52350869867186" lon="10.89181318653751"><ele>128.33333333333331</ele><time>2026-04-11T15:27:39.999Z</time></trkpt><trkpt lat="44.52354441326187" lon="10.891725843839335"><ele>128.66666666666666</ele><time>2026-04-11T15:27:41.999Z</time></trkpt><trkpt lat="44.523543729433584" lon="10.891632074949838"><ele>129.0</ele><time>2026-04-11T15:27:43.999Z</time></trkpt><trkpt lat="44.52355692629089" lon="10.891542775601268"><ele>129.33333333333334</ele><time>2026-04-11T15:27:45.999Z</time></trkpt><trkpt lat="44.523552417853175" lon="10.891426601026764"><ele>129.66666666666669</ele><time>2026-04-11T15:27:47.999Z</time></trkpt><trkpt lat="44.523495207166626" lon="10.891321461418793"><ele>130.0</ele><time>2026-04-11T15:27:50.999Z</time></trkpt><trkpt lat="44.52340803116262" lon="10.891286698960872"><ele>130.0</ele><time>2026-04-11T15:27:52.999Z</time></trkpt><trkpt lat="44.523334234020204" lon="10.891234175202376"><ele>130.0</ele><time>2026-04-11T15:27:54.999Z</time></trkpt><trkpt lat="44.52325661165919" lon="10.891156849580671"><ele>130.0</ele><time>2026-04-11T15:27:56.999Z</time></trkpt><trkpt lat="44.523181652051576" lon="10.891097651454235"><ele>130.0</ele><time>2026-04-11T15:27:58.999Z</time></trkpt><trkpt lat="44.52310608270389" lon="10.891058013697197"><ele>130.0</ele><time>2026-04-11T15:28:00.999Z</time></trkpt><trkpt lat="44.523032518767984" lon="10.891008073031422"><ele>130.0</ele><time>2026-04-11T15:28:02.998Z</time></trkpt><trkpt lat="44.522977116651596" lon="10.890928571330434"><ele>130.00000000000003</ele><time>2026-04-11T15:28:04.998Z</time></trkpt><trkpt lat="44.52296013999491" lon="10.890820077581957"><ele>130.0</ele><time>2026-04-11T15:28:06.998Z</time></trkpt><trkpt lat="44.52300692293724" lon="10.890712746236641"><ele>130.0</ele><time>2026-04-11T15:28:09Z</time></trkpt><trkpt lat="44.523031660617846" lon="10.890611166238024"><ele>130.0</ele><time>2026-04-11T15:28:11Z</time></trkpt><trkpt lat="44.523047995897755" lon="10.890515334191356"><ele>130.0</ele><time>2026-04-11T15:28:13Z</time></trkpt><trkpt lat="44.52307144717147" lon="10.890430510531381"><ele>130.00000000000003</ele><time>2026-04-11T15:28:15Z</time></trkpt><trkpt lat="44.52309876384225" lon="10.89034663527687"><ele>130.0</ele><time>2026-04-11T15:28:17Z</time></trkpt><trkpt lat="44.5231239444934" lon="10.89025334682911"><ele>130.0</ele><time>2026-04-11T15:28:19Z</time></trkpt><trkpt lat="44.52314866365195" lon="10.890154961066845"><ele>130.0</ele><time>2026-04-11T15:28:21Z</time></trkpt><trkpt lat="44.52318397268948" lon="10.890050764352557"><ele>130.0</ele><time>2026-04-11T15:28:23Z</time></trkpt><trkpt lat="44.52321868172786" lon="10.88993758941218"><ele>130.0</ele><time>2026-04-11T15:28:25Z</time></trkpt><trkpt lat="44.52325117718901" lon="10.88982646713051"><ele>130.0</ele><time>2026-04-11T15:28:27Z</time></trkpt><trkpt lat="44.52329201198462" lon="10.889717811323111"><ele>130.0</ele><time>2026-04-11T15:28:29Z</time></trkpt><trkpt lat="44.52331465932576" lon="10.88960408295011"><ele>130.5</ele><time>2026-04-11T15:28:31Z</time></trkpt><trkpt lat="44.523344142722706" lon="10.889497049936521"><ele>131.0</ele><time>2026-04-11T15:28:33Z</time></trkpt><trkpt lat="44.52337786931442" lon="10.88941249434667"><ele>131.5</ele><time>2026-04-11T15:28:35Z</time></trkpt><trkpt lat="44.52341473430062" lon="10.889321446238093"><ele>132.0</ele><time>2026-04-11T15:28:41Z</time></trkpt><trkpt lat="44.52329899142382" lon="10.889235139256392"><ele>132.5</ele><time>2026-04-11T15:28:44Z</time></trkpt><trkpt lat="44.52323756464554" lon="10.88920105911945"><ele>133.0</ele><time>2026-04-11T15:28:46Z</time></trkpt><trkpt lat="44.523175307141194" lon="10.889155711997143"><ele>133.16666666666669</ele><time>2026-04-11T15:28:48Z</time></trkpt><trkpt lat="44.52310931281423" lon="10.889115115921618"><ele>133.33333333333334</ele><time>2026-04-11T15:28:50Z</time></trkpt><trkpt lat="44.52303987834495" lon="10.889069389988432"><ele>133.5</ele><time>2026-04-11T15:28:52Z</time></trkpt><trkpt lat="44.52296822814937" lon="10.889018909862784"><ele>133.66666666666666</ele><time>2026-04-11T15:28:54Z</time></trkpt><trkpt lat="44.522892184666176" lon="10.888980210277177"><ele>133.83333333333331</ele><time>2026-04-11T15:28:56Z</time></trkpt><trkpt lat="44.52281903310623" lon="10.888931489412773"><ele>134.0</ele><time>2026-04-11T15:28:57.999Z</time></trkpt><trkpt lat="44.52274487381105" lon="10.888886938322917"><ele>134.2</ele><time>2026-04-11T15:28:59.999Z</time></trkpt><trkpt lat="44.522666268225905" lon="10.88883816385387"><ele>134.4</ele><time>2026-04-11T15:29:01.999Z</time></trkpt><trkpt lat="44.52258640020367" lon="10.888779746121516"><ele>134.6</ele><time>2026-04-11T15:29:03.999Z</time></trkpt><trkpt lat="44.522494827693244" lon="10.888715141542365"><ele>134.8</ele><time>2026-04-11T15:29:05.999Z</time></trkpt><trkpt lat="44.52240853905043" lon="10.888622287160405"><ele>135.0</ele><time>2026-04-11T15:29:07.999Z</time></trkpt><trkpt lat="44.52231374147876" lon="10.888546468383431"><ele>135.0</ele><time>2026-04-11T15:29:09.999Z</time></trkpt><trkpt lat="44.5222315478152" lon="10.888476139507167"><ele>135.0</ele><time>2026-04-11T15:29:11.999Z</time></trkpt><trkpt lat="44.52216564208177" lon="10.888418363457067"><ele>135.0</ele><time>2026-04-11T15:29:13.999Z</time></trkpt><trkpt lat="44.522092610405" lon="10.888351107765583"><ele>135.0</ele><time>2026-04-11T15:29:15.999Z</time></trkpt><trkpt lat="44.5220195469428" lon="10.888278734557538"><ele>135.0</ele><time>2026-04-11T15:29:17.999Z</time></trkpt><trkpt lat="44.521950133711115" lon="10.888201484184085"><ele>135.0</ele><time>2026-04-11T15:29:20.999Z</time></trkpt><trkpt lat="44.52187994022682" lon="10.88809727211429"><ele>135.0</ele><time>2026-04-11T15:29:22.999Z</time></trkpt><trkpt lat="44.52178634757155" lon="10.88802250415311"><ele>135.0</ele><time>2026-04-11T15:29:24.999Z</time></trkpt><trkpt lat="44.52170713532851" lon="10.88794010908681"><ele>135.0</ele><time>2026-04-11T15:29:26.999Z</time></trkpt><trkpt lat="44.5216318955863" lon="10.88785843316028"><ele>135.0</ele><time>2026-04-11T15:29:28.999Z</time></trkpt><trkpt lat="44.5215553393616" lon="10.88778572062373"><ele>135.0</ele><time>2026-04-11T15:29:30.999Z</time></trkpt><trkpt lat="44.52148597014171" lon="10.887700759443826"><ele>135.0</ele><time>2026-04-11T15:29:32.999Z</time></trkpt><trkpt lat="44.5214056010491" lon="10.887619109894302"><ele>135.0</ele><time>2026-04-11T15:29:34.999Z</time></trkpt><trkpt lat="44.52133032911887" lon="10.887539859915988"><ele>135.0</ele><time>2026-04-11T15:29:36.999Z</time></trkpt><trkpt lat="44.52125629409478" lon="10.88745368429787"><ele>135.0</ele><time>2026-04-11T15:29:38.999Z</time></trkpt><trkpt lat="44.521182776387505" lon="10.887377165396972"><ele>135.0</ele><time>2026-04-11T15:29:40.999Z</time></trkpt><trkpt lat="44.52111447713188" lon="10.887297658363318"><ele>135.66666666666666</ele><time>2026-04-11T15:29:42.999Z</time></trkpt><trkpt lat="44.52104236009858" lon="10.887228235740606"><ele>136.33333333333334</ele><time>2026-04-11T15:29:44.999Z</time></trkpt><trkpt lat="44.520971326461364" lon="10.887156919975459"><ele>137.0</ele><time>2026-04-11T15:29:46.999Z</time></trkpt><trkpt lat="44.52090131054199" lon="10.887090452891732"><ele>137.66666666666669</ele><time>2026-04-11T15:29:48.999Z</time></trkpt><trkpt lat="44.520838840779376" lon="10.887018387653521"><ele>138.33333333333334</ele><time>2026-04-11T15:29:50.999Z</time></trkpt><trkpt lat="44.5207720662911" lon="10.886952465745859"><ele>139.0</ele><time>2026-04-11T15:29:52.999Z</time></trkpt><trkpt lat="44.520709391626646" lon="10.886881108408073"><ele>139.0</ele><time>2026-04-11T15:29:54.999Z</time></trkpt><trkpt lat="44.520643473545" lon="10.88681372059139"><ele>139.0</ele><time>2026-04-11T15:29:56.999Z</time></trkpt><trkpt lat="44.52057684489299" lon="10.886744165670912"><ele>139.0</ele><time>2026-04-11T15:29:58.999Z</time></trkpt><trkpt lat="44.520513747773144" lon="10.88666793179972"><ele>139.0</ele><time>2026-04-11T15:30:00.999Z</time></trkpt><trkpt lat="44.52044389025066" lon="10.886604229723543"><ele>139.0</ele><time>2026-04-11T15:30:02.999Z</time></trkpt><trkpt lat="44.52037050427633" lon="10.886531843942489"><ele>139.0</ele><time>2026-04-11T15:30:04.999Z</time></trkpt><trkpt lat="44.520300148866625" lon="10.88645873263597"><ele>139.0</ele><time>2026-04-11T15:30:06.998Z</time></trkpt><trkpt lat="44.520234268459774" lon="10.886384325957625"><ele>139.0</ele><time>2026-04-11T15:30:08.998Z</time></trkpt><trkpt lat="44.520165097958156" lon="10.886312881367264"><ele>139.0</ele><time>2026-04-11T15:30:10.998Z</time></trkpt><trkpt lat="44.520097327563505" lon="10.886246331243584"><ele>139.0</ele><time>2026-04-11T15:30:12.998Z</time></trkpt><trkpt lat="44.520030735163786" lon="10.886178218079985"><ele>139.0</ele><time>2026-04-11T15:30:15Z</time></trkpt><trkpt lat="44.5199666311975" lon="10.886110053392171"><ele>139.0</ele><time>2026-04-11T15:30:17Z</time></trkpt><trkpt lat="44.51989749676114" lon="10.886045081753387"><ele>139.0</ele><time>2026-04-11T15:30:19Z</time></trkpt><trkpt lat="44.51982706822692" lon="10.88597527397551"><ele>139.0</ele><time>2026-04-11T15:30:21Z</time></trkpt><trkpt lat="44.51975771216343" lon="10.885908834885013"><ele>139.0</ele><time>2026-04-11T15:30:23Z</time></trkpt><trkpt lat="44.51968553141748" lon="10.885849659407326"><ele>139.0</ele><time>2026-04-11T15:30:25Z</time></trkpt><trkpt lat="44.519620291687815" lon="10.885780896781176"><ele>139.0</ele><time>2026-04-11T15:30:27Z</time></trkpt><trkpt lat="44.519549521295325" lon="10.885717418250964"><ele>139.0</ele><time>2026-04-11T15:30:29Z</time></trkpt><trkpt lat="44.51948272079756" lon="10.885654039946122"><ele>139.16666666666669</ele><time>2026-04-11T15:30:31Z</time></trkpt><trkpt lat="44.51941438078523" lon="10.885592388084303"><ele>139.33333333333334</ele><time>2026-04-11T15:30:33Z</time></trkpt><trkpt lat="44.51934370574706" lon="10.88552630149698"><ele>139.5</ele><time>2026-04-11T15:30:35Z</time></trkpt><trkpt lat="44.51927193003292" lon="10.88546351889"><ele>139.66666666666666</ele><time>2026-04-11T15:30:37Z</time></trkpt><trkpt lat="44.519202700476754" lon="10.885397048595989"><ele>139.83333333333331</ele><time>2026-04-11T15:30:39Z</time></trkpt><trkpt lat="44.51913662813687" lon="10.885334500587549"><ele>140.0</ele><time>2026-04-11T15:30:41Z</time></trkpt><trkpt lat="44.51906898208645" lon="10.885268856085453"><ele>140.0</ele><time>2026-04-11T15:30:43Z</time></trkpt><trkpt lat="44.519002426069385" lon="10.885204580410159"><ele>140.0</ele><time>2026-04-11T15:30:45Z</time></trkpt><trkpt lat="44.51893427587132" lon="10.885145350377144"><ele>140.0</ele><time>2026-04-11T15:30:47Z</time></trkpt><trkpt lat="44.51886921188607" lon="10.885086088307187"><ele>140.0</ele><time>2026-04-11T15:30:49Z</time></trkpt><trkpt lat="44.51880676378453" lon="10.885021196934279"><ele>140.0</ele><time>2026-04-11T15:30:51Z</time></trkpt><trkpt lat="44.518736868546235" lon="10.884963323197265"><ele>140.0</ele><time>2026-04-11T15:30:53Z</time></trkpt><trkpt lat="44.51867189487591" lon="10.884904590471681"><ele>140.42857142857142</ele><time>2026-04-11T15:30:55Z</time></trkpt><trkpt lat="44.518609423532176" lon="10.884851753636585"><ele>140.85714285714286</ele><time>2026-04-11T15:30:57Z</time></trkpt><trkpt lat="44.51855031334284" lon="10.88479385129046"><ele>141.28571428571428</ele><time>2026-04-11T15:30:59Z</time></trkpt><trkpt lat="44.518497104219584" lon="10.884735671817117"><ele>141.71428571428572</ele><time>2026-04-11T15:31:01Z</time></trkpt><trkpt lat="44.51844010054385" lon="10.884687225519212"><ele>142.14285714285714</ele><time>2026-04-11T15:31:03Z</time></trkpt><trkpt lat="44.51838285707505" lon="10.884631218722566"><ele>142.57142857142856</ele><time>2026-04-11T15:31:04.999Z</time></trkpt><trkpt lat="44.51832312039729" lon="10.884573562236977"><ele>143.0</ele><time>2026-04-11T15:31:06.999Z</time></trkpt><trkpt lat="44.5182635071119" lon="10.884513433060238"><ele>143.0</ele><time>2026-04-11T15:31:08.999Z</time></trkpt><trkpt lat="44.518198131877696" lon="10.88444720580456"><ele>143.0</ele><time>2026-04-11T15:31:10.999Z</time></trkpt><trkpt lat="44.51813190865024" lon="10.884374872617462"><ele>143.0</ele><time>2026-04-11T15:31:12.999Z</time></trkpt><trkpt lat="44.51807060252579" lon="10.88428919218916"><ele>143.0</ele><time>2026-04-11T15:31:14.999Z</time></trkpt><trkpt lat="44.51801327936184" lon="10.884201742381629"><ele>143.0</ele><time>2026-04-11T15:31:16.999Z</time></trkpt><trkpt lat="44.51795785653173" lon="10.884107526574722"><ele>143.0</ele><time>2026-04-11T15:31:18.999Z</time></trkpt><trkpt lat="44.51790388397299" lon="10.884014595453502"><ele>143.0</ele><time>2026-04-11T15:31:20.999Z</time></trkpt><trkpt lat="44.51784820280111" lon="10.88392252108624"><ele>143.0</ele><time>2026-04-11T15:31:22.999Z</time></trkpt><trkpt lat="44.517796336954305" lon="10.88383079117891"><ele>143.0</ele><time>2026-04-11T15:31:24.999Z</time></trkpt><trkpt lat="44.517738332202036" lon="10.883740613072156"><ele>143.0</ele><time>2026-04-11T15:31:26.999Z</time></trkpt><trkpt lat="44.5176799554291" lon="10.88365584556531"><ele>143.0</ele><time>2026-04-11T15:31:28.999Z</time></trkpt><trkpt lat="44.51762443028353" lon="10.883574243537288"><ele>143.0</ele><time>2026-04-11T15:31:30.999Z</time></trkpt><trkpt lat="44.517567965284194" lon="10.883496798573887"><ele>143.83333333333331</ele><time>2026-04-11T15:31:32.999Z</time></trkpt><trkpt lat="44.517513119312426" lon="10.8834179229566"><ele>144.66666666666666</ele><time>2026-04-11T15:31:34.999Z</time></trkpt><trkpt lat="44.51745300419134" lon="10.88335061746988"><ele>145.5</ele><time>2026-04-11T15:31:36.999Z</time></trkpt><trkpt lat="44.51739903411364" lon="10.883271727390499"><ele>146.33333333333334</ele><time>2026-04-11T15:31:38.999Z</time></trkpt><trkpt lat="44.517336852724995" lon="10.88320212093734"><ele>147.16666666666669</ele><time>2026-04-11T15:31:40.999Z</time></trkpt><trkpt lat="44.5172778506266" lon="10.883126037554767"><ele>148.0</ele><time>2026-04-11T15:31:42.999Z</time></trkpt><trkpt lat="44.51721366599429" lon="10.883052940628591"><ele>148.0</ele><time>2026-04-11T15:31:44.999Z</time></trkpt><trkpt lat="44.517146406283864" lon="10.882975426100415"><ele>148.0</ele><time>2026-04-11T15:31:46.999Z</time></trkpt><trkpt lat="44.51707857716703" lon="10.88289789667882"><ele>148.0</ele><time>2026-04-11T15:31:48.999Z</time></trkpt><trkpt lat="44.51700541592781" lon="10.882828133518277"><ele>148.0</ele><time>2026-04-11T15:31:50.999Z</time></trkpt><trkpt lat="44.51693382291281" lon="10.882767075901995"><ele>148.0</ele><time>2026-04-11T15:31:52.999Z</time></trkpt><trkpt lat="44.51686728069343" lon="10.882710255532606"><ele>148.0</ele><time>2026-04-11T15:31:54.999Z</time></trkpt><trkpt lat="44.516794670172" lon="10.88265732258436"><ele>148.0</ele><time>2026-04-11T15:31:56.999Z</time></trkpt><trkpt lat="44.51673872929062" lon="10.882587536645644"><ele>148.0</ele><time>2026-04-11T15:31:58.999Z</time></trkpt><trkpt lat="44.51666730377465" lon="10.882555720473393"><ele>148.0</ele><time>2026-04-11T15:32:00.999Z</time></trkpt><trkpt lat="44.51660357460729" lon="10.882513826977949"><ele>148.0</ele><time>2026-04-11T15:32:02.999Z</time></trkpt><trkpt lat="44.51654621985655" lon="10.882468982370282"><ele>148.0</ele><time>2026-04-11T15:32:04.999Z</time></trkpt><trkpt lat="44.516471343709135" lon="10.882410066259933"><ele>148.0</ele><time>2026-04-11T15:32:07.999Z</time></trkpt><trkpt lat="44.51640836942874" lon="10.882369590157891"><ele>148.0</ele><time>2026-04-11T15:32:09.999Z</time></trkpt><trkpt lat="44.51632025312653" lon="10.882317100299066"><ele>147.83333333333334</ele><time>2026-04-11T15:32:12.998Z</time></trkpt><trkpt lat="44.516234044475496" lon="10.8822519644904"><ele>147.66666666666669</ele><time>2026-04-11T15:32:15.998Z</time></trkpt><trkpt lat="44.51619245872265" lon="10.882172526843725"><ele>147.5</ele><time>2026-04-11T15:32:17.998Z</time></trkpt><trkpt lat="44.516154292320046" lon="10.882090742586552"><ele>147.33333333333334</ele><time>2026-04-11T15:32:20Z</time></trkpt><trkpt lat="44.51610533287408" lon="10.88201505309312"><ele>147.16666666666666</ele><time>2026-04-11T15:32:22Z</time></trkpt><trkpt lat="44.516070171101624" lon="10.881924412430857"><ele>147.0</ele><time>2026-04-11T15:32:24Z</time></trkpt><trkpt lat="44.51604652071467" lon="10.881828132474453"><ele>147.28571428571428</ele><time>2026-04-11T15:32:26Z</time></trkpt><trkpt lat="44.5160094985869" lon="10.88174512965727"><ele>147.57142857142856</ele><time>2026-04-11T15:32:28Z</time></trkpt><trkpt lat="44.515967949106695" lon="10.88166259038581"><ele>147.85714285714286</ele><time>2026-04-11T15:32:30Z</time></trkpt><trkpt lat="44.51593061561267" lon="10.88158472096053"><ele>148.14285714285714</ele><time>2026-04-11T15:32:32Z</time></trkpt><trkpt lat="44.51589423202316" lon="10.881500445299698"><ele>148.42857142857142</ele><time>2026-04-11T15:32:34Z</time></trkpt><trkpt lat="44.51585521469758" lon="10.881413355378786"><ele>148.71428571428572</ele><time>2026-04-11T15:32:36Z</time></trkpt><trkpt lat="44.51581388085736" lon="10.881323426355795"><ele>149.0</ele><time>2026-04-11T15:32:38Z</time></trkpt><trkpt lat="44.515779882719166" lon="10.88122302603204"><ele>149.0</ele><time>2026-04-11T15:32:40Z</time></trkpt><trkpt lat="44.5157490750834" lon="10.88112311475477"><ele>149.0</ele><time>2026-04-11T15:32:42Z</time></trkpt><trkpt lat="44.51571941511214" lon="10.881022663593578"><ele>149.0</ele><time>2026-04-11T15:32:44Z</time></trkpt><trkpt lat="44.51569303518049" lon="10.880924005231048"><ele>149.0</ele><time>2026-04-11T15:32:46Z</time></trkpt><trkpt lat="44.515656890202564" lon="10.880818136690923"><ele>149.0</ele><time>2026-04-11T15:32:48Z</time></trkpt><trkpt lat="44.515625679642035" lon="10.880710814371218"><ele>149.0</ele><time>2026-04-11T15:32:50Z</time></trkpt><trkpt lat="44.51559739169032" lon="10.880606359304599"><ele>149.33333333333331</ele><time>2026-04-11T15:32:52Z</time></trkpt><trkpt lat="44.5155568217512" lon="10.880517185724594"><ele>149.66666666666666</ele><time>2026-04-11T15:32:54Z</time></trkpt><trkpt lat="44.51550578075259" lon="10.88042279170159"><ele>150.0</ele><time>2026-04-11T15:32:56Z</time></trkpt><trkpt lat="44.51545212801087" lon="10.880334927537701"><ele>150.33333333333334</ele><time>2026-04-11T15:32:58Z</time></trkpt><trkpt lat="44.515387891166704" lon="10.880247277655355"><ele>150.66666666666669</ele><time>2026-04-11T15:33:00Z</time></trkpt><trkpt lat="44.51531769730088" lon="10.880163918412384"><ele>151.0</ele><time>2026-04-11T15:33:02Z</time></trkpt><trkpt lat="44.5152426901576" lon="10.88009990750005"><ele>151.6</ele><time>2026-04-11T15:33:04Z</time></trkpt><trkpt lat="44.51516222042124" lon="10.880038327472475"><ele>152.2</ele><time>2026-04-11T15:33:06Z</time></trkpt><trkpt lat="44.51507918641868" lon="10.879982534065105"><ele>152.8</ele><time>2026-04-11T15:33:08Z</time></trkpt><trkpt lat="44.5149982835029" lon="10.87991745619545"><ele>153.4</ele><time>2026-04-11T15:33:09.999Z</time></trkpt><trkpt lat="44.51492037624354" lon="10.879848339713819"><ele>154.0</ele><time>2026-04-11T15:33:11.999Z</time></trkpt><trkpt lat="44.51483998857089" lon="10.879792255929218"><ele>154.0</ele><time>2026-04-11T15:33:13.999Z</time></trkpt><trkpt lat="44.51475992862395" lon="10.879726940555278"><ele>154.0</ele><time>2026-04-11T15:33:15.999Z</time></trkpt><trkpt lat="44.51467287528466" lon="10.879667000810674"><ele>154.0</ele><time>2026-04-11T15:33:17.999Z</time></trkpt><trkpt lat="44.51459227911554" lon="10.87960974313621"><ele>154.0</ele><time>2026-04-11T15:33:19.999Z</time></trkpt><trkpt lat="44.51451627277277" lon="10.879547494906289"><ele>154.0</ele><time>2026-04-11T15:33:21.999Z</time></trkpt><trkpt lat="44.51444108349872" lon="10.879497293551932"><ele>153.83333333333334</ele><time>2026-04-11T15:33:23.999Z</time></trkpt><trkpt lat="44.51436541935941" lon="10.87943847324828"><ele>153.66666666666669</ele><time>2026-04-11T15:33:25.999Z</time></trkpt><trkpt lat="44.51429171300023" lon="10.879378917052922"><ele>153.5</ele><time>2026-04-11T15:33:27.999Z</time></trkpt><trkpt lat="44.51422155760868" lon="10.879329689902796"><ele>153.33333333333334</ele><time>2026-04-11T15:33:29.999Z</time></trkpt><trkpt lat="44.51415311803007" lon="10.87927178409805"><ele>153.16666666666666</ele><time>2026-04-11T15:33:31.999Z</time></trkpt><trkpt lat="44.51408703972745" lon="10.879221462870623"><ele>153.0</ele><time>2026-04-11T15:33:33.999Z</time></trkpt><trkpt lat="44.51402272049081" lon="10.87917405367022"><ele>153.0</ele><time>2026-04-11T15:33:35.999Z</time></trkpt><trkpt lat="44.51396606115804" lon="10.87911552631092"><ele>153.0</ele><time>2026-04-11T15:33:37.999Z</time></trkpt><trkpt lat="44.51391317360327" lon="10.87904818018184"><ele>153.0</ele><time>2026-04-11T15:33:39.999Z</time></trkpt><trkpt lat="44.513836284395325" lon="10.879039422102718"><ele>153.0</ele><time>2026-04-11T15:33:41.999Z</time></trkpt><trkpt lat="44.51376677696757" lon="10.878990064409544"><ele>153.0</ele><time>2026-04-11T15:33:43.999Z</time></trkpt><trkpt lat="44.51369272323933" lon="10.878927884874743"><ele>153.0</ele><time>2026-04-11T15:33:45.999Z</time></trkpt><trkpt lat="44.5136136906025" lon="10.878874918619868"><ele>152.6</ele><time>2026-04-11T15:33:47.999Z</time></trkpt><trkpt lat="44.513539097647644" lon="10.878812828387545"><ele>152.20000000000002</ele><time>2026-04-11T15:33:49.999Z</time></trkpt><trkpt lat="44.513464676864835" lon="10.87875179399223"><ele>151.8</ele><time>2026-04-11T15:33:51.999Z</time></trkpt><trkpt lat="44.513391501936" lon="10.8786801821256"><ele>151.4</ele><time>2026-04-11T15:33:53.999Z</time></trkpt><trkpt lat="44.5133031861563" lon="10.878627727014004"><ele>151.0</ele><time>2026-04-11T15:33:55.999Z</time></trkpt><trkpt lat="44.513219808088415" lon="10.878569132971178"><ele>151.0</ele><time>2026-04-11T15:33:57.999Z</time></trkpt><trkpt lat="44.51312961130003" lon="10.878513660643437"><ele>151.0</ele><time>2026-04-11T15:33:59.999Z</time></trkpt><trkpt lat="44.51304455052849" lon="10.87844412907757"><ele>151.0</ele><time>2026-04-11T15:34:01.999Z</time></trkpt><trkpt lat="44.5129487125081" lon="10.878410937742792"><ele>151.0</ele><time>2026-04-11T15:34:03.999Z</time></trkpt><trkpt lat="44.51285094294953" lon="10.878404990816625"><ele>151.0</ele><time>2026-04-11T15:34:05.999Z</time></trkpt><trkpt lat="44.51275560266113" lon="10.87839447824482"><ele>151.0</ele><time>2026-04-11T15:34:07.999Z</time></trkpt><trkpt lat="44.51267522035074" lon="10.878377547577047"><ele>151.0</ele><time>2026-04-11T15:34:09.999Z</time></trkpt><trkpt lat="44.512766167102214" lon="10.878387234548857"><ele>151.0</ele><time>2026-04-11T15:34:13.999Z</time></trkpt><trkpt lat="44.51283386941658" lon="10.878446354223849"><ele>151.0</ele><time>2026-04-11T15:34:15.999Z</time></trkpt><trkpt lat="44.51291605460301" lon="10.8784702106475"><ele>151.0</ele><time>2026-04-11T15:34:17.998Z</time></trkpt><trkpt lat="44.51299283348824" lon="10.87847792925512"><ele>151.0</ele><time>2026-04-11T15:34:19.998Z</time></trkpt><trkpt lat="44.51307486700827" lon="10.878506432759703"><ele>151.0</ele><time>2026-04-11T15:34:21.998Z</time></trkpt><trkpt lat="44.51315302205035" lon="10.878545982352318"><ele>151.0</ele><time>2026-04-11T15:34:23.998Z</time></trkpt><trkpt lat="44.513229853889" lon="10.878589378276644"><ele>151.0</ele><time>2026-04-11T15:34:26Z</time></trkpt><trkpt lat="44.51330325419812" lon="10.878644225925141"><ele>151.0</ele><time>2026-04-11T15:34:28Z</time></trkpt><trkpt lat="44.51337221369466" lon="10.87870228268111"><ele>151.0</ele><time>2026-04-11T15:34:30Z</time></trkpt><trkpt lat="44.513444893547565" lon="10.87875742223261"><ele>151.0</ele><time>2026-04-11T15:34:32Z</time></trkpt><trkpt lat="44.513509155955866" lon="10.87882812339771"><ele>151.0</ele><time>2026-04-11T15:34:34Z</time></trkpt><trkpt lat="44.51358521767159" lon="10.878888890852565"><ele>151.0</ele><time>2026-04-11T15:34:36Z</time></trkpt><trkpt lat="44.5136626470281" lon="10.878946823672976"><ele>151.0</ele><time>2026-04-11T15:34:38Z</time></trkpt><trkpt lat="44.513732590835836" lon="10.879003045864646"><ele>151.0</ele><time>2026-04-11T15:34:40Z</time></trkpt><trkpt lat="44.51380121607191" lon="10.879052059251629"><ele>151.0</ele><time>2026-04-11T15:34:42Z</time></trkpt><trkpt lat="44.513851401900155" lon="10.879123462659962"><ele>151.0</ele><time>2026-04-11T15:34:44Z</time></trkpt><trkpt lat="44.51391719822242" lon="10.879180316883465"><ele>150.8</ele><time>2026-04-11T15:34:46Z</time></trkpt><trkpt lat="44.513999240620294" lon="10.879203216686307"><ele>150.6</ele><time>2026-04-11T15:34:48Z</time></trkpt><trkpt lat="44.514081129586565" lon="10.879254716667186"><ele>150.4</ele><time>2026-04-11T15:34:50Z</time></trkpt><trkpt lat="44.5141596943069" lon="10.87931893233637"><ele>150.2</ele><time>2026-04-11T15:34:52Z</time></trkpt><trkpt lat="44.514252912229416" lon="10.879387701298946"><ele>150.0</ele><time>2026-04-11T15:34:54Z</time></trkpt><trkpt lat="44.51434529094857" lon="10.8794622109258"><ele>150.0</ele><time>2026-04-11T15:34:56Z</time></trkpt><trkpt lat="44.51444201230802" lon="10.879532562467956"><ele>150.0</ele><time>2026-04-11T15:34:58Z</time></trkpt><trkpt lat="44.5145386091107" lon="10.879606776244108"><ele>150.0</ele><time>2026-04-11T15:35:00Z</time></trkpt><trkpt lat="44.51463307783024" lon="10.879683198507609"><ele>150.0</ele><time>2026-04-11T15:35:02Z</time></trkpt><trkpt lat="44.51473805497835" lon="10.87975847512246"><ele>150.0</ele><time>2026-04-11T15:35:04Z</time></trkpt><trkpt lat="44.514839241014585" lon="10.879835709633092"><ele>150.5</ele><time>2026-04-11T15:35:06Z</time></trkpt><trkpt lat="44.51494084508308" lon="10.879918728591843"><ele>151.0</ele><time>2026-04-11T15:35:08Z</time></trkpt><trkpt lat="44.51504017992174" lon="10.880001305488324"><ele>151.5</ele><time>2026-04-11T15:35:10Z</time></trkpt><trkpt lat="44.51514241924234" lon="10.88007889246437"><ele>152.0</ele><time>2026-04-11T15:35:12Z</time></trkpt><trkpt lat="44.51523721036861" lon="10.880159774016041"><ele>152.0</ele><time>2026-04-11T15:35:14Z</time></trkpt><trkpt lat="44.515326980679475" lon="10.880236135548977"><ele>152.0</ele><time>2026-04-11T15:35:16Z</time></trkpt><trkpt lat="44.51541877967377" lon="10.880327135019431"><ele>152.0</ele><time>2026-04-11T15:35:17.999Z</time></trkpt><trkpt lat="44.51548923515484" lon="10.880442896961029"><ele>152.0</ele><time>2026-04-11T15:35:19.999Z</time></trkpt><trkpt lat="44.5155514252631" lon="10.880560870206603"><ele>152.0</ele><time>2026-04-11T15:35:21.999Z</time></trkpt><trkpt lat="44.515596427623684" lon="10.880696528413663"><ele>151.79999999999998</ele><time>2026-04-11T15:35:23.999Z</time></trkpt><trkpt lat="44.51563372727994" lon="10.880837894279512"><ele>151.6</ele><time>2026-04-11T15:35:25.999Z</time></trkpt><trkpt lat="44.51567408813421" lon="10.880973715485545"><ele>151.39999999999998</ele><time>2026-04-11T15:35:27.999Z</time></trkpt><trkpt lat="44.51570869975275" lon="10.881119804966838"><ele>151.2</ele><time>2026-04-11T15:35:29.999Z</time></trkpt><trkpt lat="44.51574970903128" lon="10.881249053836692"><ele>151.0</ele><time>2026-04-11T15:35:31.999Z</time></trkpt><trkpt lat="44.51579527780062" lon="10.88138341099"><ele>150.5</ele><time>2026-04-11T15:35:33.999Z</time></trkpt><trkpt lat="44.5158563977778" lon="10.881505247423474"><ele>150.0</ele><time>2026-04-11T15:35:35.999Z</time></trkpt><trkpt lat="44.51592171011525" lon="10.881634797596787"><ele>149.5</ele><time>2026-04-11T15:35:37.999Z</time></trkpt><trkpt lat="44.51597139087483" lon="10.881780496042357"><ele>149.0</ele><time>2026-04-11T15:35:39.999Z</time></trkpt><trkpt lat="44.51603461270716" lon="10.88192551462982"><ele>148.83333333333331</ele><time>2026-04-11T15:35:41.999Z</time></trkpt><trkpt lat="44.516088666488564" lon="10.882077730960965"><ele>148.66666666666666</ele><time>2026-04-11T15:35:43.999Z</time></trkpt><trkpt lat="44.516160616043244" lon="10.882220141413592"><ele>148.5</ele><time>2026-04-11T15:35:45.999Z</time></trkpt><trkpt lat="44.51620833202225" lon="10.882280445740687"><ele>148.33333333333334</ele><time>2026-04-11T15:35:46.999Z</time></trkpt><trkpt lat="44.516261729462755" lon="10.882332821010428"><ele>148.16666666666669</ele><time>2026-04-11T15:35:47.999Z</time></trkpt><trkpt lat="44.51632025473643" lon="10.88238006072406"><ele>148.0</ele><time>2026-04-11T15:35:48.999Z</time></trkpt><trkpt lat="44.51638236311419" lon="10.882414012204952"><ele>148.0</ele><time>2026-04-11T15:35:49.999Z</time></trkpt><trkpt lat="44.51644479378443" lon="10.882445296857735"><ele>148.0</ele><time>2026-04-11T15:35:50.999Z</time></trkpt><trkpt lat="44.516511763403514" lon="10.8824808939064"><ele>148.0</ele><time>2026-04-11T15:35:51.999Z</time></trkpt><trkpt lat="44.51657691329286" lon="10.882523965905941"><ele>148.0</ele><time>2026-04-11T15:35:52.999Z</time></trkpt><trkpt lat="44.516640775455066" lon="10.882574651367271"><ele>148.0</ele><time>2026-04-11T15:35:53.999Z</time></trkpt><trkpt lat="44.5167110075943" lon="10.8826200462732"><ele>148.0</ele><time>2026-04-11T15:35:54.999Z</time></trkpt><trkpt lat="44.516785699716095" lon="10.882669286930348"><ele>148.0</ele><time>2026-04-11T15:35:55.999Z</time></trkpt><trkpt lat="44.51685549091147" lon="10.882726664315712"><ele>148.0</ele><time>2026-04-11T15:35:56.999Z</time></trkpt><trkpt lat="44.516924981655926" lon="10.882785608731773"><ele>148.0</ele><time>2026-04-11T15:35:57.999Z</time></trkpt><trkpt lat="44.516994959792335" lon="10.882848813634684"><ele>148.0</ele><time>2026-04-11T15:35:58.999Z</time></trkpt><trkpt lat="44.51706496272119" lon="10.882921932561125"><ele>148.0</ele><time>2026-04-11T15:35:59.999Z</time></trkpt><trkpt lat="44.5171340423085" lon="10.882989619959465"><ele>148.0</ele><time>2026-04-11T15:36:00.999Z</time></trkpt><trkpt lat="44.517200747760796" lon="10.883064882638331"><ele>148.0</ele><time>2026-04-11T15:36:01.999Z</time></trkpt><trkpt lat="44.51726224767693" lon="10.883142660447968"><ele>148.0</ele><time>2026-04-11T15:36:02.999Z</time></trkpt><trkpt lat="44.51732660369658" lon="10.883220155879723"><ele>148.0</ele><time>2026-04-11T15:36:03.999Z</time></trkpt><trkpt lat="44.51738011267316" lon="10.883305586856116"><ele>148.0</ele><time>2026-04-11T15:36:04.999Z</time></trkpt><trkpt lat="44.51744442066808" lon="10.883381060665815"><ele>148.0</ele><time>2026-04-11T15:36:05.999Z</time></trkpt><trkpt lat="44.517502937554895" lon="10.883460912811849"><ele>148.0</ele><time>2026-04-11T15:36:06.999Z</time></trkpt><trkpt lat="44.51756041559284" lon="10.88354763989367"><ele>148.0</ele><time>2026-04-11T15:36:07.999Z</time></trkpt><trkpt lat="44.51762011174847" lon="10.88363069349368"><ele>147.66666666666669</ele><time>2026-04-11T15:36:08.999Z</time></trkpt><trkpt lat="44.517677391933645" lon="10.883714003398437"><ele>147.33333333333334</ele><time>2026-04-11T15:36:09.999Z</time></trkpt><trkpt lat="44.51772752590725" lon="10.88380774246941"><ele>147.0</ele><time>2026-04-11T15:36:10.999Z</time></trkpt><trkpt lat="44.51777885016899" lon="10.883900863900177"><ele>146.66666666666666</ele><time>2026-04-11T15:36:11.999Z</time></trkpt><trkpt lat="44.51783129883088" lon="10.883992178322435"><ele>146.33333333333331</ele><time>2026-04-11T15:36:12.999Z</time></trkpt><trkpt lat="44.51788584039882" lon="10.884077332930605"><ele>146.0</ele><time>2026-04-11T15:36:13.999Z</time></trkpt><trkpt lat="44.517939331566204" lon="10.884164259645791"><ele>146.0</ele><time>2026-04-11T15:36:14.999Z</time></trkpt><trkpt lat="44.51799492882876" lon="10.884252819213478"><ele>146.0</ele><time>2026-04-11T15:36:15.999Z</time></trkpt><trkpt lat="44.51805006632929" lon="10.884334702177194"><ele>146.0</ele><time>2026-04-11T15:36:16.999Z</time></trkpt><trkpt lat="44.518114322933364" lon="10.884413010183064"><ele>146.0</ele><time>2026-04-11T15:36:17.999Z</time></trkpt><trkpt lat="44.51818038574377" lon="10.884492163408881"><ele>146.0</ele><time>2026-04-11T15:36:18.999Z</time></trkpt><trkpt lat="44.51824953760138" lon="10.884565626522239"><ele>146.0</ele><time>2026-04-11T15:36:19.999Z</time></trkpt><trkpt lat="44.51831927799867" lon="10.884628019723584"><ele>145.5</ele><time>2026-04-11T15:36:20.999Z</time></trkpt><trkpt lat="44.51839094553289" lon="10.884694535218415"><ele>145.0</ele><time>2026-04-11T15:36:21.999Z</time></trkpt><trkpt lat="44.51846205071976" lon="10.884751954737123"><ele>144.5</ele><time>2026-04-11T15:36:22.999Z</time></trkpt><trkpt lat="44.5185321046441" lon="10.884817701945188"><ele>144.0</ele><time>2026-04-11T15:36:23.999Z</time></trkpt><trkpt lat="44.518604985845215" lon="10.88488522512702"><ele>143.5</ele><time>2026-04-11T15:36:24.999Z</time></trkpt><trkpt lat="44.518679920368214" lon="10.884953275545255"><ele>143.0</ele><time>2026-04-11T15:36:25.998Z</time></trkpt><trkpt lat="44.51875038523712" lon="10.88503095408528"><ele>142.5</ele><time>2026-04-11T15:36:26.998Z</time></trkpt><trkpt lat="44.5188228851007" lon="10.885105024889386"><ele>142.0</ele><time>2026-04-11T15:36:27.998Z</time></trkpt><trkpt lat="44.518896677559155" lon="10.885174972593523"><ele>141.5</ele><time>2026-04-11T15:36:28.998Z</time></trkpt><trkpt lat="44.51897049598419" lon="10.885242800940379"><ele>141.0</ele><time>2026-04-11T15:36:29.998Z</time></trkpt><trkpt lat="44.519040074883364" lon="10.885313755978132"><ele>140.5</ele><time>2026-04-11T15:36:30.998Z</time></trkpt><trkpt lat="44.519111491339615" lon="10.885380605213781"><ele>140.0</ele><time>2026-04-11T15:36:32Z</time></trkpt><trkpt lat="44.519185542329296" lon="10.885446308939562"><ele>140.0</ele><time>2026-04-11T15:36:33Z</time></trkpt><trkpt lat="44.519255531473036" lon="10.885514601193274"><ele>140.0</ele><time>2026-04-11T15:36:34Z</time></trkpt><trkpt lat="44.51932533731311" lon="10.885583806498468"><ele>140.0</ele><time>2026-04-11T15:36:35Z</time></trkpt><trkpt lat="44.51939813930083" lon="10.88564739041199"><ele>140.0</ele><time>2026-04-11T15:36:36Z</time></trkpt><trkpt lat="44.519467949143284" lon="10.885714086911088"><ele>140.0</ele><time>2026-04-11T15:36:37Z</time></trkpt><trkpt lat="44.51953667511962" lon="10.885778068390966"><ele>140.0</ele><time>2026-04-11T15:36:38Z</time></trkpt><trkpt lat="44.519607044210765" lon="10.885841810667127"><ele>139.83333333333331</ele><time>2026-04-11T15:36:39Z</time></trkpt><trkpt lat="44.51967439619239" lon="10.885904165819442"><ele>139.66666666666666</ele><time>2026-04-11T15:36:40Z</time></trkpt><trkpt lat="44.519746938112874" lon="10.885964427720621"><ele>139.5</ele><time>2026-04-11T15:36:41Z</time></trkpt><trkpt lat="44.51981522082416" lon="10.88603427202981"><ele>139.33333333333334</ele><time>2026-04-11T15:36:42Z</time></trkpt><trkpt lat="44.519882743828994" lon="10.886094198899865"><ele>139.16666666666669</ele><time>2026-04-11T15:36:43Z</time></trkpt><trkpt lat="44.51995264103474" lon="10.886158959424545"><ele>139.0</ele><time>2026-04-11T15:36:44Z</time></trkpt><trkpt lat="44.52002186668318" lon="10.886227377297951"><ele>139.0</ele><time>2026-04-11T15:36:45Z</time></trkpt><trkpt lat="44.520090070141016" lon="10.886292465235623"><ele>139.0</ele><time>2026-04-11T15:36:46Z</time></trkpt><trkpt lat="44.52015867530259" lon="10.88636251305749"><ele>139.0</ele><time>2026-04-11T15:36:47Z</time></trkpt><trkpt lat="44.52022882480363" lon="10.886431004784107"><ele>139.0</ele><time>2026-04-11T15:36:48Z</time></trkpt><trkpt lat="44.520295561631535" lon="10.886499772020427"><ele>139.0</ele><time>2026-04-11T15:36:49Z</time></trkpt><trkpt lat="44.52036621224265" lon="10.886581374015611"><ele>139.0</ele><time>2026-04-11T15:36:50Z</time></trkpt><trkpt lat="44.520433794747305" lon="10.886644728171287"><ele>139.0</ele><time>2026-04-11T15:36:51Z</time></trkpt><trkpt lat="44.52049729261248" lon="10.886716425530766"><ele>139.0</ele><time>2026-04-11T15:36:52Z</time></trkpt><trkpt lat="44.5205681240076" lon="10.886788544483698"><ele>139.0</ele><time>2026-04-11T15:36:53Z</time></trkpt><trkpt lat="44.52063421349524" lon="10.886857694067428"><ele>139.0</ele><time>2026-04-11T15:36:54Z</time></trkpt><trkpt lat="44.52069717190328" lon="10.886926594662421"><ele>139.0</ele><time>2026-04-11T15:36:55Z</time></trkpt><trkpt lat="44.520766765349066" lon="10.886996753034248"><ele>139.0</ele><time>2026-04-11T15:36:56Z</time></trkpt><trkpt lat="44.52083256512961" lon="10.887060065456339"><ele>139.0</ele><time>2026-04-11T15:36:57Z</time></trkpt><trkpt lat="44.52089941592268" lon="10.887128331119374"><ele>139.0</ele><time>2026-04-11T15:36:58Z</time></trkpt><trkpt lat="44.5209665544408" lon="10.887189089665359"><ele>139.0</ele><time>2026-04-11T15:36:59Z</time></trkpt><trkpt lat="44.521019327320104" lon="10.88726589794814"><ele>139.0</ele><time>2026-04-11T15:37:00Z</time></trkpt><trkpt lat="44.521081872178385" lon="10.887334063520509"><ele>139.0</ele><time>2026-04-11T15:37:01Z</time></trkpt><trkpt lat="44.52114408497288" lon="10.88740108417461"><ele>139.0</ele><time>2026-04-11T15:37:02Z</time></trkpt><trkpt lat="44.52121033421057" lon="10.887471435319014"><ele>138.33333333333334</ele><time>2026-04-11T15:37:03Z</time></trkpt><trkpt lat="44.52128298893385" lon="10.887524161734204"><ele>137.66666666666669</ele><time>2026-04-11T15:37:04Z</time></trkpt><trkpt lat="44.521343965912436" lon="10.887595539045469"><ele>137.0</ele><time>2026-04-11T15:37:05Z</time></trkpt><trkpt lat="44.52140587363962" lon="10.88766101929639"><ele>136.33333333333334</ele><time>2026-04-11T15:37:06Z</time></trkpt><trkpt lat="44.521469631585894" lon="10.887724581079887"><ele>135.66666666666666</ele><time>2026-04-11T15:37:07Z</time></trkpt><trkpt lat="44.5215152605129" lon="10.88779565509947"><ele>135.0</ele><time>2026-04-11T15:37:08Z</time></trkpt><trkpt lat="44.52161161070408" lon="10.8876151870862"><ele>135.0</ele><time>2026-04-11T15:37:10Z</time></trkpt><trkpt lat="44.521693161797714" lon="10.887501219935459"><ele>135.0</ele><time>2026-04-11T15:37:12Z</time></trkpt><trkpt lat="44.52174186975768" lon="10.887380107982139"><ele>135.0</ele><time>2026-04-11T15:37:14Z</time></trkpt><trkpt lat="44.52178484797124" lon="10.887257643586967"><ele>135.0</ele><time>2026-04-11T15:37:16Z</time></trkpt><trkpt lat="44.52182940853268" lon="10.887139557873986"><ele>135.0</ele><time>2026-04-11T15:37:18Z</time></trkpt><trkpt lat="44.52186643261485" lon="10.88701292244953"><ele>135.0</ele><time>2026-04-11T15:37:20Z</time></trkpt><trkpt lat="44.5219076503889" lon="10.88688037583115"><ele>135.0</ele><time>2026-04-11T15:37:21.999Z</time></trkpt><trkpt lat="44.521950514580595" lon="10.886746336651797"><ele>135.0</ele><time>2026-04-11T15:37:23.999Z</time></trkpt><trkpt lat="44.522002478105094" lon="10.886617483015478"><ele>135.0</ele><time>2026-04-11T15:37:25.999Z</time></trkpt><trkpt lat="44.52204776363516" lon="10.88648980854399"><ele>135.0</ele><time>2026-04-11T15:37:27.999Z</time></trkpt><trkpt lat="44.522093183095194" lon="10.886368415396593"><ele>135.0</ele><time>2026-04-11T15:37:29.999Z</time></trkpt><trkpt lat="44.52214741581113" lon="10.886251525334103"><ele>135.0</ele><time>2026-04-11T15:37:31.999Z</time></trkpt><trkpt lat="44.52219465379651" lon="10.886130349105095"><ele>135.0</ele><time>2026-04-11T15:37:33.999Z</time></trkpt><trkpt lat="44.522233774338446" lon="10.886011098422934"><ele>135.0</ele><time>2026-04-11T15:37:35.999Z</time></trkpt><trkpt lat="44.52228657982505" lon="10.885892535372726"><ele>135.0</ele><time>2026-04-11T15:37:37.999Z</time></trkpt><trkpt lat="44.52232662756951" lon="10.885771285110188"><ele>135.0</ele><time>2026-04-11T15:37:39.999Z</time></trkpt><trkpt lat="44.52237657807605" lon="10.88565227136427"><ele>135.0</ele><time>2026-04-11T15:37:41.999Z</time></trkpt><trkpt lat="44.52241924514797" lon="10.885530378324436"><ele>135.0</ele><time>2026-04-11T15:37:43.999Z</time></trkpt><trkpt lat="44.522467155133924" lon="10.885415061655756"><ele>135.0</ele><time>2026-04-11T15:37:45.999Z</time></trkpt><trkpt lat="44.5225118486717" lon="10.885294225322298"><ele>135.0</ele><time>2026-04-11T15:37:47.999Z</time></trkpt><trkpt lat="44.52255468677032" lon="10.885178226932112"><ele>134.8</ele><time>2026-04-11T15:37:49.999Z</time></trkpt><trkpt lat="44.5225954502651" lon="10.885056444451532"><ele>134.6</ele><time>2026-04-11T15:37:51.999Z</time></trkpt><trkpt lat="44.52264408903388" lon="10.884940137499342"><ele>134.4</ele><time>2026-04-11T15:37:53.999Z</time></trkpt><trkpt lat="44.52267975772175" lon="10.88481711941004"><ele>134.2</ele><time>2026-04-11T15:37:55.999Z</time></trkpt><trkpt lat="44.52276540820708" lon="10.884738342281887"><ele>134.0</ele><time>2026-04-11T15:37:57.999Z</time></trkpt><trkpt lat="44.52281406785455" lon="10.88464948606702"><ele>134.0</ele><time>2026-04-11T15:37:59.999Z</time></trkpt><trkpt lat="44.52275690866256" lon="10.884565461136233"><ele>134.0</ele><time>2026-04-11T15:38:00.999Z</time></trkpt><trkpt lat="44.52278794351774" lon="10.884468202647799"><ele>134.0</ele><time>2026-04-11T15:38:02.999Z</time></trkpt><trkpt lat="44.52297049595471" lon="10.884569139108534"><ele>134.0</ele><time>2026-04-11T15:38:04.999Z</time></trkpt><trkpt lat="44.52305066154335" lon="10.884626679583286"><ele>134.0</ele><time>2026-04-11T15:38:06.999Z</time></trkpt><trkpt lat="44.523135096490435" lon="10.88468308358828"><ele>134.0</ele><time>2026-04-11T15:38:08.999Z</time></trkpt><trkpt lat="44.52322580935519" lon="10.884755316325569"><ele>134.0</ele><time>2026-04-11T15:38:10.999Z</time></trkpt><trkpt lat="44.52332049067964" lon="10.884825186118444"><ele>134.0</ele><time>2026-04-11T15:38:12.999Z</time></trkpt><trkpt lat="44.523418566837954" lon="10.884895906652313"><ele>134.0</ele><time>2026-04-11T15:38:14.999Z</time></trkpt><trkpt lat="44.52348665518123" lon="10.885010736349463"><ele>134.0</ele><time>2026-04-11T15:38:16.999Z</time></trkpt><trkpt lat="44.52347519004038" lon="10.885099005203319"><ele>134.0</ele><time>2026-04-11T15:38:17.999Z</time></trkpt><trkpt lat="44.52342648513135" lon="10.885241400079972"><ele>134.0</ele><time>2026-04-11T15:38:19.999Z</time></trkpt><trkpt lat="44.52338822576491" lon="10.885382665637955"><ele>134.0</ele><time>2026-04-11T15:38:21.999Z</time></trkpt><trkpt lat="44.52333203568547" lon="10.885520533628416"><ele>134.0</ele><time>2026-04-11T15:38:23.999Z</time></trkpt><trkpt lat="44.5232551585233" lon="10.885615905080021"><ele>134.0</ele><time>2026-04-11T15:38:25.999Z</time></trkpt><trkpt lat="44.52321100013538" lon="10.885740661588732"><ele>134.0</ele><time>2026-04-11T15:38:27.999Z</time></trkpt><trkpt lat="44.52316403197015" lon="10.885863294885555"><ele>134.0</ele><time>2026-04-11T15:38:29.998Z</time></trkpt><trkpt lat="44.523105602767444" lon="10.885995083224898"><ele>134.0</ele><time>2026-04-11T15:38:31.998Z</time></trkpt><trkpt lat="44.52304883217864" lon="10.886119134917548"><ele>134.0</ele><time>2026-04-11T15:38:33.998Z</time></trkpt><trkpt lat="44.522994743497335" lon="10.886243365097153"><ele>134.0</ele><time>2026-04-11T15:38:35.998Z</time></trkpt><trkpt lat="44.52293961865818" lon="10.886372755170283"><ele>134.2</ele><time>2026-04-11T15:38:38Z</time></trkpt><trkpt lat="44.52289004898841" lon="10.886488352405852"><ele>134.4</ele><time>2026-04-11T15:38:40Z</time></trkpt><trkpt lat="44.522837733458935" lon="10.886601108449396"><ele>134.6</ele><time>2026-04-11T15:38:42Z</time></trkpt><trkpt lat="44.52278430932445" lon="10.886728495388853"><ele>134.8</ele><time>2026-04-11T15:38:44Z</time></trkpt><trkpt lat="44.52276464446001" lon="10.88685740179032"><ele>135.0</ele><time>2026-04-11T15:38:46Z</time></trkpt><trkpt lat="44.522859934748716" lon="10.886924515592959"><ele>134.8</ele><time>2026-04-11T15:38:48Z</time></trkpt><trkpt lat="44.52294551394878" lon="10.886989914855956"><ele>134.6</ele><time>2026-04-11T15:38:50Z</time></trkpt><trkpt lat="44.52303535907149" lon="10.887050672490451"><ele>134.4</ele><time>2026-04-11T15:38:52Z</time></trkpt><trkpt lat="44.523054152362825" lon="10.88718972565958"><ele>134.2</ele><time>2026-04-11T15:38:54Z</time></trkpt><trkpt lat="44.52298144025608" lon="10.887307912183628"><ele>134.0</ele><time>2026-04-11T15:38:56Z</time></trkpt><trkpt lat="44.522928543373105" lon="10.887426194042403"><ele>134.2</ele><time>2026-04-11T15:38:58Z</time></trkpt><trkpt lat="44.52288760120961" lon="10.887546157200271"><ele>134.4</ele><time>2026-04-11T15:39:00Z</time></trkpt><trkpt lat="44.52284347660101" lon="10.887679052314901"><ele>134.6</ele><time>2026-04-11T15:39:02Z</time></trkpt><trkpt lat="44.522801096908246" lon="10.887807311421005"><ele>134.8</ele><time>2026-04-11T15:39:04Z</time></trkpt><trkpt lat="44.522750812296614" lon="10.88792089777507"><ele>135.0</ele><time>2026-04-11T15:39:06Z</time></trkpt><trkpt lat="44.52272862809681" lon="10.888034336855668"><ele>136.0</ele><time>2026-04-11T15:39:08Z</time></trkpt><trkpt lat="44.52283592638835" lon="10.888092962731497"><ele>136.0</ele><time>2026-04-11T15:39:10Z</time></trkpt><trkpt lat="44.52292453150124" lon="10.888119525835037"><ele>134.0</ele><time>2026-04-11T15:39:12Z</time></trkpt><trkpt lat="44.52295827675808" lon="10.888249536805926"><ele>134.0</ele><time>2026-04-11T15:39:14Z</time></trkpt><trkpt lat="44.52291160985881" lon="10.888350498112029"><ele>134.0</ele><time>2026-04-11T15:39:16Z</time></trkpt></trkseg></trk></gpx>